[[{"header":{"parameterUnit":"m.s-1","parameterCategory":1,"la1":30.6,"la2":28.766,"lo1":-90.7593,"lo2":-88.6598,"dy":0.0162,"dx":0.0183,"nx":116,"ny":114,"refTime":"2024-05-21T12:00:00:Z","depth":0,"parameterNumber":2,"parameterNumberName":"U-component_of_WINDS"},"data":[0.0,0.0,0.0,0.0,0.0,0.0,0.0,0.0,0.0,0.0,0.0,0.0,0.0,0.0,0.0,0.0,0.0,0.0,0.0,0.0,0.0,0.0,0.0,0.0,0.0,0.0,0.0,0.0,0.0,0.0,0.0,0.0,0.0,0.0,0.0,0.0,0.0,0.0,0.0,0.0,0.0,0.0,0.0,0.0,0.0,0.0,0.0,0.0,0.0,0.0,0.0,0.0,0.0,0.0,0.0,0.0,0.0,0.0,0.0,0.0,0.0,0.0,0.0,0.0,0.0,0.0,0.0,0.0,0.0,0.0,0.0,0.0,0.0,0.0,0.0,0.0,0.0,0.0,0.0,0.0,0.0,0.0,0.0,0.0,0.0,0.0,0.0,0.0,0.0,0.0,0.0,0.0,0.0,0.0,0.0,0.0,0.0,0.0,0.0,0.0,0.0,0.0,0.0,0.0,0.0,0.0,0.0,0.0,0.0,0.0,0.0,0.0,0.0,0.0,0.0,0.0,0.0,0.0,0.0,0.0,0.0,0.0,0.0,0.0,0.0,0.0,0.0,0.0,0.0,0.0,0.0,0.0,0.0,0.0,0.0,0.0,0.0,0.0,0.0,0.0,0.0,0.0,0.0,0.0,0.0,0.0,0.0,0.0,0.0,0.0,0.0,0.0,0.0,0.0,0.0,0.0,0.0,0.0,0.0,0.0,0.0,0.0,0.0,0.0,0.0,0.0,0.0,0.0,0.0,0.0,0.0,0.0,0.0,0.0,0.0,0.0,0.0,0.0,0.0,0.0,0.0,0.0,0.0,0.0,0.0,0.0,0.0,0.0,0.0,0.0,0.0,0.0,0.0,0.0,0.0,0.0,0.0,0.0,0.0,0.0,0.0,0.0,0.0,0.0,0.0,0.0,0.0,0.0,0.0,0.0,0.0,0.0,0.0,0.0,0.0,0.0,0.0,0.0,0.0,0.0,0.0,0.0,0.0,0.0,0.0,0.0,0.0,0.0,0.0,0.0,0.0,0.0,0.0,0.0,0.0,0.0,0.0,0.0,0.0,0.0,0.0,0.0,0.0,0.0,0.0,0.0,0.0,0.0,0.0,0.0,0.0,0.0,0.0,0.0,0.0,0.0,0.0,0.0,0.0,0.0,0.0,0.0,0.0,0.0,0.0,0.0,0.0,0.0,0.0,0.0,0.0,0.0,0.0,0.0,0.0,0.0,0.0,0.0,0.0,0.0,0.0,0.0,0.0,0.0,0.0,0.0,0.0,0.0,0.0,0.0,0.0,0.0,0.0,0.0,0.0,0.0,0.0,0.0,0.0,0.0,0.0,0.0,0.0,0.0,0.0,0.0,0.0,0.0,0.0,0.0,0.0,0.0,0.0,0.0,0.0,0.0,0.0,0.0,0.0,0.0,0.0,0.0,0.0,0.0,0.0,0.0,0.0,0.0,0.0,0.0,0.0,0.0,0.0,0.0,0.0,0.0,0.0,0.0,0.0,0.0,0.0,0.0,0.0,0.0,0.0,0.0,0.0,0.0,0.0,0.0,0.0,0.0,0.0,0.0,0.0,0.0,0.0,0.0,0.0,0.0,0.0,0.0,0.0,0.0,0.0,0.0,0.0,0.0,0.0,0.0,0.0,0.0,0.0,0.0,0.0,0.0,0.0,0.0,0.0,0.0,0.0,0.0,0.0,0.0,0.0,0.0,0.0,0.0,0.0,0.0,0.0,0.0,0.0,0.0,0.0,0.0,0.0,0.0,0.0,0.0,0.0,0.0,0.0,0.0,0.0,0.0,0.0,0.0,0.0,0.0,0.0,0.0,0.0,0.0,0.0,0.0,0.0,0.0,0.0,0.0,0.0,0.0,0.0,0.0,0.0,0.0,0.0,0.0,0.0,0.0,0.0,0.0,0.0,0.0,0.0,0.0,0.0,0.0,0.0,0.0,0.0,0.0,0.0,0.0,0.0,0.0,0.0,0.0,0.0,0.0,0.0,0.0,0.0,0.0,0.0,0.0,0.0,0.0,0.0,0.0,0.0,0.0,0.0,0.0,0.0,0.0,0.0,0.0,0.0,0.0,0.0,0.0,0.0,0.0,0.0,0.0,0.0,0.0,0.0,0.0,0.0,0.0,0.0,0.0,0.0,0.0,0.0,0.0,0.0,0.0,0.0,0.0,0.0,0.0,0.0,0.0,0.0,0.0,0.0,0.0,0.0,0.0,0.0,0.0,0.0,0.0,0.0,0.0,0.0,0.0,0.0,0.0,0.0,0.0,0.0,0.0,0.0,0.0,0.0,0.0,0.0,0.0,0.0,0.0,0.0,0.0,0.0,0.0,0.0,0.0,0.0,0.0,0.0,0.0,0.0,0.0,0.0,0.0,0.0,0.0,0.0,0.0,0.0,0.0,0.0,0.0,0.0,0.0,0.0,0.0,0.0,0.0,0.0,0.0,0.0,0.0,0.0,0.0,0.0,0.0,0.0,0.0,0.0,0.0,0.0,0.0,0.0,0.0,0.0,0.0,0.0,0.0,0.0,0.0,0.0,0.0,0.0,0.0,0.0,0.0,0.0,0.0,0.0,0.0,0.0,0.0,0.0,0.0,0.0,0.0,0.0,0.0,0.0,0.0,0.0,0.0,0.0,0.0,0.0,0.0,0.0,0.0,0.0,0.0,0.0,0.0,0.0,0.0,0.0,0.0,0.0,0.0,0.0,0.0,0.0,0.0,0.0,0.0,0.0,0.0,0.0,0.0,0.0,0.0,0.0,0.0,0.0,0.0,0.0,0.0,0.0,0.0,0.0,0.0,0.0,0.0,0.0,0.0,0.0,0.0,0.0,0.0,0.0,0.0,0.0,0.0,0.0,0.0,0.0,0.0,0.0,0.0,0.0,0.0,0.0,0.0,0.0,0.0,0.0,0.0,0.0,0.0,0.0,0.0,0.0,0.0,0.0,0.0,0.0,0.0,0.0,0.0,0.0,0.0,0.0,0.0,0.0,0.0,0.0,0.0,0.0,0.0,0.0,0.0,0.0,0.0,0.0,0.0,0.0,0.0,0.0,0.0,0.0,0.0,0.0,0.0,0.0,0.0,0.0,0.0,0.0,0.0,0.0,0.0,0.0,0.0,0.0,0.0,0.0,0.0,0.0,0.0,0.0,0.0,0.0,0.0,0.0,0.0,0.0,0.0,0.0,0.0,0.0,0.0,0.0,0.0,0.0,0.0,0.0,0.0,0.0,0.0,0.0,0.0,0.0,0.0,0.0,0.0,0.0,0.0,0.0,0.0,0.0,0.0,0.0,0.0,0.0,0.0,0.0,0.0,0.0,0.0,0.0,0.0,0.0,0.0,0.0,0.0,0.0,0.0,0.0,0.0,0.0,0.0,0.0,0.0,0.0,0.0,0.0,0.0,0.0,0.0,0.0,0.0,0.0,0.0,0.0,0.0,0.0,0.0,0.0,0.0,0.0,0.0,0.0,0.0,0.0,0.0,0.0,0.0,0.0,0.0,0.0,0.0,0.0,0.0,0.0,0.0,0.0,0.0,0.0,0.0,0.0,0.0,0.0,0.0,0.0,0.0,0.0,0.0,0.0,0.0,0.0,0.0,0.0,0.0,0.0,0.0,0.0,0.0,0.0,0.0,0.0,0.0,0.0,0.0,0.0,0.0,0.0,0.0,0.0,0.0,0.0,0.0,0.0,0.0,0.0,0.0,0.0,0.0,0.0,0.0,0.0,0.0,0.0,0.0,0.0,0.0,0.0,0.0,0.0,0.0,0.0,0.0,0.0,0.0,0.0,0.0,0.0,0.0,0.0,0.0,0.0,0.0,0.0,0.0,0.0,0.0,0.0,0.0,0.0,0.0,0.0,0.0,0.0,0.0,0.0,0.0,0.0,0.0,0.0,0.0,0.0,0.0,0.0,0.0,0.0,0.0,0.0,0.0,0.0,0.0,0.0,0.0,0.0,0.0,0.0,0.0,0.0,0.0,0.0,0.0,0.0,0.0,0.0,0.0,0.0,0.0,0.0,0.0,0.0,0.0,0.0,0.0,0.0,0.0,0.0,0.0,0.0,0.0,0.0,0.0,0.0,0.0,0.0,0.0,0.0,0.0,0.0,0.0,0.0,0.0,0.0,0.0,0.0,0.0,0.0,0.0,0.0,0.0,0.0,0.0,0.0,0.0,0.0,0.0,0.0,0.0,0.0,0.0,0.0,0.0,0.0,0.0,0.0,0.0,0.0,0.0,0.0,0.0,0.0,0.0,0.0,0.0,0.0,0.0,0.0,0.0,0.0,0.0,0.0,0.0,0.0,0.0,0.0,0.0,0.0,0.0,0.0,0.0,0.0,0.0,0.0,0.0,0.0,0.0,0.0,0.0,0.0,0.0,0.0,0.0,0.0,0.0,0.0,0.0,0.0,0.0,0.0,0.0,0.0,0.0,0.0,0.0,0.0,0.0,0.0,0.0,0.0,0.0,0.0,0.0,0.0,0.0,0.0,0.0,0.0,0.0,0.0,0.0,0.0,0.0,0.0,0.0,0.0,0.0,0.0,0.0,0.0,0.0,0.0,0.0,0.0,0.0,0.0,0.0,0.0,0.0,0.0,0.0,0.0,0.0,0.0,0.0,0.0,0.0,0.0,0.0,0.0,0.0,0.0,0.0,0.0,0.0,0.0,0.0,0.0,0.0,0.0,0.0,0.0,0.0,0.0,0.0,0.0,0.0,0.0,0.0,0.0,0.0,0.0,0.0,0.0,0.0,0.0,0.0,0.0,0.0,0.0,0.0,0.0,0.0,0.0,0.0,0.0,0.0,0.0,0.0,0.0,0.0,0.0,0.0,0.0,0.0,0.0,0.0,0.0,0.0,0.0,0.0,0.0,0.0,0.0,0.0,0.0,0.0,0.0,0.0,0.0,0.0,0.0,0.0,0.0,0.0,0.0,0.0,0.0,0.0,0.0,0.0,0.0,0.0,0.0,0.0,0.0,0.0,0.0,0.0,0.0,0.0,0.0,0.0,0.0,0.0,0.0,0.0,0.0,0.0,0.0,0.0,0.0,0.0,0.0,0.0,0.0,0.0,0.0,0.0,0.0,0.0,0.0,0.0,0.0,0.0,0.0,0.0,0.0,0.0,0.0,0.0,0.0,0.0,0.0,0.0,0.0,0.0,0.0,0.0,0.0,0.0,0.0,0.0,0.0,0.0,0.0,0.0,0.0,0.0,0.0,0.0,0.0,0.0,0.0,0.0,0.0,0.0,0.0,0.0,0.0,0.0,0.0,0.0,0.0,0.0,0.0,0.0,0.0,0.0,0.0,0.0,0.0,0.0,0.0,0.0,0.0,0.0,0.0,0.0,0.0,0.0,0.0,0.0,0.0,0.0,0.0,0.0,0.0,0.0,0.0,0.0,0.0,0.0,0.0,0.0,0.0,0.0,0.0,0.0,0.0,0.0,0.0,0.0,0.0,0.0,0.0,0.0,0.0,0.0,0.0,0.0,0.0,0.0,0.0,0.0,0.0,0.0,0.0,0.0,0.0,0.0,0.0,0.0,0.0,0.0,0.0,0.0,0.0,0.0,0.0,0.0,0.0,0.0,0.0,0.0,0.0,0.0,0.0,0.0,0.0,0.0,0.0,0.0,0.0,0.0,0.0,0.0,0.0,0.0,0.0,0.0,0.0,0.0,0.0,0.0,0.0,0.0,0.0,0.0,0.0,0.0,0.0,0.0,0.0,0.0,0.0,0.0,0.0,0.0,0.0,0.0,0.0,0.0,0.0,0.0,0.0,0.0,0.0,0.0,0.0,0.0,0.0,0.0,0.0,0.0,0.0,0.0,0.0,0.0,0.0,0.0,0.0,0.0,0.0,0.0,0.0,0.0,0.0,0.0,0.0,0.0,0.0,0.0,0.0,0.0,0.0,0.0,0.0,0.0,0.0,0.0,0.0,0.0,0.0,0.0,0.0,0.0,0.0,0.0,0.0,0.0,0.0,0.0,0.0,0.0,0.0,0.0,0.0,0.0,0.0,0.0,0.0,0.0,0.0,0.0,0.0,0.0,0.0,0.0,0.0,0.0,0.0,0.0,0.0,0.0,0.0,0.0,0.0,0.0,0.0,0.0,-4.7,0.0,0.0,0.0,0.0,0.0,0.0,0.0,0.0,0.0,0.0,0.0,0.0,0.0,0.0,0.0,0.0,0.0,0.0,0.0,0.0,0.0,0.0,0.0,0.0,-2.6836,-2.7969,-2.8867,-2.9297,-2.9531,-2.9531,0.0,0.0,0.0,0.0,0.0,-2.6289,-2.582,-2.6016,-2.6914,-2.8125,-3.0273,-3.3203,-3.2617,-3.0195,-2.6328,0.0,0.0,0.0,0.0,0.0,0.0,0.0,0.0,0.0,0.0,0.0,0.0,0.0,0.0,0.0,0.0,0.0,0.0,0.0,0.0,0.0,0.0,0.0,0.0,0.0,0.0,0.0,0.0,0.0,0.0,0.0,0.0,0.0,0.0,0.0,0.0,0.0,0.0,0.0,0.0,0.0,0.0,0.0,0.0,0.0,0.0,0.0,0.0,0.0,0.0,0.0,0.0,0.0,0.0,0.0,0.0,0.0,0.0,0.0,0.0,0.0,0.0,0.0,0.0,0.0,0.0,0.0,0.0,0.0,0.0,0.0,-4.8369,0.0,0.0,0.0,0.0,0.0,0.0,0.0,0.0,0.0,0.0,0.0,0.0,0.0,0.0,0.0,0.0,0.0,0.0,0.0,0.0,0.0,-2.4095,-2.6172,-2.7656,-2.8984,-3.0156,-3.0937,-3.1289,-3.1133,-3.0469,0.0,0.0,0.0,-2.8476,-2.8281,-2.8437,-2.9258,-3.0703,-3.4023,-3.7578,-4.1289,-4.2812,-3.9297,-3.1641,-3.1641,0.0,0.0,0.0,0.0,0.0,0.0,0.0,0.0,0.0,0.0,0.0,0.0,0.0,0.0,0.0,0.0,0.0,0.0,0.0,0.0,0.0,0.0,0.0,0.0,0.0,0.0,0.0,0.0,0.0,0.0,0.0,0.0,0.0,0.0,0.0,0.0,0.0,0.0,0.0,0.0,0.0,0.0,0.0,0.0,0.0,0.0,0.0,0.0,0.0,0.0,0.0,0.0,0.0,0.0,0.0,0.0,0.0,0.0,0.0,0.0,0.0,0.0,0.0,-5.7084,-5.7697,-5.8156,-5.7482,-5.7517,-5.8018,-5.6778,-5.5742,-5.4818,0.0,0.0,0.0,0.0,0.0,0.0,0.0,0.0,0.0,0.0,0.0,0.0,0.0,0.0,0.0,0.0,0.0,0.0,0.0,0.0,-2.5469,-2.8711,-2.9297,-3.0351,-3.2695,-3.3008,-3.2773,-3.207,-3.1914,0.0,0.0,-2.9492,-2.9062,-2.832,-2.9023,-3.1328,-3.5156,-4.1484,-4.5273,-4.6601,-4.7578,-4.6953,-4.4883,-4.1289,-3.8789,-3.7031,0.0,0.0,0.0,0.0,0.0,0.0,0.0,0.0,0.0,0.0,0.0,0.0,0.0,0.0,0.0,0.0,0.0,0.0,0.0,0.0,0.0,0.0,0.0,0.0,0.0,0.0,0.0,0.0,0.0,0.0,0.0,0.0,0.0,0.0,0.0,0.0,0.0,0.0,0.0,0.0,0.0,-4.4101,-4.7461,0.0,0.0,0.0,0.0,0.0,0.0,0.0,0.0,0.0,0.0,0.0,0.0,0.0,-5.5,-5.5742,-5.9765,-6.1788,-6.1719,-6.5333,-6.7005,-6.6913,-6.6707,-6.664,-6.6628,-6.4294,0.0,-5.683,-5.8704,0.0,0.0,0.0,0.0,0.0,0.0,0.0,0.0,0.0,0.0,0.0,0.0,0.0,0.0,0.0,0.0,0.0,0.0,0.0,0.0,0.0,-3.2461,-3.4766,-3.6875,-3.8828,-3.8945,-3.668,-3.5625,-3.3867,-3.1172,-3.0586,-3.0391,-3.0508,-3.1328,-3.5039,-4.1797,-4.8203,-5.2305,-5.4141,-5.5469,-5.5898,-5.539,-5.2578,-4.7656,-4.1289,-3.8828,0.0,0.0,0.0,0.0,0.0,0.0,0.0,0.0,0.0,0.0,0.0,0.0,0.0,0.0,0.0,0.0,0.0,0.0,0.0,0.0,0.0,0.0,0.0,0.0,0.0,0.0,0.0,0.0,0.0,0.0,0.0,0.0,0.0,0.0,0.0,0.0,0.0,0.0,0.0,-4.3359,-4.7187,-4.8711,-4.9844,-4.8711,0.0,0.0,0.0,0.0,0.0,0.0,0.0,0.0,0.0,-5.8086,-6.0547,-6.2226,-6.3125,-6.6406,-6.8142,-6.8333,-7.0181,-7.115,-7.1325,-7.0811,-7.0629,-7.0629,-6.8436,-6.6474,-6.4512,-6.0512,-5.7627,-5.5472,0.0,0.0,0.0,0.0,0.0,-4.9202,0.0,0.0,0.0,0.0,0.0,0.0,0.0,0.0,0.0,0.0,0.0,0.0,-3.2461,-3.6484,-3.9726,-4.1719,-4.3984,-4.3984,-4.0742,-3.8711,-3.6211,-3.2969,-3.1992,-3.1836,-3.25,-3.5273,-4.0703,-4.8945,-5.4297,-5.8164,-6.0547,-6.1797,-6.2383,-6.2305,-6.082,-5.5273,-4.6836,-4.4258,-4.0547,-3.6055,0.0,0.0,0.0,0.0,0.0,0.0,0.0,0.0,0.0,0.0,0.0,0.0,0.0,0.0,0.0,0.0,0.0,0.0,0.0,0.0,0.0,0.0,0.0,0.0,0.0,0.0,0.0,0.0,0.0,0.0,0.0,0.0,0.0,0.0,0.0,0.0,0.0,-4.6953,-5.0547,-5.1445,-5.418,-5.3984,0.0,0.0,0.0,0.0,0.0,0.0,-5.7226,-5.9375,-6.1406,-6.332,-6.6719,-6.9023,-7.0078,-7.1756,-7.272,-7.3034,-7.2975,-7.316,-7.3476,-7.2668,-7.236,-7.2399,-7.0744,-7.0244,-7.0014,-6.2627,-5.9704,-5.9704,-5.7742,-5.5126,-5.2241,-5.0664,-5.0971,-5.2615,0.0,0.0,0.0,0.0,0.0,0.0,0.0,0.0,0.0,0.0,0.0,-3.4336,-3.7812,-4.1289,-4.4414,-4.6992,-4.6601,-4.5117,-4.2461,-3.9922,-3.7344,-3.4687,-3.375,-3.3281,-3.3359,-4.1445,-4.9062,-5.6094,-5.9648,-6.2305,-6.4062,-6.414,-6.418,-6.414,-6.3203,-6.0273,-5.5625,-5.0625,-4.6914,-4.3828,-3.7148,0.0,0.0,0.0,0.0,0.0,0.0,0.0,0.0,0.0,0.0,0.0,0.0,0.0,0.0,0.0,0.0,0.0,0.0,0.0,0.0,0.0,0.0,0.0,0.0,0.0,0.0,0.0,0.0,0.0,0.0,0.0,0.0,0.0,0.0,0.0,0.0,0.0,0.0,-5.8281,-6.2383,0.0,0.0,0.0,0.0,-5.7383,-5.8984,-6.1836,-6.6015,-6.7148,-6.8828,-7.1328,-7.2422,-7.3672,-7.5117,-7.4501,-7.4095,-7.3929,-7.3752,-7.3582,-7.3462,-7.286,-7.2437,-7.2168,-7.1245,-7.0437,-6.9552,-6.6667,-6.5013,-6.3705,-5.8011,-5.5011,-5.3818,-5.3203,-5.3049,-5.3549,0.0,0.0,0.0,0.0,0.0,-2.3758,-2.4071,-2.5386,-2.6952,-2.8731,-3.253,-3.6406,-3.9883,-4.5273,-4.9492,-5.1523,-5.2969,-5.2422,-4.9258,-4.5078,-4.1562,-3.8984,-3.5898,-3.6055,-3.9922,-4.7969,-5.3867,-5.7422,-6.1992,-6.4531,-6.5156,-6.5703,-6.5976,-6.5937,-6.5078,-6.3828,-6.2031,-5.6875,-5.2226,-4.7969,-4.3828,-3.9297,0.0,0.0,0.0,0.0,0.0,0.0,0.0,0.0,0.0,0.0,0.0,0.0,0.0,0.0,0.0,0.0,0.0,0.0,0.0,0.0,0.0,0.0,0.0,0.0,0.0,0.0,0.0,0.0,0.0,0.0,0.0,0.0,0.0,0.0,0.0,0.0,0.0,-6.1992,-6.4805,0.0,-6.3086,-6.3633,-6.4023,-6.3711,-6.6797,-6.9375,-7.0937,-7.289,-7.4062,-7.4258,-7.5976,-7.7148,-7.7695,-7.6516,-7.6131,-7.6504,-7.5731,-7.5282,-7.5091,-7.4322,-7.3399,-7.2437,-7.1937,-7.1245,-7.036,-6.8936,-6.7513,-6.5936,-6.3281,-6.2012,-6.1627,-6.1435,-6.1358,-6.1512,0.0,0.0,0.0,0.0,-2.3278,-2.3855,-2.4432,-2.6301,-2.8508,-3.0821,-3.5496,-4.0156,-4.4219,-5.0,-5.4297,-5.6015,-5.7226,-5.6172,-5.2109,-4.7812,-4.3789,-4.0039,-3.8516,-4.0976,-4.7891,-5.3398,-5.7617,-6.0508,-6.3906,-6.5742,-6.6055,-6.664,-6.6914,-6.6875,-6.6289,-6.5898,-6.539,-6.1953,-5.7851,-5.332,-4.9531,-4.4922,-3.9883,0.0,0.0,0.0,0.0,0.0,0.0,0.0,0.0,0.0,0.0,0.0,0.0,0.0,0.0,0.0,0.0,0.0,0.0,0.0,0.0,0.0,0.0,0.0,0.0,0.0,0.0,0.0,0.0,0.0,0.0,0.0,0.0,0.0,0.0,0.0,-6.1211,-6.4375,-6.7578,-6.9023,-6.7851,-6.8828,-6.9609,-6.9922,-7.2851,-7.4726,-7.5039,-7.6953,-7.7773,-7.7226,-7.8476,-7.918,-7.918,-7.7921,-7.7323,-7.7376,-7.6632,-7.6171,-7.5976,-7.5399,-7.3783,-7.1475,-7.2091,-7.1283,-6.9629,-6.9667,-6.8859,-6.7436,-6.632,-6.5897,-6.5897,-6.5897,-6.5897,-6.5897,0.0,0.0,0.0,-2.247,-2.2778,-2.3351,-2.5038,-2.763,-3.0624,-3.4031,-3.9872,-4.5664,-5.0781,-5.5273,-5.8555,-6.0234,-5.8867,-5.5742,-5.0664,-4.7812,-4.3711,-3.7851,-4.168,-4.7969,-5.6484,-5.7617,-6.0547,-6.5586,-6.5625,-6.6055,-6.6914,-6.6914,-6.6914,-6.6914,-6.6914,-6.6445,-6.5625,-6.5625,-6.3633,-6.0039,-5.4062,-4.9648,-4.6016,0.0,0.0,0.0,0.0,0.0,0.0,0.0,0.0,0.0,0.0,0.0,0.0,0.0,0.0,0.0,0.0,0.0,0.0,0.0,0.0,0.0,0.0,0.0,0.0,0.0,0.0,0.0,0.0,0.0,0.0,0.0,0.0,0.0,-5.3047,-5.9648,-6.4805,-6.582,-7.1133,-7.4062,-7.2383,-7.375,-7.5117,-7.5976,-7.6797,-7.7656,-7.8476,-7.9297,-7.9961,-8.0469,-8.0039,-7.9765,-7.9765,-7.8757,-7.764,-7.6449,-7.6387,-7.621,-7.6015,-7.6015,-7.3553,-6.9475,-7.1668,-7.0552,-6.7359,-6.9013,-6.9206,-6.8244,-6.659,-6.5897,-6.5897,-6.5897,-6.5897,-6.5897,0.0,0.0,-2.0615,-2.1696,-2.2389,-2.3351,-2.5038,-2.763,-3.0385,-3.3195,-4.0026,-4.5898,-4.9219,-5.457,-5.8359,-5.9414,-5.8515,-5.6484,-5.3164,-4.9375,-4.6211,-4.3945,-4.793,-5.2812,-5.8359,-6.1133,-6.3555,-6.5586,-6.6211,-6.668,-6.6914,-6.6914,-6.6914,-6.6914,-6.6914,-6.6758,-6.6484,-6.5859,-6.5039,-6.3789,-5.9609,-5.5898,-5.2461,0.0,0.0,0.0,0.0,0.0,0.0,0.0,0.0,0.0,0.0,0.0,0.0,0.0,0.0,0.0,0.0,0.0,0.0,0.0,0.0,0.0,0.0,0.0,0.0,0.0,0.0,0.0,0.0,0.0,0.0,0.0,-5.5195,-6.039,-6.1015,-6.5078,-6.9258,-7.2656,-7.5664,-7.7226,-7.6758,-7.7656,-7.8398,-7.8633,-7.8867,-7.8945,-7.8789,-7.9765,-7.9687,-7.8164,-8.039,-8.1601,-8.1601,-8.0302,-7.9081,-7.7916,-7.7448,-7.6802,-7.6015,-7.6015,-7.4861,-7.2899,-7.3168,-7.1975,-6.986,-6.9744,-6.9206,-6.8269,-6.7205,-6.6397,-6.5897,-6.5897,-6.5897,-6.5628,0.0,-2.0308,-2.0654,-2.185,-2.2466,-2.3488,-2.5588,-2.8204,-3.1137,-3.4437,-4.0773,-4.625,-4.9609,-5.4062,-5.7148,-5.8047,-5.7656,-5.5469,-5.1055,-4.7773,-4.7539,-5.1016,-5.3906,-5.7461,-6.1797,-6.418,-6.5625,-6.6133,-6.664,-6.6914,-6.6914,-6.6914,-6.6914,-6.6914,-6.6914,-6.6914,-6.6875,-6.6367,-6.6133,-6.5937,-6.3555,-6.0312,-5.664,-5.4023,-5.1367,-4.8633,-4.6055,-4.5469,-4.5312,-4.1562,0.0,0.0,0.0,0.0,0.0,0.0,0.0,0.0,0.0,0.0,0.0,0.0,0.0,0.0,0.0,0.0,0.0,0.0,0.0,0.0,0.0,0.0,0.0,0.0,-5.9492,-6.543,-6.7734,-7.0117,-7.2773,-7.6055,-7.7656,-7.8633,-7.8984,-7.9414,-7.9687,-7.9687,-8.0039,-8.0117,-7.9805,-8.0742,-8.0039,-7.7305,-8.0508,-8.2304,-8.2304,-8.1047,-7.9695,-7.8338,-7.7846,-7.7021,-7.6015,-7.6015,-7.4361,0.0,-7.2937,-7.1898,-6.9321,-6.959,-6.9206,0.0,0.0,0.0,0.0,0.0,-6.4551,-6.282,0.0,-2.0577,-2.1043,-2.2547,-2.2893,-2.3792,-2.6308,-2.8899,-3.2207,-3.6738,-4.1716,-4.6484,-5.0781,-5.3594,-5.5469,-5.625,-5.6211,-5.3555,-4.7422,-4.5391,-4.8555,-5.7773,-5.9023,-6.1445,-6.5664,-6.6484,-6.6914,-6.6914,-6.6914,-6.6914,-6.6914,-6.6914,-6.6914,-6.6914,-6.6914,-6.6914,-6.6914,-6.6914,-6.6914,-6.6836,-6.6055,-6.3359,-5.9492,-5.7109,-5.5078,-5.3242,-5.0898,-5.0117,-4.9883,-4.7851,0.0,0.0,0.0,0.0,0.0,0.0,0.0,0.0,0.0,0.0,0.0,0.0,0.0,0.0,0.0,0.0,0.0,0.0,0.0,0.0,0.0,0.0,0.0,0.0,-6.3242,-6.9023,-7.3047,-7.4336,-7.5469,-7.7031,-7.8047,-7.8906,-7.9648,-7.9883,-8.0,-8.0,-8.0703,-8.1133,-8.1133,0.0,0.0,0.0,0.0,-8.2265,-8.2222,-8.1206,-7.9805,-7.8067,-7.7761,-7.706,-7.6015,-7.6015,-7.3129,-6.8359,-7.1937,-7.1245,-6.7628,-6.8975,-6.9013,-6.8052,-6.7282,-6.6513,-6.5859,-6.559,-6.2781,0.0,0.0,-2.2316,-2.2432,-2.274,-2.3394,-2.4482,-2.6416,-2.8387,-3.1735,-3.7476,-4.1598,-4.5625,-4.9961,-5.2734,-5.4336,-5.4492,-5.3867,-5.2891,-5.1562,-4.9883,-5.2226,-5.9609,-6.0742,-6.293,-6.6562,-6.6797,-6.6914,-6.6914,-6.6914,-6.6914,-6.6914,-6.6914,-6.6914,-6.6914,-6.6914,-6.6914,-6.6914,-6.6914,-6.6914,-6.6875,-6.6719,-6.5312,-6.3164,-6.1953,-6.043,-5.875,-5.7617,-5.7617,-5.7617,-5.3789,-5.2851,-5.2851,-5.0234,-4.7148,0.0,0.0,0.0,0.0,0.0,0.0,0.0,0.0,0.0,0.0,0.0,0.0,0.0,0.0,0.0,0.0,0.0,0.0,0.0,-6.3398,-6.8476,-7.2851,-7.5078,-7.6133,-7.6836,-7.7148,-7.8555,-7.9531,-7.9687,-8.0976,-8.1797,-8.1797,-8.1953,-8.2031,-8.2031,-8.2226,0.0,-8.1328,-8.1953,-8.2127,-8.1831,-8.106,-7.9732,-7.7789,0.0,0.0,-7.6015,-7.6015,-7.4399,-7.1706,-7.2976,-7.2245,-7.009,-6.909,-6.7744,-6.6359,-6.6205,-6.6051,-6.5628,-6.3601,-6.3512,-6.4282,-2.3957,-2.3389,-2.2932,-2.3355,-2.4125,-2.5309,-2.7104,-2.8913,-3.1621,-3.6007,-3.9647,-4.3125,-4.6562,-4.8476,-4.9687,-5.0117,-4.9766,-5.0976,-5.4414,-5.4297,-5.6719,-6.2734,-6.3828,-6.5117,-6.6875,-6.6914,-6.6914,-6.6914,-6.6914,-6.6914,-6.6914,-6.6914,-6.6914,-6.6914,-6.6914,-6.6914,-6.6914,-6.6914,-6.6914,-6.6914,-6.6914,-6.5859,-6.4258,-6.3828,-6.2578,-6.1015,-6.0586,-6.0703,-6.0664,-5.8086,-5.75,-5.7461,-5.5312,-5.2891,-5.0117,0.0,0.0,0.0,0.0,0.0,0.0,0.0,0.0,0.0,0.0,0.0,0.0,0.0,0.0,-5.582,-5.7539,0.0,-6.3476,-6.6992,-7.043,-7.3398,-7.5586,-7.664,-7.7344,-7.7812,-7.8945,-7.9883,-8.0312,-8.1523,-8.2304,-8.2304,-8.2304,-8.2304,-8.2304,-8.2304,-8.1523,-7.9805,-8.1406,-8.135,-7.9316,-8.014,-7.9773,-7.8219,-7.7692,-7.6943,-7.6015,-7.6015,-7.4938,-7.3091,-7.336,-7.2514,-7.0783,-6.909,-6.7398,-6.5897,-6.5897,-6.5897,-6.5743,-6.4474,-6.482,-6.5705,-2.5154,-2.4192,-2.3548,-2.4432,-2.512,-2.6176,-2.8054,-2.9552,-3.1545,-3.4569,-3.7539,-4.043,-4.3164,-4.4219,-4.5039,-4.5742,-4.6406,-4.9531,-5.5937,-5.7617,-6.0625,-6.5625,-6.6523,-6.6914,-6.6914,-6.6914,-6.6914,-6.6914,-6.6914,-6.6914,-6.6914,-6.6914,-6.6914,-6.6914,-6.6914,-6.6914,-6.6914,-6.6914,-6.6914,-6.6914,-6.6914,-6.5859,-6.4297,-6.4297,-6.3203,-6.168,-6.1523,-6.1367,-6.1094,-6.039,-6.0039,-5.9726,-5.8515,-5.7539,-5.5781,-5.043,-4.9609,0.0,0.0,0.0,0.0,0.0,0.0,0.0,0.0,-5.4062,-5.539,-5.6992,-5.8242,-5.9805,-6.2226,-6.3789,-6.6055,-7.0078,-7.1875,-7.3555,-7.582,-7.6758,-7.7461,-7.8164,-7.8984,-7.9805,-8.0664,-8.1523,-8.2109,-8.2304,-8.2304,-8.2304,-8.2304,-8.2304,-8.1054,-7.8281,-8.0819,-8.0838,-7.7853,-7.9343,-7.9641,-7.873,-7.7596,-7.6669,-7.5976,-7.5822,-7.4938,-7.3462,-7.3129,-7.2014,-7.0321,-6.8975,-6.7398,-6.5897,-6.5897,-6.5897,-6.5897,-6.5897,-6.5897,-6.5897,0.0,-2.5154,-2.5308,-2.6159,-2.639,-2.7103,-2.8976,-2.9427,-3.1075,-3.5312,-3.6875,-3.8867,-4.2187,-4.332,-4.3867,-4.3984,-4.6836,-5.0547,-5.5156,-5.8398,-6.2109,-6.6562,-6.6836,-6.6914,-6.6914,-6.6914,-6.6914,-6.6914,-6.6914,-6.6914,-6.6914,-6.6914,-6.6914,-6.6914,-6.6914,-6.6914,-6.6914,-6.6914,-6.6914,-6.6914,-6.6914,-6.5859,-6.4297,-6.4297,-6.3203,-6.1601,-6.082,-6.0078,-5.9453,-5.9375,-5.8828,-5.8281,-5.8867,-5.8476,-5.7187,-5.4141,-5.2344,-5.0273,-4.5781,-4.3789,-4.4101,-4.8867,-5.0742,-5.2812,0.0,-6.1289,-6.3281,-6.4258,-6.6328,-6.8515,-7.0351,-7.0859,-7.1914,-7.4726,-7.5351,-7.5859,-7.6914,-7.7148,-7.7226,-7.7344,-7.8125,-7.8945,-7.9765,-8.0625,-8.1484,-8.2226,-8.2304,-8.2304,-8.2304,-8.2304,-8.2109,-8.1758,-8.1927,-8.1763,-8.1173,-7.9709,-7.8834,-7.8512,-7.6929,-7.6092,-7.5976,-7.5207,-7.4361,-7.3399,-7.186,-7.0244,-6.8667,-6.8475,-6.7398,-6.5897,-6.5897,-6.5897,-6.5897,-6.5897,-6.5897,-6.5897,0.0,-2.5308,-2.5731,-2.7121,-2.7383,-2.788,-2.9216,-2.9847,-3.1025,-3.3476,-3.4492,-3.6133,-3.9101,-4.0195,-4.0742,-4.0742,-4.3867,-4.8359,-5.4141,-5.7773,-6.1875,-6.668,-6.6914,-6.6914,-6.6914,-6.6914,-6.6914,-6.6914,-6.6914,-6.6914,-6.6914,-6.6914,-6.6914,-6.6914,-6.6914,-6.6914,-6.6914,-6.6914,-6.6914,-6.6914,-6.6914,-6.5859,-6.4258,-6.375,-6.2187,-6.0078,-5.8672,-5.7656,0.0,-5.6328,-5.5937,-5.5976,-5.7851,-5.6797,-5.4765,-5.418,-5.2773,-5.1328,-5.1055,-5.082,-5.1445,-5.4648,-5.7969,-6.0937,-6.2969,-6.5078,-6.6953,-6.8281,-6.9414,-7.0859,-7.3086,-7.2265,-7.2422,-7.6055,-7.539,-7.5039,-7.6914,-7.6758,-7.6445,-7.6445,-7.4961,-7.4687,-7.6562,-7.9336,-8.0547,-7.9414,-8.1172,-8.2304,-8.2304,-8.2304,-8.2304,-8.2304,-8.2115,-8.1894,-8.1688,-7.9776,-7.8696,-7.8477,-7.6784,-7.5745,-7.5245,-7.4861,-7.3976,-7.2668,-7.1437,-6.9937,-6.8385,-6.8385,-6.7398,-6.5897,-6.5897,-6.5897,-6.5897,-6.5897,-6.5897,-6.5897,0.0,-2.5654,-2.6192,-2.7934,-2.8307,-2.8696,-2.9572,-3.0295,-3.0961,-3.1758,-3.2734,-3.4297,-3.668,-3.75,-3.8086,-3.8555,-4.1719,-4.6523,-5.3203,-5.7148,-6.1406,-6.6328,-6.6758,-6.6914,-6.6914,-6.6914,-6.6914,-6.6914,-6.6914,-6.6914,-6.6914,-6.6914,-6.6914,-6.6914,-6.6914,-6.6914,-6.6914,-6.6914,-6.6914,-6.6875,-6.664,-6.5625,-6.414,-6.2812,-6.0547,-5.793,-5.6406,-5.5156,-5.4023,-5.2695,-5.2539,-5.3242,-5.4883,-5.418,-5.2812,-5.3476,-5.2422,-5.1562,-5.3945,-5.5039,-5.6211,-5.914,-6.3047,-6.6328,-6.6875,-6.7969,-6.9297,-7.0742,-7.0859,-7.1445,-7.3789,-7.2695,-7.2617,-7.625,-7.5469,-7.5039,-7.6914,-7.6445,-7.5625,-7.4922,-7.2383,-7.0898,-7.1367,-7.5937,-7.8711,-7.8281,-8.0547,-8.2031,-8.2304,-8.2304,-8.2265,-8.222,-8.2003,-8.1714,-8.1247,-7.9582,-7.8528,-7.813,-7.6669,-7.5553,-7.4668,-7.4207,-7.3206,-7.1783,-7.0937,-6.9744,-6.8385,-6.8129,-6.7205,-6.5897,-6.5897,-6.5897,-6.5897,-6.5897,-6.5897,-6.5897,0.0,0.0,-2.7082,-2.878,-2.9222,-2.9616,-3.0431,-3.0644,-3.0766,-3.0937,-3.2383,-3.4062,-3.5859,-3.6055,-3.6758,-3.8437,-4.1719,-4.6289,-5.2344,-5.6797,-6.1133,-6.5469,-6.6445,-6.6914,-6.6914,-6.6914,-6.6914,-6.6914,-6.6914,-6.6914,-6.6914,-6.6914,-6.6914,-6.6914,-6.6914,-6.6914,-6.6914,-6.6914,-6.6914,-6.6836,-6.5976,-6.5117,-6.4023,-6.1445,-5.8359,-5.5312,-5.4414,-5.2969,-5.1133,-4.8633,-4.8906,-5.0195,-4.9414,-5.0781,-5.2695,-5.2734,-5.1562,-5.0625,-5.2305,-5.2812,-5.4258,-6.0156,-6.3008,-6.5469,-6.9609,-7.0586,-7.0898,-7.1797,-7.1289,-7.125,-7.3008,-7.3281,-7.3828,-7.5625,-7.6562,-7.7109,-7.7187,-7.6445,-7.4961,-7.2422,-7.1289,-6.875,0.0,-6.9531,-7.5586,-8.0508,-8.0976,-8.1406,-8.2265,-8.2304,-8.2219,-8.2039,-8.1825,-8.12,-8.0152,-7.904,-7.8107,-7.7323,-7.6438,-7.5553,-7.463,-7.3014,-7.1783,-7.0898,-7.009,-6.9244,-6.8321,-6.7475,-6.6628,-6.5897,-6.5897,-6.5897,-6.5897,-6.5897,-6.5897,-6.5897,0.0,0.0,0.0,-2.898,-2.931,-2.9674,-3.0531,-3.0765,-3.1053,-3.168,-3.3711,0.0,0.0,0.0,0.0,0.0,-3.9336,-4.2617,-4.8086,-5.25,-5.6836,-6.1172,-6.4375,-6.6055,-6.6055,-6.6601,-6.6914,-6.6914,-6.6914,-6.6914,-6.6914,-6.6914,-6.6914,-6.6914,-6.6914,-6.6914,-6.6914,-6.6914,-6.6914,-6.6758,-6.5312,-6.4219,-6.3086,-5.9922,-5.6601,-5.3164,0.0,-4.7773,-4.6055,-4.4648,-4.4531,-4.5391,-4.7383,-4.7422,-4.6836,-4.7422,-4.9219,-5.1484,-5.3789,-5.6484,-5.957,-6.3359,-6.6445,-6.8906,-7.0351,-7.0703,-7.0781,-7.1094,-6.9101,-6.7656,-6.8828,-6.8125,-6.8437,-7.1875,-7.1758,-7.2617,-7.664,-7.3515,-7.1523,-7.3476,-6.9922,0.0,0.0,0.0,0.0,-7.3359,-7.8125,-8.1133,-8.1406,-8.1861,-8.2062,-8.1992,-8.1112,-8.0472,-8.0101,-7.8525,-7.7553,-7.7284,-7.5284,-7.4207,-7.386,-7.2129,-7.1168,-7.086,-7.0052,-6.9206,-6.8321,-6.7475,-6.6628,-6.5897,-6.5897,-6.5897,-6.5897,-6.5897,-6.5897,-6.5897,0.0,0.0,0.0,0.0,0.0,0.0,0.0,0.0,0.0,0.0,0.0,0.0,0.0,0.0,0.0,0.0,0.0,-4.0976,-4.5547,-4.8984,-5.2812,-5.7148,-5.9961,-6.1601,-6.1914,-6.2773,-6.3515,-6.414,-6.5078,-6.582,-6.6445,-6.6758,-6.6914,-6.6875,-6.6562,-6.6445,-6.6406,-6.6094,-6.5976,-6.5742,-6.3086,-6.168,-6.0703,-5.6328,-5.2891,0.0,-4.6211,-4.3789,-4.2226,-4.1328,-4.1641,-4.2695,-4.4336,-4.4531,-4.4648,-4.7031,-4.9922,-5.3164,-5.6992,-6.0508,-6.3789,-6.6719,-6.9297,-7.1094,-7.0781,-7.0703,-7.0547,-6.9922,-6.7812,-6.6055,-6.5976,-6.4805,-6.5234,-6.957,-6.9336,-7.0625,-7.6406,-7.3594,-7.164,-7.3437,-6.9961,-6.8359,0.0,0.0,0.0,-7.0976,-7.5701,-7.8782,-7.9053,-7.9424,-8.0007,-8.0838,-8.0058,-7.9463,-7.9121,-7.7915,-7.6976,-7.6361,-7.4437,-7.336,-7.2976,-7.1552,-7.0398,-6.9513,-6.9321,-6.8398,-6.7013,-6.6782,-6.6359,-6.5897,-6.5897,-6.5897,-6.5897,-6.5897,-6.5897,-6.5897,0.0,0.0,0.0,0.0,0.0,0.0,0.0,0.0,0.0,0.0,0.0,0.0,0.0,0.0,0.0,0.0,0.0,0.0,-4.4531,-4.6484,0.0,-5.3437,-5.3828,-5.4336,-5.5156,-5.6055,-5.7344,-5.8984,-6.1484,-6.3515,-6.5156,-6.5976,-6.6367,-6.6328,-6.5508,-6.5156,-6.5078,-6.4219,-6.3828,-6.3476,-5.9258,-5.7578,-5.6914,-5.1055,-4.7734,-4.5898,-4.332,-4.1328,-3.9766,-3.8984,-4.0508,-4.2461,-4.1016,-4.2812,-4.6406,-5.1289,-5.3516,-5.5625,-6.1367,-6.4375,-6.664,-6.9922,-7.1367,-7.1719,-7.0898,-7.0586,-7.0,-6.8242,-6.7031,-6.5742,-6.3984,-6.293,-6.3828,-6.8359,-6.9062,-7.0859,-7.6172,-7.6133,-7.4687,-7.2265,-7.1289,-6.9844,-6.7539,-7.0273,0.0,-7.3164,0.0,-7.4903,-7.5663,-7.5641,-7.6591,-7.8718,-7.8773,-7.8258,-7.7299,-7.7207,-7.6322,-7.4707,-7.386,-7.3014,-7.2168,-7.1283,-6.9552,-6.7282,-6.8052,-6.7013,-6.4782,-6.559,-6.5897,-6.5897,-6.5897,-6.5897,-6.5897,-6.5897,-6.5897,-6.5897,0.0,0.0,0.0,0.0,0.0,0.0,0.0,0.0,0.0,0.0,0.0,0.0,0.0,0.0,0.0,0.0,0.0,0.0,-4.1133,-4.4609,0.0,0.0,-5.1328,-5.3125,-5.3359,-5.4844,-5.5859,-5.6289,-5.7617,-5.8476,-5.8906,-5.9101,-5.9219,-5.9219,-5.8984,-5.8906,-5.8828,-5.7969,-5.7578,-5.7344,-5.4297,-5.3047,-5.2695,-4.9258,-4.6836,-4.5078,-4.3125,-4.1328,-3.9961,-4.0391,-4.3516,-4.75,-4.8984,-5.0469,-5.1836,-5.25,-5.6055,-6.0078,-6.1601,-6.5625,-6.9765,-7.1289,-7.1367,-7.0976,-7.0742,-6.9219,-6.6992,-6.3984,-6.0625,-5.7539,-5.5117,-5.4023,-5.5703,-6.2578,-6.3672,-6.5937,-7.2422,-7.2031,-7.1289,-7.1914,-7.1797,-7.1914,-7.2578,-7.3892,0.0,0.0,-7.5296,-7.7242,-7.7326,-7.7714,-7.8212,-7.8784,-7.8078,-7.754,-7.7284,-7.6015,-7.513,-7.4668,-7.3245,-7.2399,-7.2168,-7.1283,-7.0206,-6.9013,-6.859,-6.7667,-6.6436,-6.6051,-6.5897,-6.5897,-6.5897,-6.5897,-6.5897,-6.5897,-6.5897,-6.582,0.0,0.0,0.0,0.0,0.0,0.0,0.0,0.0,0.0,0.0,0.0,0.0,0.0,0.0,0.0,0.0,0.0,0.0,0.0,-4.25,-4.4219,-4.457,-4.6562,-4.7812,-4.8164,-4.9883,-5.0976,-5.1367,0.0,0.0,-5.4883,-5.5273,-5.5469,-5.543,-5.5078,-5.4883,-5.4844,-5.3945,0.0,0.0,0.0,-4.9141,-4.8828,-4.5898,-4.418,-4.3203,-4.2226,-4.1992,-4.2578,-4.5312,-4.7422,-4.9687,-5.4141,-5.5351,-5.5625,-5.8203,-6.1055,-6.375,-6.5234,-6.8398,-7.1406,-7.1875,-7.1328,-7.0195,-6.832,-6.6484,-6.3867,-5.9258,-5.6719,-5.4297,-5.0937,-5.0547,-5.3008,-6.0,-6.1713,-6.4438,-7.1005,-7.1338,-7.1279,-7.2219,-7.2336,-7.3153,-7.5254,-7.5829,-7.5407,0.0,-7.495,-7.5648,-7.5504,-7.5758,-7.6417,-7.7524,-7.7015,-7.6746,-7.6746,-7.5399,-7.4514,-7.4168,-7.2822,-7.2014,-7.1591,-7.1129,-6.986,-6.8052,0.0,-6.7282,-6.5474,-6.5782,-6.5897,-6.5897,-6.5897,-6.5897,-6.5897,-6.5897,-6.5897,-6.5782,0.0,0.0,0.0,0.0,0.0,0.0,0.0,0.0,0.0,0.0,0.0,0.0,0.0,0.0,0.0,0.0,0.0,0.0,0.0,0.0,0.0,-4.2226,-4.1562,-4.1523,-4.2226,-4.3828,-4.5039,-4.5781,-4.8867,0.0,0.0,0.0,0.0,0.0,0.0,0.0,0.0,0.0,0.0,0.0,-4.6875,-4.5625,-4.5312,0.0,0.0,-4.1211,-4.1211,-4.2695,-4.5508,-5.1016,-5.1641,-5.1289,-5.8086,-5.9258,-5.9297,-6.5195,-6.668,-6.7031,-6.9648,-7.125,-7.2109,-7.1875,-7.1172,-6.9492,-6.539,-6.3437,-6.082,-5.4883,-5.3906,-5.293,-4.9101,-4.9766,-5.2851,-5.8906,-6.1299,-6.4297,-6.9829,-7.1765,-7.253,-7.229,-7.2601,-7.3801,-7.6349,-7.6288,-7.6113,-7.6306,-7.421,-7.2938,-7.2894,-7.2778,-7.3707,-7.5938,-7.6015,-7.5938,-7.5822,-7.4976,-7.413,-7.3322,-7.2437,-7.1629,-7.0898,-7.0783,-6.909,-6.632,0.0,0.0,-6.3782,-6.5282,-6.5897,-6.5897,-6.5897,-6.5897,-6.5897,-6.5897,-6.5897,-6.5743,0.0,0.0,0.0,0.0,0.0,0.0,0.0,0.0,0.0,0.0,-3.9687,-3.8711,0.0,0.0,0.0,0.0,0.0,0.0,0.0,0.0,0.0,-4.1406,-4.1289,-4.1289,-4.1406,-4.2344,-4.293,-4.3086,-4.4375,-4.5117,0.0,0.0,0.0,0.0,0.0,0.0,0.0,0.0,0.0,0.0,-4.2578,-4.207,-4.2031,0.0,0.0,0.0,-4.1211,-4.1914,-4.3984,-5.1328,-5.4922,-5.7422,-6.3594,-6.5859,-6.6289,-6.6758,-6.8789,-7.0547,-6.9023,-7.082,-7.2734,-7.1289,-7.0312,-6.8945,-6.6055,-6.25,-5.8359,-5.2969,-4.9726,-4.7422,-4.5937,-4.7109,-5.0234,-5.6289,-5.9161,-6.1504,-6.4004,-6.8603,-7.1206,-6.9747,-7.1466,-7.3801,-7.6349,-7.4524,0.0,0.0,0.0,-7.5383,-7.5369,-7.5351,-7.5553,-7.5976,-7.6015,-7.5668,-7.4938,-7.413,-7.3283,-7.2399,-7.1552,-7.1052,-7.0898,-7.0206,-6.9206,-6.7936,0.0,0.0,-6.5474,-6.5782,-6.5897,-6.5897,-6.5897,-6.5897,-6.5897,-6.5897,-6.5897,-6.5667,0.0,0.0,0.0,0.0,0.0,0.0,0.0,-3.9375,-4.0859,-4.3437,-4.3086,-4.2422,-4.1914,-4.1094,-4.0742,0.0,0.0,0.0,0.0,0.0,0.0,0.0,0.0,-4.1211,-4.1211,-4.1992,-4.2187,-4.1797,0.0,-4.2812,-4.2383,-4.2383,-4.2383,-4.2383,-4.2383,-4.2383,-4.2383,-4.1953,-4.1797,-4.1758,-4.1367,-4.1211,0.0,0.0,0.0,0.0,-4.1211,-4.1992,-4.3867,-4.8945,-5.2383,-5.6055,-6.4805,-6.7851,-6.8047,-6.7148,-6.9336,-7.1445,-6.8906,-7.0621,-7.2717,-7.1038,-6.9572,-6.7208,-6.1967,-5.8497,-5.4558,-4.8046,-4.5781,-4.4531,-4.3242,-4.5156,-4.875,-5.4336,-5.7216,-6.0122,-6.4115,-6.7293,-6.9372,-6.9884,-7.1454,-7.2964,-7.4203,-7.3103,-7.2853,-7.405,0.0,-7.4591,-7.5938,-7.6015,-7.6015,-7.6015,-7.6015,-7.5592,-7.4707,-7.3899,-7.3053,-7.2168,-7.1321,-7.0898,-7.086,-7.0052,-6.9206,-6.8359,-6.7475,0.0,-6.4025,-6.5359,-6.5128,-6.4051,-6.5359,-6.5897,-6.5897,-6.5897,-6.5897,-6.5628,0.0,0.0,0.0,0.0,0.0,0.0,0.0,-4.1484,-4.3359,-4.5312,-4.6133,-4.6055,-4.4687,-4.2851,-4.1601,0.0,0.0,0.0,0.0,0.0,0.0,0.0,0.0,-4.1211,-4.1211,0.0,0.0,-4.1445,-4.1914,0.0,0.0,0.0,0.0,0.0,-4.1211,-4.1211,-4.1211,-4.1211,-4.1211,0.0,0.0,-4.1289,0.0,0.0,0.0,0.0,0.0,-4.2031,-4.3633,-4.6601,-4.8945,-5.2305,-6.207,-6.5664,-6.6328,-6.6482,-6.8707,-7.0777,-6.9091,-7.0738,-7.2522,-7.061,-6.8904,-6.5762,-5.8262,-5.5006,-5.1516,-4.4412,-4.3086,-4.2851,-4.1914,-4.4062,-4.7656,-5.2615,-5.4897,-5.8195,-6.4383,-6.601,-6.7628,-7.0552,-7.1668,-7.2399,-7.2937,-7.2514,0.0,-7.2976,0.0,0.0,-7.5899,-7.6015,-7.6015,-7.6015,-7.5822,-7.5322,-7.4437,-7.363,-7.2783,-7.1898,-7.1245,-7.0821,-7.0629,-6.9783,-6.8936,-6.809,-6.7205,0.0,0.0,-6.4859,-6.4397,-6.237,-6.4897,-6.5897,-6.5897,-6.5897,-6.5782,-6.5397,0.0,0.0,0.0,0.0,0.0,0.0,0.0,-4.1992,-4.4492,-4.7031,-4.7422,-4.7422,-4.7266,-4.4961,-4.2851,0.0,0.0,0.0,0.0,0.0,0.0,0.0,0.0,0.0,0.0,0.0,0.0,-4.2305,-4.1641,0.0,0.0,0.0,0.0,0.0,0.0,-4.1211,-4.1211,-4.1211,0.0,0.0,0.0,0.0,0.0,0.0,0.0,0.0,0.0,-4.1289,-4.207,-4.6211,-4.7773,-4.8828,-5.375,-5.7461,-6.0741,-6.4379,-6.6781,-6.8518,-6.9707,-7.1375,-7.2218,-6.9682,-6.8352,-6.5923,-5.9045,-5.4967,-5.1125,-4.5858,-4.2969,-4.1836,-4.3203,-4.4375,-4.6521,-5.0779,-5.1546,-5.3895,-6.0558,-6.3428,-6.6359,-7.0437,-7.1668,-7.3091,-7.5438,-7.3553,-7.3168,-7.5476,0.0,0.0,-7.5976,-7.6015,-7.6015,-7.6015,-7.5245,-7.4437,-7.363,-7.2745,-7.186,-7.1014,-7.0937,-7.0514,-6.9783,-6.8898,-6.8052,-6.7167,0.0,0.0,0.0,-6.4859,-6.4397,-6.237,-6.4897,-6.5897,-6.5897,-6.5897,-6.5397,-6.4589,0.0,0.0,0.0,0.0,0.0,0.0,-4.043,-4.2383,-4.4844,-4.7969,-4.8398,-4.8398,-4.8398,-4.6992,-4.4922,-4.2148,0.0,0.0,0.0,0.0,0.0,0.0,0.0,0.0,0.0,0.0,-4.207,-4.2383,-4.2617,0.0,0.0,0.0,0.0,0.0,0.0,-4.1211,-4.1211,-4.1211,0.0,0.0,0.0,0.0,0.0,0.0,0.0,0.0,0.0,0.0,-4.1445,-4.3164,-4.4062,-4.4844,-4.7109,-4.9101,-5.1679,-5.6945,-6.1881,-6.551,-6.5078,-6.7982,-7.0624,-6.8519,-6.6958,-6.407,-5.6803,-5.3354,-4.9991,-4.3944,-4.1914,-4.1406,-4.207,-4.2847,-4.459,-4.8316,-4.8729,-5.1153,-5.848,-6.1113,-6.4282,-6.9552,-7.186,-7.3168,0.0,0.0,-7.2629,0.0,0.0,0.0,-7.513,-7.5707,-7.5745,-7.5245,-7.4899,-7.4053,-7.2745,-7.236,-7.1745,-7.0898,-7.0398,-7.0014,-6.9667,-6.8244,-6.7436,-6.7051,0.0,0.0,0.0,-6.4205,-6.3512,-6.0204,-6.432,-6.5897,-6.5897,-6.5897,-6.5359,-6.4474,0.0,0.0,0.0,0.0,0.0,-3.9101,-4.0586,-4.2461,-4.4766,-4.7734,-4.8359,-4.8594,-4.8867,-4.8125,-4.6523,-4.3789,-4.2851,0.0,0.0,0.0,0.0,0.0,0.0,0.0,0.0,0.0,-4.3047,-4.3555,-4.3906,-4.3906,0.0,0.0,-4.2578,-4.1562,0.0,0.0,0.0,0.0,0.0,0.0,0.0,0.0,0.0,0.0,0.0,0.0,0.0,0.0,0.0,0.0,0.0,-4.2148,-4.2773,-4.3555,-4.5469,-5.1714,-5.7612,-6.2102,-6.2099,-6.574,-6.9153,-6.7673,-6.5499,-6.1879,-5.5073,-5.1706,-4.835,-4.242,-4.1211,-4.1172,-4.1169,-4.1583,-4.2917,-4.6034,-4.6807,-4.942,-5.6343,-5.8911,-6.2166,-6.7898,-7.036,-7.186,-7.2514,-7.2783,-7.2937,0.0,0.0,0.0,0.0,-7.4938,-7.4976,-7.4361,-7.4091,-7.3399,-7.2206,-7.1937,-7.1514,-7.0898,-7.009,-6.9167,-6.8167,-6.7436,-6.6576,-6.5697,0.0,0.0,0.0,-6.4247,-6.3485,-6.0007,-6.4266,-6.5967,-6.5955,-6.5897,-6.5205,-6.4128,0.0,0.0,0.0,0.0,0.0,0.0,-3.9766,-4.207,-4.4336,-4.6094,-4.707,-4.793,-4.8828,-4.8125,-4.7226,-4.6328,-4.3906,0.0,0.0,0.0,0.0,0.0,0.0,0.0,0.0,0.0,-4.4531,-4.625,-4.5391,-4.543,-4.625,-4.5391,-4.4062,-4.2383,0.0,0.0,0.0,0.0,0.0,0.0,0.0,0.0,0.0,0.0,0.0,0.0,0.0,0.0,0.0,0.0,0.0,0.0,0.0,-4.1797,-4.3748,-5.0533,-5.483,-5.8245,-6.2373,-6.5897,-6.8205,-6.7334,-6.4034,-5.9714,-5.4646,-5.0295,-4.616,-4.2069,-4.1211,-4.117,-4.1025,-4.1016,-4.1788,-4.4149,-4.5905,-4.8763,-5.381,-5.6742,-6.0204,-6.532,-6.6667,-6.8821,-7.3091,-7.4207,0.0,0.0,0.0,0.0,0.0,-7.3514,-7.3514,-7.3514,-7.2668,-7.2206,-7.2206,-7.1321,-7.0898,-7.0898,-7.009,-6.7936,-6.4705,-6.6359,-6.5346,0.0,0.0,0.0,0.0,-6.5342,-6.4875,-6.2774,-6.5162,-6.6109,-6.607,-6.5943,-6.4782,-6.3308,0.0,0.0,0.0,0.0,0.0,0.0,0.0,-4.0195,-4.1914,-4.4219,-4.4766,-4.5703,-4.7773,-4.7226,-4.6836,-4.7148,-4.5351,0.0,0.0,0.0,0.0,0.0,0.0,0.0,0.0,-4.4726,-4.5742,-4.6289,-4.7226,-4.75,-4.7187,-4.6289,-4.5273,-4.4101,-4.293,-4.2266,0.0,0.0,0.0,0.0,0.0,0.0,0.0,0.0,0.0,0.0,0.0,0.0,0.0,0.0,0.0,0.0,0.0,0.0,0.0,-4.5502,-4.9204,-5.2542,-5.3862,-5.6608,-5.8906,-5.8007,-5.6925,-5.4889,-5.0313,-4.8345,-4.6323,-4.207,-4.1127,-4.1033,-4.1017,-4.0896,-4.2193,-4.6422,-4.7457,-4.9931,-5.6214,-5.9281,-6.2358,-6.6244,-6.9513,-7.2014,0.0,0.0,0.0,0.0,0.0,0.0,0.0,-7.2052,-7.2014,-7.2591,-7.2322,-7.1898,-7.1321,-7.1052,-7.0629,-7.0052,-6.9206,-6.7013,-6.3782,-6.5474,0.0,0.0,0.0,0.0,0.0,-6.5148,-6.4682,-6.2634,-6.5139,-6.6039,-6.5967,-6.5897,-6.4782,-6.3308,0.0,0.0,0.0,0.0,0.0,0.0,0.0,-3.9336,-4.0586,-4.25,-4.3008,-4.4219,-4.6836,-4.6328,-4.6445,-4.7969,-4.6484,0.0,0.0,0.0,0.0,0.0,0.0,0.0,-4.418,-4.5586,-4.6797,-4.7773,-4.8867,-4.9258,-4.9023,-4.8476,-4.7266,-4.543,-4.4023,-4.3008,0.0,0.0,0.0,0.0,0.0,0.0,0.0,0.0,0.0,0.0,0.0,0.0,0.0,0.0,0.0,0.0,0.0,0.0,0.0,0.0,-4.4796,-4.7498,-4.9379,-5.2047,-5.4181,-5.3631,-5.2675,-5.105,-4.7999,-4.6424,-4.4765,-4.1754,-4.1579,-4.1739,-4.1023,-4.1281,-4.2454,-4.4931,-4.6896,-4.9702,-5.4318,-5.7434,-6.06,-6.4282,0.0,0.0,0.0,0.0,0.0,0.0,0.0,0.0,0.0,0.0,-7.0706,-7.1245,-7.1552,-7.1437,-7.0898,-7.0591,-7.0206,-6.9706,-6.8475,-6.6282,-6.3346,-6.5128,0.0,0.0,0.0,0.0,0.0,-6.5552,-6.5281,-6.4,-6.5488,-6.6049,-6.5913,-6.5562,-6.4512,-6.3281,0.0,0.0,0.0,0.0,0.0,0.0,0.0,-3.9297,-4.0117,-4.0976,-4.1797,-4.3242,-4.5742,-4.5351,-4.5898,-4.8398,0.0,0.0,0.0,0.0,0.0,0.0,0.0,0.0,-4.5078,-4.6016,-4.7656,-5.0117,-5.0273,-5.0742,-5.1484,-5.1484,-4.9726,-4.6523,-4.5547,-4.4062,0.0,0.0,0.0,0.0,0.0,0.0,0.0,0.0,0.0,0.0,0.0,0.0,0.0,0.0,0.0,0.0,0.0,0.0,0.0,0.0,0.0,0.0,0.0,-5.0975,-5.2696,-5.2657,-5.0387,-4.7933,-4.7072,-4.4549,0.0,-4.1337,-4.2405,-4.2978,-4.1369,-4.235,-4.2911,-4.147,-4.524,-4.8779,-4.9894,-5.3087,-5.6703,0.0,-6.4743,0.0,0.0,0.0,0.0,0.0,0.0,0.0,0.0,0.0,-6.9629,-6.9629,-7.0321,-7.0706,-7.0706,-6.9975,-6.9475,-6.9244,-6.7782,-6.5641,-6.3036,-6.4987,0.0,0.0,0.0,0.0,0.0,-6.6406,-6.6406,-6.6387,-6.6187,-6.6128,-6.5964,-6.498,-6.4051,-6.3166,0.0,0.0,0.0,0.0,0.0,0.0,0.0,0.0,0.0,0.0,-4.0937,-4.1953,-4.3164,-4.3711,-4.4531,0.0,0.0,0.0,0.0,0.0,0.0,0.0,0.0,0.0,-4.5976,-4.75,-4.8594,-4.9219,-5.1172,-5.2226,-5.2383,-5.2383,-5.1289,-4.918,-4.6992,-4.4297,0.0,0.0,0.0,0.0,0.0,0.0,0.0,0.0,0.0,0.0,-4.1211,-4.1211,0.0,0.0,0.0,0.0,0.0,0.0,0.0,0.0,-4.1328,-4.1758,-4.2926,0.0,-4.4862,-4.4237,-4.3973,-4.3628,0.0,-4.2488,-4.2433,-4.2843,-4.309,-4.3557,-4.4447,-4.4831,-4.5761,-4.7951,-4.9817,-5.2231,-5.5742,-6.0242,0.0,-6.1908,-6.6628,-6.9475,0.0,0.0,0.0,0.0,0.0,0.0,0.0,0.0,-6.8706,-6.8706,-6.8898,-6.9013,-6.9013,-6.8821,-6.7398,-6.482,-6.6359,-6.449,-5.9764,-6.3978,0.0,0.0,0.0,0.0,-6.6545,-6.6545,-6.6545,-6.6533,-6.6393,-6.6228,-6.5964,-6.498,-6.4051,-6.3166,0.0,0.0,0.0,0.0,0.0,0.0,0.0,0.0,0.0,0.0,0.0,-4.1523,-4.2305,-4.3164,0.0,0.0,0.0,0.0,0.0,0.0,0.0,0.0,0.0,-4.5391,-4.6289,-4.7617,-4.8867,-5.0039,-5.1836,-5.3125,-5.3867,-5.3476,-5.2187,-5.0039,-4.6641,-4.3633,0.0,0.0,0.0,0.0,0.0,0.0,0.0,0.0,0.0,0.0,-4.1211,-4.1211,0.0,-4.1211,-4.1211,-4.1211,0.0,0.0,0.0,0.0,-4.1211,-4.1211,-4.1211,-4.1797,-4.25,-4.2851,-4.2656,-4.25,-4.2851,-4.2341,-4.2126,-4.3234,-4.3363,-4.354,-4.439,-4.4815,-4.5748,-4.798,-4.9702,-5.251,0.0,0.0,-6.3205,-6.2216,-6.5243,0.0,0.0,0.0,0.0,0.0,0.0,0.0,0.0,0.0,-6.7782,-6.7782,-6.7436,-6.7628,-6.8385,-6.8013,-6.6282,-6.332,-6.5513,-6.4343,-6.0364,-6.4229,0.0,0.0,0.0,0.0,-6.6429,-6.5216,-6.545,-6.6498,-6.6423,-6.6042,-6.5393,-6.4479,-6.3565,-6.2627,0.0,0.0,0.0,0.0,0.0,0.0,0.0,0.0,0.0,0.0,0.0,0.0,0.0,0.0,0.0,0.0,0.0,0.0,0.0,0.0,0.0,0.0,-4.5586,-4.5625,-4.6484,-4.7226,-4.8789,-5.1211,-5.2226,-5.3516,-5.5078,-5.4492,-5.2617,-4.9648,-4.5664,-4.2891,0.0,0.0,0.0,0.0,0.0,0.0,0.0,0.0,0.0,0.0,0.0,0.0,0.0,-4.1211,-4.1211,-4.1211,-4.1211,0.0,0.0,0.0,0.0,0.0,-4.1172,-4.1875,-4.2928,-4.4413,-4.3593,-4.2812,-4.4411,-4.2887,-4.1621,-4.3385,-4.3753,-4.3784,-4.4036,-4.4932,-4.5855,-4.6471,-4.8933,0.0,-5.7588,-6.0089,-6.1473,-6.1678,0.0,0.0,0.0,0.0,0.0,0.0,0.0,0.0,0.0,0.0,0.0,-6.6898,-6.6244,-6.659,-6.8013,-6.7282,-6.5653,-6.3161,-6.5048,-6.4662,-6.2447,-6.4989,0.0,0.0,0.0,0.0,-6.6301,-6.4109,-6.446,-6.6457,-6.6318,-6.5673,-6.4782,-6.3783,-6.2838,-6.2005,0.0,0.0,0.0,0.0,0.0,0.0,0.0,0.0,0.0,0.0,0.0,0.0,0.0,0.0,0.0,0.0,0.0,0.0,0.0,0.0,0.0,-4.6328,-4.6172,-4.6523,-4.7383,-4.7539,-4.8516,-5.0391,-5.1953,-5.3203,-5.4219,-5.4805,-5.2578,-4.7891,-4.5742,-4.3476,-4.1211,-4.1328,0.0,0.0,0.0,0.0,0.0,0.0,0.0,0.0,0.0,0.0,0.0,-4.1211,-4.1211,-4.1211,-4.1211,0.0,0.0,0.0,0.0,0.0,-4.1016,-4.2255,-4.3398,-4.3671,-4.3076,-4.2613,-4.3461,-4.2181,-4.172,-4.4814,-4.5324,-4.5894,-4.8018,-5.0317,-5.1625,-5.1038,-5.4318,-5.7242,0.0,0.0,-6.2974,-6.0242,0.0,0.0,0.0,0.0,0.0,0.0,0.0,0.0,0.0,0.0,0.0,-6.609,-6.5974,-6.6013,-6.6282,-6.6167,-6.4849,-6.2471,-6.49,-6.4893,-6.2811,-6.5255,-6.6541,0.0,0.0,-6.6285,-6.6791,-6.64,-6.6479,-6.675,-6.5803,-6.5375,-6.4987,-6.3185,-6.2393,-6.2143,0.0,0.0,0.0,0.0,0.0,0.0,0.0,0.0,0.0,0.0,0.0,0.0,0.0,0.0,0.0,0.0,0.0,0.0,0.0,0.0,-4.6914,-4.6992,-4.6562,-4.6719,-4.7578,-4.8516,-4.9844,-5.1562,-5.2773,-5.4101,-5.5351,-5.3906,-5.0937,-4.6836,-4.5078,-4.3125,-4.1211,-4.1211,-4.1211,0.0,0.0,0.0,0.0,0.0,0.0,0.0,0.0,0.0,0.0,0.0,-4.082,-4.1211,-4.1211,0.0,0.0,0.0,0.0,0.0,-3.9805,-4.0965,-4.2598,-4.4331,-4.4553,-4.4961,-4.7592,-4.5083,-4.3413,-4.7629,-4.6266,-4.5218,-4.8143,-4.9663,-5.1356,-5.4203,0.0,-6.155,-6.1089,-6.2666,-6.332,0.0,0.0,0.0,0.0,0.0,0.0,0.0,0.0,0.0,0.0,0.0,0.0,0.0,-6.5897,-6.5897,-6.5897,-6.5951,-6.4763,-6.234,-6.4879,-6.4959,-6.2889,-6.5367,-6.6664,-6.6836,0.0,-6.5229,-6.6094,-6.4687,-6.4648,-6.5469,-6.4953,-6.4425,-6.3751,-6.2309,-6.1679,-6.1521,0.0,0.0,0.0,0.0,0.0,0.0,0.0,0.0,0.0,0.0,0.0,0.0,0.0,0.0,0.0,0.0,0.0,0.0,0.0,-4.5625,-4.6367,-4.7266,-4.6641,-4.6992,-4.8476,-4.9414,-5.0937,-5.3008,-5.3672,-5.4687,-5.5937,-5.3047,-4.9766,-4.6211,-4.4687,-4.2969,-4.1211,-4.1211,-4.1211,0.0,0.0,0.0,0.0,0.0,0.0,0.0,0.0,0.0,0.0,0.0,0.0,0.0,0.0,0.0,0.0,-4.0156,-3.9766,-3.9492,-3.9023,-3.9911,-4.1732,-4.485,-4.5303,-4.6314,-5.1366,-4.7922,-4.5182,-5.0581,-4.823,-4.6067,-4.8807,-4.9625,-5.1625,-5.7022,-6.1473,-6.4205,-6.3935,-6.3897,0.0,0.0,0.0,0.0,0.0,0.0,0.0,0.0,0.0,0.0,0.0,0.0,0.0,0.0,-6.5897,-6.5935,-6.5931,-6.6049,-6.5139,-6.3269,-6.5289,-6.5366,-6.3845,-6.5787,-6.6743,-6.6797,-6.457,-6.4375,-6.543,-6.3203,-6.3086,-6.4297,-6.4062,-6.3389,-6.2395,-6.1612,-6.124,-6.1073,0.0,0.0,0.0,0.0,0.0,0.0,0.0,0.0,0.0,0.0,0.0,0.0,0.0,0.0,0.0,0.0,0.0,0.0,0.0,-4.5078,-4.5469,-4.6367,-4.6328,-4.7812,-5.1055,-4.9726,-5.0625,-5.3906,-5.3984,-5.4062,-5.4141,-5.3086,-5.0351,-4.625,-4.5312,-4.3516,-4.1211,-4.1211,-4.1211,-4.1211,-4.1211,0.0,0.0,0.0,0.0,0.0,0.0,0.0,0.0,0.0,0.0,0.0,0.0,0.0,-4.1016,-4.0156,-3.9336,-3.8867,-3.9609,-4.0377,-4.1605,-4.4085,-4.3532,-4.4253,-5.1488,-4.8615,-4.6296,-5.2887,-5.2646,-5.1597,-5.2626,-5.4087,-5.6319,-5.9935,-6.2127,-6.3935,0.0,0.0,0.0,0.0,0.0,0.0,0.0,0.0,0.0,0.0,0.0,0.0,0.0,0.0,0.0,0.0,0.0,-6.5967,-6.608,-6.61,-6.6109,-6.6102,-6.6434,-6.6566,-6.6601,-6.6796,-6.6875,-6.6836,-6.5859,-6.5469,-6.5508,-6.4531,-6.418,-6.4219,-6.3398,-6.249,-6.1582,-6.1498,-6.1392,-6.1246,0.0,0.0,0.0,0.0,0.0,0.0,0.0,0.0,0.0,0.0,0.0,0.0,0.0,0.0,0.0,0.0,0.0,0.0,0.0,-4.3906,-4.457,-4.5469,-4.4961,-4.6055,-4.8984,-4.9961,-5.1601,-5.3984,-5.3984,-5.3711,-5.3164,-5.1797,-4.9414,-4.625,-4.4805,-4.3086,-4.1211,-4.1211,-4.1211,-4.1211,-4.1211,0.0,0.0,0.0,0.0,0.0,0.0,0.0,0.0,0.0,-3.8984,-3.9844,-3.9648,-4.0312,-4.0937,-3.9492,-3.8867,-3.8554,-3.8273,-3.9124,-4.0782,-4.3801,-4.3602,-4.4544,-5.1588,-5.0259,-4.9448,-5.6225,-5.4549,-5.2,-5.2308,-5.5088,-5.8088,-6.0435,-6.2666,-6.4551,0.0,0.0,0.0,0.0,0.0,0.0,0.0,0.0,0.0,0.0,0.0,0.0,0.0,0.0,0.0,0.0,0.0,-6.5978,-6.6109,-6.622,-6.6374,-6.6521,-6.656,-6.6692,-6.6914,-6.6914,-6.6601,-6.6055,-6.5742,-6.4961,-6.3945,-6.3633,-6.3164,-6.2656,-6.2305,-6.1952,-6.1632,-6.1632,-6.1525,-6.1404,0.0,0.0,0.0,0.0,0.0,0.0,0.0,0.0,0.0,0.0,0.0,0.0,0.0,0.0,0.0,0.0,0.0,0.0,-4.2383,-4.2969,-4.3672,-4.4531,-4.4023,-4.4805,-4.7148,-4.918,-5.1172,-5.3164,-5.3711,-5.3398,-5.2266,-5.0859,-4.8945,-4.6601,-4.4609,-4.3047,-4.1953,-4.1406,-4.1211,-4.1211,-4.1211,-4.1211,0.0,0.0,0.0,0.0,0.0,0.0,0.0,0.0,-3.8086,-3.9023,-3.8711,-3.9414,-4.0156,-3.8945,-3.8554,-3.8392,-3.7744,-3.8539,-4.0256,-4.3324,-4.3603,-4.4969,-5.202,-5.1856,-5.2049,-5.8588,-5.6934,-5.4308,-5.4308,-5.6511,-5.8858,0.0,-6.2704,0.0,0.0,0.0,0.0,0.0,0.0,0.0,0.0,0.0,0.0,0.0,0.0,0.0,0.0,0.0,0.0,0.0,0.0,0.0,-6.6179,-6.6381,-6.6525,-6.669,-6.669,-6.6784,-6.6875,-6.6601,-6.6172,-6.5586,-6.5039,-6.4101,-6.2969,-6.2695,-6.2226,-6.1719,-6.1719,-6.1719,-6.1719,-6.1719,-6.1635,-6.1532,0.0,0.0,0.0,0.0,0.0,0.0,0.0,0.0,0.0,0.0,0.0,0.0,0.0,0.0,0.0,0.0,0.0,0.0,-4.2305,-4.2383,-4.2773,-4.3633,-4.3672,-4.4492,-4.6211,-4.7109,-4.8828,-5.1406,-5.3125,-5.3086,-5.1367,-5.0547,-4.9219,-4.7461,-4.4883,-4.3711,-4.3555,-4.1914,-4.1211,-4.1211,-4.1211,-4.1211,-4.1016,0.0,0.0,0.0,0.0,0.0,0.0,0.0,-3.7305,-3.7422,-3.8281,-3.8594,-3.8594,-3.8594,-3.8506,-3.8395,-3.8434,-3.9009,-4.0192,-4.2601,-4.3228,-4.5199,-5.2752,-5.3164,-5.3615,-5.9588,-6.0127,-5.9511,-5.9473,-5.8858,-5.8896,-6.055,0.0,0.0,0.0,0.0,0.0,0.0,0.0,0.0,0.0,0.0,0.0,0.0,0.0,0.0,0.0,0.0,0.0,0.0,0.0,0.0,-6.6387,-6.6529,-6.6692,-6.6875,-6.6875,-6.6875,-6.6875,-6.5976,-6.5586,-6.5469,-6.375,-6.3008,-6.293,-6.207,-6.1719,-6.1719,-6.168,-6.168,-6.168,-6.168,-6.168,-6.1523,0.0,0.0,0.0,0.0,0.0,0.0,0.0,0.0,0.0,0.0,0.0,0.0,0.0,0.0,0.0,0.0,0.0,0.0,-4.0664,-4.1211,-4.1406,-4.1055,-4.1601,-4.2187,-4.2695,-4.4101,-4.6992,-5.1406,-5.0742,-5.0156,-4.9609,-4.8125,-4.6523,-4.4883,-4.5312,-4.418,-4.1992,-4.2656,-4.2266,-4.1211,-4.1211,-4.1211,-4.1016,0.0,0.0,0.0,0.0,0.0,0.0,0.0,0.0,0.0,-3.668,-3.7617,-3.8711,-3.9336,-3.9062,-3.8779,-3.9847,-3.9866,-4.0121,-4.2546,-4.49,-4.7388,-5.026,-5.2818,-5.5934,-6.0754,-6.1012,-6.005,-5.8858,-6.0396,0.0,-6.1743,0.0,0.0,0.0,0.0,0.0,0.0,0.0,0.0,0.0,0.0,0.0,0.0,0.0,0.0,0.0,0.0,0.0,0.0,0.0,0.0,-6.4558,-6.4731,-6.4933,-6.5078,-6.5078,-6.539,-6.5976,-6.5703,-6.4922,-6.375,-6.3203,-6.2656,-6.207,-6.1797,-6.1719,-6.164,-6.1015,-6.0781,-6.0703,-6.0156,-5.9922,-5.9883,0.0,0.0,0.0,0.0,0.0,0.0,0.0,0.0,0.0,0.0,-4.1211,-4.1211,0.0,0.0,0.0,0.0,0.0,0.0,0.0,-4.0703,-4.082,-3.9922,-4.0742,-4.1367,-4.168,-4.3359,-4.5586,-4.8359,-4.8008,-4.7695,-4.7344,-4.6641,-4.5742,-4.4766,-4.5469,-4.4453,-4.2226,-4.2891,-4.2226,-4.0703,-4.1055,-4.0976,-4.0547,0.0,0.0,0.0,0.0,0.0,0.0,0.0,0.0,0.0,-3.5469,-3.6445,-3.7656,-3.816,-3.8657,-3.9332,-4.0882,-4.1357,-4.2254,-4.5714,-4.7625,-4.9279,-5.1856,-5.4395,-5.7434,-6.1704,-6.1627,-6.0704,-6.0358,-6.1666,0.0,0.0,0.0,0.0,0.0,0.0,0.0,0.0,0.0,0.0,0.0,0.0,0.0,0.0,0.0,0.0,0.0,0.0,0.0,0.0,0.0,0.0,-6.3901,-6.4085,-6.4208,-6.4297,-6.4297,-6.4375,-6.457,-6.457,-6.3984,-6.2969,-6.2617,-6.2187,-6.168,-6.1328,-6.1172,-6.1094,-6.0234,-5.9922,-5.9844,-5.9375,-5.9219,-5.914,0.0,0.0,0.0,0.0,0.0,0.0,0.0,0.0,0.0,0.0,-4.1211,-4.1211,0.0,0.0,0.0,0.0,0.0,0.0,0.0,0.0,-4.082,-3.9922,-4.082,-4.168,-4.25,-4.3984,-4.4375,-4.3594,-4.5234,-4.5625,-4.4766,-4.5664,-4.5976,-4.582,-4.5312,-4.4453,-4.332,-4.2656,-4.1406,-3.9844,-4.0625,-4.0508,-3.9687,-3.8711,0.0,0.0,0.0,0.0,0.0,0.0,0.0,0.0,-3.4687,-3.5195,-3.578,-3.5992,-3.7729,-3.9975,-4.1662,-4.3163,-4.5372,-5.024,-5.0471,-5.0894,-5.6154,-5.7242,-5.828,-6.2474,-6.1897,-6.1204,-6.2974,-6.2704,-6.2704,0.0,0.0,0.0,0.0,0.0,0.0,0.0,0.0,0.0,0.0,0.0,0.0,0.0,0.0,0.0,0.0,0.0,0.0,0.0,0.0,0.0,-6.3839,-6.4016,-6.4062,0.0,-6.4062,-6.3633,-6.289,-6.2969,-6.2969,-6.2812,-6.1953,-6.1562,-6.1523,-6.0664,-6.0273,-6.0195,-5.9414,-5.9062,-5.9062,-5.8984,-5.8945,-5.8867,0.0,0.0,0.0,0.0,0.0,0.0,0.0,0.0,0.0,0.0,0.0,0.0,0.0,0.0,0.0,0.0,0.0,0.0,0.0,0.0,-4.082,-3.9922,-4.1328,-4.2539,-4.3398,-4.3125,-4.2851,-4.2695,-4.375,-4.3828,-4.2969,-4.3867,-4.3555,-4.2422,-4.4922,-4.4062,-4.0781,-4.1914,-4.1055,-3.8906,-3.9062,-3.9062,-3.8711,-3.7148,-3.6445,0.0,0.0,0.0,0.0,0.0,0.0,0.0,-3.4492,-3.4375,-3.4375,-3.6405,-3.8256,-4.0292,-4.3237,-4.3722,-4.4175,-4.7228,-4.9202,-5.2087,-5.8511,-5.8973,-5.9011,-6.2577,-6.1435,-6.0512,-6.2846,-6.3166,0.0,0.0,0.0,0.0,0.0,0.0,0.0,0.0,0.0,0.0,0.0,0.0,0.0,0.0,0.0,0.0,0.0,0.0,0.0,0.0,0.0,-6.1899,-6.2047,-6.218,-6.2265,0.0,-6.2265,-6.2148,-6.1992,-6.2695,-6.2617,-6.1914,-6.1055,-6.0664,-6.0625,-5.9805,-5.9453,-5.9375,-5.8515,-5.8164,-5.8086,-5.7422,-5.7148,-5.7148,0.0,0.0,0.0,0.0,0.0,0.0,0.0,0.0,0.0,0.0,0.0,0.0,0.0,0.0,0.0,0.0,0.0,0.0,0.0,-4.0078,-4.0547,-4.0508,-4.1719,-4.2422,-4.25,-4.2422,-4.2226,-4.1836,-4.2266,-4.2266,-4.1836,-4.3125,-4.3242,-4.2461,-4.4258,-4.3359,-4.0508,-4.0547,-3.957,-3.793,-3.7539,-3.7344,-3.7226,-3.5898,-3.5117,-3.4687,-3.4258,0.0,0.0,0.0,0.0,0.0,0.0,0.0,-3.3672,-3.4993,-3.6848,-3.9065,-4.1917,-4.382,-4.5911,-4.9595,-5.2433,-5.5049,-5.7742,-5.8319,-5.8819,-6.055,-6.0473,-6.0666,-6.2397,0.0,0.0,0.0,0.0,0.0,0.0,0.0,0.0,0.0,0.0,0.0,0.0,0.0,0.0,0.0,0.0,0.0,0.0,0.0,0.0,0.0,-6.1546,-6.1478,-6.1585,-6.1678,-6.1719,-6.168,-6.1289,-6.0898,-6.0547,-6.1367,-6.1289,-6.0469,-6.0039,-5.9844,-5.9765,-5.8906,-5.8594,-5.8476,-5.7617,-5.7265,-5.7226,-5.6758,-5.6601,-5.6601,0.0,0.0,0.0,0.0,0.0,0.0,0.0,0.0,0.0,0.0,0.0,0.0,0.0,0.0,0.0,0.0,0.0,0.0,0.0,-3.9414,-4.0273,-4.1172,-4.1953,-4.2109,-4.1406,-4.1914,-4.1875,-4.1211,-4.0898,-4.1211,-4.2109,-4.3359,-4.3906,-4.3906,-4.3906,-4.2656,-4.043,-3.8984,-3.7695,-3.6562,-3.5859,-3.5547,-3.5469,-3.4609,-3.3828,-3.3203,-3.3203,-3.3203,-3.3203,-3.3359,0.0,0.0,0.0,0.0,-3.2968,-3.2908,-3.4765,-3.7308,-3.9223,-4.3183,-4.7983,-5.3012,-5.5626,-5.6857,-5.628,-5.6934,-5.778,-5.8204,-5.9511,-6.0781,0.0,0.0,0.0,0.0,0.0,0.0,0.0,0.0,0.0,0.0,0.0,0.0,0.0,0.0,0.0,0.0,0.0,0.0,0.0,0.0,-6.1019,-6.1083,-6.1218,-6.1262,-6.1289,-6.1289,-6.1289,-6.125,-6.0547,-5.9765,-5.8984,-5.9648,-5.9687,-5.918,-5.9023,-5.8984,-5.8906,-5.8047,-5.7695,-5.7617,-5.6875,-5.6601,-5.6601,-5.6601,-5.6601,-5.6601,0.0,0.0,0.0,0.0,0.0,0.0,0.0,0.0,0.0,0.0,-4.1211,-4.0859,-4.0,-3.9883,0.0,0.0,0.0,0.0,-3.8594,0.0,0.0,-4.1172,-4.1953,-4.2344,-4.2226,-4.1641,-4.1328,-4.1211,-3.9687,-4.125,-4.5625,-4.5078,-4.4844,-4.4844,-4.4844,-4.2226,-3.7812,-3.7578,-3.6094,-3.3906,-3.3789,-3.375,-3.3672,-3.2851,-3.2461,-3.2344,-3.2344,-3.2344,-3.2461,-3.3164,-3.2851,0.0,0.0,0.0,-3.1211,-3.121,-3.3496,-3.6024,-3.6378,-4.1042,-4.7094,-5.2117,-5.2549,-5.2818,-5.7011,-5.6434,-5.5626,0.0,-5.905,0.0,0.0,0.0,0.0,0.0,0.0,0.0,0.0,0.0,0.0,0.0,0.0,0.0,0.0,0.0,0.0,0.0,0.0,0.0,0.0,-6.0945,-6.0748,-6.0182,-6.0282,-6.0089,-5.9531,-5.9531,-5.9531,-5.9531,-5.9414,-5.8906,-5.8086,-5.8164,-5.8594,-5.914,-5.8398,-5.8086,-5.8008,-5.7148,-5.6758,-5.6758,-5.664,-5.6601,-5.6601,-5.6601,-5.6601,-5.6601,0.0,0.0,0.0,0.0,0.0,0.0,0.0,0.0,0.0,0.0,0.0,-4.0664,-3.9336,-3.918,0.0,0.0,0.0,0.0,-3.7851,-3.8672,0.0,-3.9726,-4.0078,-4.0039,-3.9531,-3.9219,-3.9023,-3.9023,-3.7773,-4.0781,-4.7734,-4.6367,-4.625,-4.7187,-4.7187,-4.4336,-3.9375,-3.793,-3.6055,-3.3984,-3.2578,-3.2851,-3.3867,-3.1601,-3.1367,-3.1992,-3.0547,-3.0,-3.0156,-3.0976,-3.1055,-3.0742,-3.0742,0.0,0.0,0.0,-3.0817,-3.3331,-3.8026,-4.1374,-4.5101,-5.1578,-5.1587,-5.1048,-5.5203,-5.4934,-5.4357,-5.6434,-5.7511,0.0,0.0,0.0,0.0,0.0,0.0,0.0,0.0,0.0,0.0,0.0,0.0,0.0,0.0,0.0,0.0,0.0,0.0,0.0,-5.9396,-5.9603,-5.9581,-5.9299,-5.9513,0.0,-5.9219,-5.9219,-5.8945,-5.8476,-5.8476,-5.8008,-5.7187,-5.7187,-5.7383,-5.7734,-5.7344,-5.7187,-5.7148,-5.6758,-5.6601,-5.6601,-5.6601,-5.6601,-5.6601,-5.6601,-5.6601,-5.6601,0.0,0.0,0.0,0.0,0.0,0.0,0.0,0.0,0.0,0.0,0.0,-4.0039,-3.875,0.0,0.0,0.0,0.0,0.0,-3.6289,0.0,0.0,0.0,0.0,-3.8086,-3.6992,-3.6953,-3.6875,-3.6641,-3.5976,-3.9883,-4.7891,-4.7031,-4.7891,-5.0156,-4.9531,-4.6484,-4.168,-3.9062,-3.6953,-3.5195,-3.3047,-3.3086,-3.4141,-3.2266,-3.2226,-3.2891,-3.0703,-2.9766,-2.9648,-2.9844,-2.9766,-2.9609,-2.9609,-2.9453,0.0,0.0,0.0,-3.0228,-3.7743,-4.0053,-4.2002,-4.8947,-4.9219,-4.8718,-5.2097,-5.2356,-5.2433,0.0,0.0,0.0,0.0,0.0,0.0,0.0,0.0,0.0,0.0,0.0,0.0,0.0,0.0,0.0,0.0,0.0,0.0,0.0,0.0,0.0,-5.834,-5.8559,-5.8621,-5.8418,-5.8728,-5.875,-5.8555,-5.8555,-5.8203,-5.7578,-5.7578,-5.7226,-5.6601,-5.6601,-5.6601,-5.6601,-5.6601,-5.6601,-5.6601,-5.6601,-5.6484,-5.6289,-5.6289,-5.6133,-5.5937,-5.5937,-5.5937,-5.5937,0.0,0.0,0.0,0.0,0.0,0.0,0.0,0.0,0.0,0.0,0.0,0.0,-3.8594,-3.7851,-3.6641,-3.4844,-3.4726,0.0,0.0,0.0,0.0,0.0,0.0,0.0,-3.6094,-3.6055,-3.5664,-3.4844,-3.4805,-3.8359,-4.5234,-4.6797,-4.9766,-5.3633,-5.1211,-4.7695,-4.3398,-4.0859,-3.875,-3.707,-3.6133,-3.4805,-3.3711,-3.6016,-3.6445,-3.5664,-3.4726,-3.3828,-3.2891,-3.1367,-3.0273,-2.9609,-2.9609,-2.9023,-2.8203,0.0,0.0,0.0,-3.2249,-3.487,-3.7354,-4.2434,-4.3638,-4.4358,-4.7661,0.0,-4.9086,0.0,0.0,0.0,0.0,0.0,0.0,0.0,0.0,0.0,0.0,0.0,0.0,0.0,0.0,0.0,0.0,0.0,0.0,0.0,0.0,0.0,-5.8475,-5.8622,-5.8389,-5.7662,-5.7843,-5.7578,-5.6758,-5.6758,-5.6719,-5.668,-5.668,-5.664,-5.6601,-5.6601,-5.6601,-5.6601,-5.6601,-5.6601,-5.6601,-5.6601,-5.6094,-5.5351,-5.5351,-5.4844,-5.4141,-5.4141,-5.4141,-5.4141,0.0,0.0,0.0,0.0,0.0,0.0,0.0,0.0,0.0,0.0,0.0,0.0,0.0,-3.6992,-3.5742,-3.4023,-3.3867,0.0,0.0,0.0,0.0,0.0,0.0,0.0,-3.5195,-3.4609,-3.418,-3.3867,-3.2773,-3.5781,-4.2578,-4.3203,-4.5469,-4.918,-5.2148,-5.0469,-4.5273,-4.3789,-4.0898,-3.7383,-3.8164,-3.7773,-3.6797,-3.7148,-3.7812,-3.8086,-3.4961,-3.4023,-3.3984,-3.2305,-3.1172,-3.0234,-2.9101,-2.8555,-2.8008,-2.6602,-2.6758,-2.8123,-3.1512,-3.29,-3.4553,-3.9567,-4.0444,-4.108,-4.4976,-4.7159,-4.8431,0.0,0.0,0.0,0.0,0.0,0.0,0.0,0.0,0.0,0.0,0.0,0.0,0.0,0.0,0.0,0.0,0.0,0.0,0.0,0.0,0.0,-5.6759,-5.5455,-5.5329,-5.6776,-5.6985,-5.6914,-5.6601,-5.6601,-5.6601,-5.6601,-5.6601,-5.6328,-5.5781,-5.5781,-5.5469,-5.4922,-5.4922,-5.5234,-5.5703,-5.5156,-5.4765,-5.4453,-5.4453,-5.4258,-5.3984,-5.3984,-5.3984,-5.3984,0.0,0.0,0.0,0.0,0.0,0.0,0.0,0.0,-3.9645,-3.9101,0.0,0.0,0.0,0.0,-3.5742,-3.3984,-3.3555,-3.3398,-3.3398,-3.4766,0.0,0.0,0.0,0.0,-3.4726,-3.3867,-3.3281,-3.3008,-3.1875,-3.3984,-3.9023,-4.0234,-4.2422,-4.5586,-4.9609,-4.9844,-4.7109,-4.625,-4.3906,-4.0781,-4.1055,-4.082,-4.0312,-4.0312,-4.0664,-4.0859,-3.8555,-3.7344,-3.6719,-3.5586,-3.4062,-3.2305,-3.0547,-2.8828,-2.7187,-2.6055,-2.6719,-2.8163,-2.9507,-3.0518,-3.2188,-3.6384,-3.7035,-3.7743,-4.1945,-4.5143,-4.7077,0.0,0.0,0.0,0.0,0.0,0.0,0.0,0.0,0.0,0.0,0.0,0.0,0.0,0.0,0.0,0.0,0.0,0.0,0.0,0.0,0.0,-5.5892,-5.4519,-5.4414,-5.5989,-5.5817,-5.5742,-5.5742,-5.5742,-5.5742,-5.5742,-5.5742,-5.543,-5.4844,-5.4844,-5.4531,-5.3984,-5.3672,-5.4062,-5.4805,-5.4258,-5.3828,-5.3555,-5.3555,-5.3398,-5.3125,-5.3125,-5.3125,-5.3125,0.0,0.0,0.0,0.0,0.0,0.0,0.0,0.0,-3.9741,-3.9843,0.0,0.0,0.0,0.0,0.0,-3.4844,-3.3945,-3.3437,-3.3398,-3.4258,0.0,0.0,0.0,0.0,-3.4766,-3.3867,-3.3008,-3.2226,-3.2187,-3.3008,-3.4687,-3.8125,-4.1055,-4.3437,-4.3516,-4.543,-4.8555,-4.7773,-4.7422,-4.7148,-4.4766,-4.3711,-4.3828,-4.5664,-4.5273,-4.3945,-4.5742,-4.4219,-4.1367,-4.1328,-3.9023,-3.582,-3.3906,-2.9844,-2.5742,-2.5703,-2.6328,-2.6836,0.0,0.0,0.0,-3.2506,-3.3158,0.0,-3.8458,0.0,-4.4617,0.0,0.0,0.0,0.0,0.0,0.0,0.0,0.0,0.0,0.0,0.0,0.0,0.0,0.0,0.0,0.0,0.0,0.0,0.0,0.0,-5.5718,-5.6103,-5.6124,-5.5879,-5.5273,-5.4453,-5.3984,-5.3984,-5.3984,-5.3984,-5.3984,-5.3984,-5.3984,-5.3945,-5.3945,-5.3945,-5.3867,-5.3047,-5.3125,-5.3906,-5.3906,-5.3437,-5.2656,-5.2656,-5.2148,-5.1406,-5.1406,-5.1406,-5.1406,0.0,0.0,0.0,0.0,0.0,-4.0563,-3.9792,-3.9706,-3.9495,0.0,0.0,0.0,-3.8047,-3.7031,-3.5898,-3.4805,-3.5078,-3.4766,-3.3476,-3.4805,-3.5351,-3.4726,-3.5547,-3.5898,-3.5664,-3.418,-3.3281,-3.3086,-3.1836,-3.1836,-3.293,-3.4453,-3.5898,-3.7266,-3.918,-4.0547,-4.1562,-4.3164,-4.3125,-4.2226,-4.4609,-4.4101,-4.2344,-4.6562,-4.6328,-4.4101,-4.7109,-4.6758,-4.4805,-4.4141,-4.207,-3.8828,-3.332,-2.9297,-2.6523,-2.5898,-2.6758,-2.7617,-2.6094,0.0,0.0,0.0,0.0,0.0,0.0,0.0,0.0,0.0,0.0,0.0,0.0,0.0,0.0,0.0,0.0,0.0,0.0,0.0,0.0,0.0,0.0,0.0,0.0,0.0,0.0,0.0,-5.3271,-5.2873,-5.439,-5.4572,-5.4523,-5.4375,-5.4141,-5.3984,-5.3984,-5.3984,-5.3984,-5.3984,-5.3984,-5.3672,-5.3047,-5.3047,-5.2734,-5.2109,-5.1875,-5.1914,-5.2109,-5.2109,-5.1992,-5.1758,-5.1758,-5.1601,-5.1406,-5.1406,-5.1406,-5.1406,0.0,0.0,0.0,-4.0747,-4.1008,-4.0964,-4.0213,-4.0435,-4.0344,0.0,0.0,0.0,-3.8476,-3.793,-3.7266,-3.6406,-3.6445,-3.6094,-3.5078,-3.5312,-3.5391,-3.5234,-3.5391,-3.5625,-3.5976,-3.4648,-3.375,-3.3398,-3.2109,-3.1523,-3.168,-3.25,-3.3164,-3.3711,-3.4883,-3.5781,-3.6523,-3.7656,-3.9648,-4.2266,-4.5156,-4.5976,-4.582,-4.9219,-4.8984,-4.7305,-5.0469,-5.0234,-4.8476,-4.8672,-4.5625,-4.082,-3.5703,-3.1836,-2.8984,-2.8125,-2.8867,-2.9453,-2.7344,-2.7773,-2.8828,-2.8672,0.0,0.0,0.0,-3.4687,0.0,0.0,0.0,0.0,0.0,0.0,0.0,0.0,0.0,0.0,0.0,0.0,0.0,0.0,0.0,0.0,0.0,0.0,0.0,0.0,-5.2854,-5.2541,-5.3724,-5.3585,-5.3476,-5.3476,-5.3086,-5.293,-5.293,-5.293,-5.293,-5.293,-5.293,-5.2656,-5.2148,-5.2148,-5.1875,-5.1406,-5.1406,-5.1406,-5.1406,-5.1406,-5.1406,-5.1406,-5.1406,-5.1406,-5.1406,-5.1406,-5.1406,-5.1406,0.0,0.0,-4.0674,-4.0674,-4.1236,-4.1506,-4.098,-4.1468,-4.1673,0.0,-4.1048,-4.0758,-4.0117,-3.9961,-3.9609,-3.8828,-3.7969,-3.7383,-3.7305,-3.5664,-3.5039,-3.582,-3.5117,-3.5039,-3.5703,-3.5039,-3.4219,-3.3281,-3.2539,-3.1758,-3.0937,-3.168,-3.1992,-3.1875,-3.1094,-3.1562,-3.293,-3.2422,-3.6758,-4.4101,-4.5469,-4.7969,-5.0976,-5.2344,-5.2148,-5.1484,-5.4414,-5.375,-5.1758,-5.3203,-4.8945,-4.2461,-3.9531,-3.5937,-3.2539,-3.1289,-3.1562,-3.1797,-2.9258,-2.9219,-3.0039,-3.0625,-2.9726,0.0,-3.2226,-3.4726,-3.7187,0.0,0.0,0.0,0.0,0.0,0.0,0.0,0.0,0.0,0.0,0.0,0.0,0.0,0.0,0.0,0.0,0.0,-5.3423,-5.3462,-5.341,-5.3424,-5.3545,-5.2923,-5.2578,-5.2578,-5.1797,-5.1406,-5.1406,-5.1406,-5.1406,-5.1406,-5.1406,-5.1406,-5.1406,-5.1406,-5.1406,-5.1406,-5.1406,-5.1406,-5.1406,-5.1406,-5.1406,-5.1406,-5.1406,-5.1406,-5.1406,-5.1406,-5.1406,-5.1406,-4.0537,-4.053,-4.053,-4.053,-4.0654,-4.0962,-4.1531,-4.121,-4.1368,-4.2592,-4.1739,-4.0989,-4.0937,-4.0312,-3.9844,-3.9648,-3.8867,-3.8047,-3.7344,-3.5664,-3.4766,-3.4961,-3.4805,-3.4453,-3.3906,-3.4414,-3.3945,-3.2422,-3.2266,-3.1758,-3.0898,-3.1055,-3.0781,-3.0117,-2.9922,-3.0039,-3.043,-3.168,-3.4336,-3.8125,-4.2461,-4.5469,-4.7773,-5.2109,-5.1914,-5.0,-5.4687,-5.4687,-5.2383,-5.2031,-4.9531,-4.5664,-4.0273,-3.7539,-3.5586,-3.1953,-3.1992,-3.2773,-3.0898,-3.1016,-3.1406,-3.0156,-3.0664,0.0,-2.9609,-3.0234,-3.1836,0.0,0.0,0.0,0.0,0.0,0.0,0.0,0.0,0.0,0.0,0.0,0.0,0.0,0.0,0.0,0.0,0.0,-5.3312,-5.276,-5.2159,-5.183,-5.1872,-5.1718,-5.1641,-5.1641,-5.1484,-5.1406,-5.1406,-5.1406,-5.1406,-5.1406,-5.1406,-5.1406,-5.1406,-5.1406,-5.1406,-5.1406,-5.1406,-5.1406,-5.1406,-5.1406,-5.1406,-5.1406,-5.1406,-5.1406,-5.1406,-5.1406,-5.1406,-5.1406,-4.0516,-4.0516,-4.0516,-4.0516,-4.0854,-4.1316,-4.1731,-4.1863,-4.2191,-4.304,-4.2223,-4.1259,-4.0533,-4.0506,-4.0351,-3.9922,-3.9492,-3.8867,-3.8008,-3.5898,-3.4687,-3.4687,-3.3906,-3.3633,-3.4023,-3.4492,-3.4062,-3.2812,-3.2812,-3.1914,-3.0234,-3.0234,-3.0469,-3.0859,-2.9531,-2.9883,-3.1484,-3.1055,-3.2891,-3.6523,-4.2578,-4.6055,-4.8164,-5.332,-5.4219,-5.3086,-5.5664,-5.5742,-5.418,-5.1172,-4.9609,-4.8008,-4.2773,-4.0273,-3.8476,-3.457,-3.4023,-3.4336,-3.2617,-3.2461,-3.2578,-3.1719,-3.1523,0.0,0.0,-3.0234,-3.1094,-3.4062,0.0,0.0,0.0,0.0,0.0,0.0,0.0,0.0,0.0,0.0,0.0,0.0,0.0,0.0,0.0,0.0,-5.2263,-5.1974,-5.1599,-5.1406,-5.1406,-5.1406,-5.1406,-5.1406,-5.1406,-5.1406,-5.1406,-5.1406,-5.1406,-5.1406,-5.1406,-5.1406,-5.1406,-5.1406,-5.1406,-5.1406,-5.1406,-5.1406,-5.1406,-5.1406,-5.1406,-5.1406,-5.1406,-5.1406,-5.1406,-5.1406,-5.1406,-5.1406,-4.0439,-4.0516,-4.0516,-4.0516,-4.1085,-4.1623,-4.1769,-4.2239,-4.2678,-4.2872,-4.2571,-4.2057,-4.128,-4.1322,-4.1484,-4.1601,-4.0859,-4.0078,-3.9375,-3.6914,-3.5391,-3.5195,-3.3437,-3.3047,-3.4414,-3.4453,-3.3945,-3.293,-3.3086,-3.1953,-2.9609,-2.9766,-3.0508,-3.1601,-2.9687,-3.0703,-3.375,-3.1523,-3.3164,-3.7773,-4.4023,-4.7109,-4.8516,-5.4023,-5.5898,-5.5703,-5.6367,-5.6601,-5.5859,-5.082,-4.9609,-4.9453,-4.5078,-4.2539,-4.0625,-3.7617,-3.6523,-3.5937,-3.4531,-3.4023,-3.3867,-3.3672,0.0,-3.1836,0.0,0.0,0.0,-3.4062,0.0,0.0,0.0,0.0,0.0,0.0,0.0,0.0,0.0,0.0,0.0,0.0,0.0,0.0,0.0,0.0,-5.0375,-5.1328,-5.0937,-5.0898,-5.1367,-5.1406,-5.1406,-5.1406,-5.1406,-5.1406,-5.1406,-5.1406,-5.1406,-5.1406,-5.1406,-5.1406,-5.1406,-5.1406,-5.1406,-5.1406,-5.1406,-5.1406,-5.1406,-5.1406,-5.1406,-5.1406,-5.1406,-5.1406,-5.1406,-5.1406,-5.1406,-5.1406,-4.0208,-4.0516,-4.0516,-4.0516,-4.0593,-4.0893,-4.1692,-4.1239,-4.1115,-4.2002,-4.2796,-4.4093,-4.6279,-4.3977,-4.3789,-4.7539,-4.4336,-4.207,-4.1953,-3.957,-3.7812,-3.7031,-3.4609,-3.3359,-3.3555,-3.3555,-3.2773,-3.1172,-3.1953,-3.1406,-2.9609,-3.0391,-3.0469,-2.9922,-3.0391,-3.25,-3.5625,-3.457,-3.7031,-4.1992,-4.5898,-4.6172,-4.5039,-5.1758,-5.3359,-5.2383,-5.5508,-5.6601,-5.5937,0.0,-5.0117,-4.9453,0.0,-4.2539,-4.0976,-3.9805,-3.8359,-3.7109,-3.6914,0.0,0.0,0.0,-3.5,0.0,0.0,0.0,-3.1484,-2.957,0.0,0.0,0.0,0.0,0.0,0.0,0.0,0.0,0.0,0.0,0.0,0.0,0.0,0.0,0.0,0.0,0.0,-5.1094,-4.9297,-4.9023,-5.1289,-5.1406,-5.1406,-5.1406,-5.1406,-5.1406,-5.1406,-5.1406,-5.1406,-5.1406,-5.1406,-5.1406,-5.1406,-5.1406,-5.1406,-5.1406,-5.1406,-5.1406,-5.1406,-5.1406,-5.1406,-5.1406,-5.1406,-5.1406,-5.1406,-5.1406,-5.1406,-5.1406,-3.8892,-3.9477,-3.9631,-3.9123,-3.9861,-4.0631,-4.0969,-4.2439,-4.3079,-4.2001,-4.3137,-4.4885,-4.7118,-4.6134,-4.6673,-5.0078,-4.8672,-4.6992,-4.5508,-4.2539,-3.9961,-3.8125,-3.5547,-3.3906,-3.3398,-3.3398,-3.2812,-3.1641,-3.2031,-3.1055,-2.8867,-2.9726,-3.0508,-3.1094,-3.0976,-3.3633,-3.8125,-3.625,-3.7578,-4.1133,-4.3086,-4.3516,0.0,-5.2305,-5.5039,-5.4414,-5.4375,-5.5312,-5.5625,0.0,-4.9492,0.0,0.0,0.0,0.0,-4.2226,0.0,0.0,0.0,0.0,0.0,0.0,0.0,0.0,-3.3828,0.0,-3.0664,0.0,0.0,0.0,0.0,0.0,0.0,0.0,0.0,0.0,0.0,0.0,0.0,0.0,0.0,0.0,0.0,0.0,0.0,0.0,0.0,-4.6992,-4.9062,-5.0586,-5.1406,-5.1406,-5.1406,-5.1406,-5.1406,-5.1406,-5.1406,-5.1406,-5.1406,-5.1406,-5.1406,-5.1406,-5.1406,-5.1406,-5.1406,-5.1406,-5.1406,-5.1406,-5.1406,-5.1406,-5.1406,-5.1406,-5.1406,-5.1406,-5.1406,-5.1406,-3.7315,-3.82,-3.8815,-3.843,-3.9361,-4.0246,-4.0477,-4.3209,-4.4739,-4.3393,-4.4182,-4.5983,-4.8987,-4.7738,-4.8391,-5.2676,-5.2023,-5.0777,-4.9407,-4.5624,-4.2734,-4.1133,-3.7226,-3.5117,-3.5195,-3.4023,-3.3008,-3.2187,-3.1953,-3.0859,-2.9023,-2.9648,-3.0742,-3.2187,-3.1758,-3.4531,-3.9453,-3.8047,-3.9336,-4.2422,-4.332,-4.4453,-4.6289,-5.2734,-5.5625,-5.6015,-5.4101,-5.4492,-5.4883,-4.8281,-4.8984,0.0,-4.5664,0.0,-4.3828,0.0,0.0,0.0,-4.0703,0.0,0.0,0.0,0.0,0.0,0.0,0.0,0.0,0.0,0.0,0.0,0.0,0.0,-2.9219,-2.8711,0.0,0.0,0.0,0.0,0.0,0.0,0.0,0.0,0.0,0.0,0.0,0.0,0.0,0.0,-4.6758,-4.9336,-5.082,-5.1055,-5.1289,-5.1406,-5.1406,-5.1406,-5.1406,-5.1406,-5.1406,-5.1406,-5.1406,-5.1406,-5.1406,-5.1406,-5.1406,-5.1406,-5.1406,-5.1406,-5.1406,-5.1406,-5.1406,-5.1406,-5.1406,-5.1406,-5.1406,-5.1406,-3.5577,-3.693,-3.8315,-3.913,-3.9284,-3.9592,-4.0362,-4.2709,-4.4932,-4.6547,-4.6159,-4.7998,-5.3839,-4.8683,-4.8136,-5.6469,-5.3575,-5.1979,-5.3481,-4.8934,-4.6523,-4.7266,-4.0039,-3.7148,-3.9648,-3.5547,-3.3008,-3.2187,-3.1367,-3.0898,-3.082,-3.0859,-3.1328,-3.2226,-3.2969,-3.5312,-3.875,-4.0351,-4.3984,-4.8672,-4.957,-5.1406,-5.3476,0.0,-5.3125,-5.5312,-5.5234,0.0,0.0,-4.9961,-4.8906,0.0,0.0,0.0,0.0,0.0,0.0,0.0,0.0,0.0,0.0,-3.9414,0.0,0.0,0.0,0.0,-3.2148,0.0,0.0,0.0,0.0,-3.2656,-3.1523,-2.9844,-2.957,0.0,0.0,0.0,0.0,0.0,0.0,0.0,0.0,0.0,0.0,0.0,0.0,0.0,-4.4844,-4.7578,-4.9375,-5.0195,-5.0976,-5.1406,-5.1406,-5.1406,-5.1406,-5.1406,-5.1406,-5.1406,-5.1406,-5.1406,-5.1406,-5.1406,-5.1406,-5.1406,-5.1406,-5.1406,-5.1406,-5.1406,-5.1406,-5.1406,-5.1406,-5.1406,-5.1406,-5.1406,-3.6615,-3.7238,-3.7738,-3.693,-3.8161,-3.94,-3.9669,-4.09,-4.3008,-4.6471,-4.7148,-5.0284,-5.8031,-5.6381,-5.6123,-5.966,-5.9732,-5.8384,-5.558,-5.3286,-5.1451,-5.0046,-4.5386,-4.1914,-3.9922,-3.7891,-3.5586,-3.3008,-3.2695,-3.1992,-3.0898,-3.1484,-3.1601,-3.1406,-3.2773,-3.5351,-3.875,-4.1016,-4.3984,-4.7266,0.0,-4.9687,-5.1601,0.0,0.0,-5.4453,-5.4453,-5.4258,0.0,-5.0039,-5.0039,-5.0976,-4.8398,-4.6992,-4.6797,-4.9375,-4.707,0.0,0.0,0.0,-4.5742,-4.3398,0.0,0.0,0.0,0.0,0.0,0.0,0.0,0.0,0.0,-3.2734,-3.1836,-3.0664,-2.9492,-2.8047,0.0,0.0,0.0,0.0,0.0,0.0,0.0,0.0,0.0,0.0,0.0,0.0,0.0,-4.4297,-4.6992,-4.8437,-4.9844,-5.0859,-5.1406,-5.1406,-5.1406,-5.1406,-5.1406,-5.1406,-5.1406,-5.1406,-5.1406,-5.1406,-5.1406,-5.1406,-5.1406,-5.1406,-5.1406,-5.1406,-5.1406,-5.1406,-5.1406,-5.1406,-5.1406,-5.1406,-3.7584,-3.7623,-3.7777,-3.7007,-3.843,-3.9938,-4.0546,-4.1854,-4.4509,-4.9394,-4.9971,-5.2743,-6.0133,-5.9388,-5.922,-6.1368,-6.1514,-6.0443,-5.812,-5.4654,-5.2812,-5.3095,-4.8387,-4.5193,-4.4023,-4.1055,-3.8555,-3.6601,-3.4141,-3.3047,-3.3164,-3.2187,-3.1758,-3.1836,-3.293,-3.4648,-3.7031,-4.1133,-4.4023,-4.5976,0.0,-4.9101,0.0,0.0,-5.2461,-5.3555,0.0,-5.3359,-5.2734,-5.0547,-5.0898,-5.1836,-4.9648,-4.8945,-4.9258,-5.0937,-4.9023,-4.6797,-4.8476,-4.8945,0.0,-4.6055,-4.4219,0.0,-3.9687,0.0,0.0,0.0,0.0,0.0,0.0,-3.5,-3.3437,-3.1641,-2.9883,-2.793,0.0,-2.4531,0.0,0.0,0.0,0.0,0.0,0.0,-3.0898,-3.3164,0.0,0.0,0.0,0.0,-4.4726,-4.6172,-4.8516,-5.0,-5.0508,-5.082,-5.0976,-5.0976,-5.0976,-5.1133,-5.1406,-5.1094,-5.1133,-5.1406,-5.1406,-5.1406,-5.1406,-5.1406,-5.1406,-5.1406,-5.1406,-5.1406,-5.1406,-5.1406,-5.1406,-5.1406,-3.8392,-3.8084,-3.8354,-3.913,-3.99,-4.1054,-4.2893,-4.5278,-4.9009,-5.4818,-5.4357,-5.5357,-6.0319,-5.8088,-5.7753,-6.1601,-5.9186,-5.8436,-6.0832,-5.348,-5.1346,-5.6599,-4.951,-4.7322,-5.1367,-4.5,-4.1953,-4.2539,-3.5859,-3.4219,-3.7226,-3.3008,-3.1836,-3.3281,-3.3359,-3.3398,-3.3867,-4.0781,-4.4258,-4.5351,-4.7734,-4.9726,-5.0937,-4.8516,0.0,-5.2656,-5.2656,-5.2109,-5.1406,-5.1406,-5.1406,-5.1406,-5.1406,-5.1406,-5.1406,-5.1406,-5.1406,-5.1406,-5.1406,-5.1406,-5.0625,-4.7344,0.0,0.0,0.0,0.0,-4.125,0.0,0.0,0.0,0.0,0.0,-3.625,-3.2851,-3.0742,-2.8359,-2.4922,0.0,0.0,0.0,0.0,0.0,0.0,-2.8711,-2.8945,-3.0508,-3.0,-3.1055,0.0,0.0,0.0,-4.3672,-4.6836,-4.8633,-4.8906,-4.9609,-5.0,-5.0156,-5.0156,-5.0547,-5.125,-5.0469,-5.0547,-5.1289,-5.1289,-5.1289,-5.1328,-5.1328,-5.1367,-5.1406,-5.1406,-5.1406,-5.1406,-5.1406,-5.1406,-5.1406,-3.9431,-3.9438,-3.9554,-3.8507,-3.9046,-4.0593,-4.3547,-4.5663,-4.8586,-5.3241,-5.5665,-5.8204,-6.1408,-6.2666,-6.2204,-5.9511,-6.0245,-6.004,-5.8221,-5.6712,-5.7116,-5.9756,-5.6316,-5.366,-5.2266,-4.937,-4.6719,-4.4336,-4.0039,-3.7695,-3.7226,-3.418,-3.2305,-3.1601,-3.2851,-3.3398,-3.3867,-4.0781,-4.4961,-4.6875,-4.625,-4.7031,0.0,0.0,-4.9336,-5.1719,-5.1719,-5.1601,-5.1406,-5.1406,-5.1406,-5.1406,-5.1406,-5.1406,-5.1406,-5.1406,-5.1406,-5.1406,-5.1406,-5.1406,-5.1172,-5.0312,-4.8164,-4.6016,0.0,0.0,0.0,0.0,0.0,0.0,0.0,0.0,0.0,-3.4531,-3.1016,-2.7851,-2.5664,-2.5,0.0,-2.6211,0.0,0.0,0.0,-2.7305,-2.7969,-2.7109,-2.8633,0.0,0.0,0.0,0.0,-4.3555,-4.3359,-4.5039,-4.8867,-4.7187,-4.7305,-4.9219,-4.9219,-4.9336,-4.9531,-4.9336,-4.9336,-4.9531,-4.9531,-4.9922,-5.0508,-5.0508,-5.0859,-5.1406,-5.1406,-5.1406,-5.1406,-5.1406,-5.1406,-5.1406,-4.0169,-4.0208,-4.0208,-3.9238,-4.1662,-4.4355,-4.624,-4.7355,-4.9894,-5.528,-5.7319,-5.9281,-6.1831,-6.4359,-6.4743,-6.1858,-6.0896,-6.0261,-5.9878,-5.7564,-5.7637,-6.095,-5.8752,-5.6251,-5.3679,-5.1652,-4.9368,-4.6719,-4.1367,-3.8867,-3.8906,-3.4414,-3.1992,-3.1523,-3.2812,-3.3398,-3.3867,-4.0781,-4.5195,-4.75,-4.6523,0.0,0.0,-4.8008,-4.918,-5.1406,-5.1406,-5.1406,-5.1406,-5.1406,-5.1406,-5.1406,-5.1406,-5.1406,-5.1406,-5.1406,-5.1406,-5.1406,-5.1406,-5.1406,-5.1406,-5.1406,-4.9961,-4.8437,-4.8086,-4.6875,-4.582,0.0,0.0,0.0,0.0,0.0,0.0,-3.3203,-2.9805,-2.7266,-2.5898,-2.5937,0.0,0.0,-2.5664,0.0,0.0,0.0,0.0,0.0,0.0,0.0,0.0,0.0,0.0,-3.9101,-4.0508,-4.2226,-4.4375,-4.332,-4.4062,-4.6641,-4.6641,-4.7422,-4.8906,-4.8516,-4.8555,-4.8906,-4.8906,-4.9375,-5.0195,-5.0195,-5.0664,-5.1406,-5.1406,-5.1406,-5.1406,-5.1406,-5.1406,-5.1406,-4.0554,-4.0516,-4.0708,-4.0823,-4.5393,0.0,0.0,-5.0779,0.0,-5.8781,0.0,-6.0012,-6.1908,-6.4359,-6.5782,-6.5436,-6.1358,-6.0074,-6.31,-5.76,-5.6377,-6.1264,-5.9173,-5.719,-5.5712,-5.3267,-5.1206,-4.953,-4.1991,-3.9218,-4.0898,-3.4297,-3.1523,-3.207,-3.2891,-3.375,-3.4961,-4.0625,-4.4805,-4.7617,-4.7734,-4.9101,-5.0859,-4.8984,-4.9648,-5.1562,-5.1445,-5.1406,-5.1406,-5.1406,-5.1406,-5.1406,-5.1406,-5.1406,-5.1406,-5.1406,-5.1406,-5.1406,-5.1406,-5.1406,-5.1406,-5.1406,-5.1406,-5.1211,-5.0508,-5.0351,-5.0351,-5.0351,-4.9766,0.0,0.0,0.0,0.0,-3.1172,-2.8555,-2.7109,-2.6484,-2.7578,-2.7578,-2.5195,0.0,0.0,0.0,0.0,0.0,0.0,0.0,0.0,0.0,0.0,0.0,0.0,-3.8164,0.0,-3.9101,0.0,-4.1172,-4.4023,-4.3672,-4.5312,-4.8516,-4.7773,-4.7851,-4.8555,-4.8555,-4.9062,-4.9883,-4.9961,-5.0586,-5.1406,-5.1406,-5.1406,-5.1406,-5.1406,-5.1406,-5.1406,-3.9938,-4.0623,-4.1816,-4.2508,-4.524,-4.924,-5.4808,-5.805,-5.9781,-5.9511,-6.2474,-6.3935,-6.2293,-6.4359,-6.5051,-6.2947,-6.1947,0.0,0.0,0.0,0.0,-6.2844,-6.194,-6.0627,-5.8909,-5.7196,-5.5217,-5.2921,-4.6592,-4.2322,-4.0039,-3.5195,-3.2305,-3.1172,-3.2031,-3.5547,-4.0781,-3.9883,0.0,-4.7656,-4.8398,-4.8945,-4.9531,-5.1172,-5.207,-5.2383,-5.1641,-5.1406,-5.1406,-5.1406,-5.1406,-5.1406,-5.1406,-5.1406,-5.1406,-5.1406,-5.1406,-5.1406,-5.1406,-5.1406,-5.1406,-5.1406,-5.1406,-5.1367,-5.1211,-5.1172,-5.1172,-5.1172,-5.1055,-5.0547,-4.9141,0.0,0.0,0.0,0.0,0.0,0.0,0.0,-2.8945,-2.7773,0.0,0.0,0.0,0.0,0.0,0.0,0.0,0.0,0.0,0.0,0.0,0.0,0.0,0.0,0.0,0.0,0.0,-4.582,-4.3672,-4.4062,-4.6758,-4.6601,-4.6601,-4.6758,-4.6758,-4.7266,-4.8125,-4.8828,-5.0039,-5.1406,-5.1406,-5.1406,-5.1406,-5.1406,-5.1406,-5.1406,-4.2901,-4.2162,-4.22,-4.3508,-4.7317,0.0,0.0,-6.0742,-6.3281,-6.1127,-6.2627,-6.3447,-6.2216,-6.4359,-6.5397,-6.4179,-6.287,-6.2678,-6.3974,-6.2447,-6.2012,-6.3231,-6.2987,-6.1224,-5.7809,-5.7428,-5.5691,-5.2431,-4.6412,-4.2469,-4.0469,-3.4766,-3.168,-3.1016,-3.3672,-3.6914,0.0,0.0,0.0,-4.7773,-5.0,-5.0859,-5.1016,-5.2226,-5.2695,-5.2578,-5.1719,-5.1406,-5.1406,-5.1406,-5.1406,-5.1406,-5.1406,-5.1406,-5.1406,-5.1406,-5.1406,-5.1406,-5.1406,-5.1406,-5.1406,-5.1406,-5.1406,-5.1406,-5.1406,-5.1406,-5.1406,-5.1406,-5.1406,-5.0625,-4.8047,-4.4453,0.0,0.0,0.0,0.0,0.0,0.0,-3.0625,-2.9766,-3.043,-2.9609,0.0,0.0,0.0,0.0,0.0,0.0,0.0,0.0,0.0,0.0,0.0,0.0,0.0,0.0,0.0,-4.4258,-4.3008,-4.3789,-4.6289,-4.6289,-4.6289,-4.6289,-4.6289,-4.6797,-4.7695,-4.9023,-5.0039,-5.082,-5.125,-5.1406,-5.1406,-5.1406,-5.1406,-5.1406,-4.7086,-4.547,-4.4816,-4.6663,-5.0741,0.0,-5.6934,-6.1743,-6.4551,-6.3101,-6.2909,-6.2909,-6.2909,-6.4705,-6.5667,-6.5128,-6.3755,-6.3281,-6.4205,-6.3243,-6.2589,-6.2512,-6.2858,-6.1131,-5.7052,-5.7273,-5.5637,0.0,-4.6449,-4.2876,-4.1013,-3.5234,-3.2422,0.0,0.0,0.0,0.0,0.0,-4.7851,-4.8945,-5.1836,-5.3086,-5.3242,-5.3047,-5.2969,-5.2851,-5.1797,-5.1406,-5.1406,-5.1406,-5.1406,-5.1406,-5.1406,-5.1406,-5.1406,-5.1406,-5.1406,-5.1406,-5.1406,-5.1406,-5.1406,-5.1406,-5.1406,-5.1406,-5.1406,-5.1406,-5.1406,-5.1406,-5.1406,-5.0391,-4.7187,-4.5312,0.0,0.0,0.0,0.0,0.0,0.0,-3.2187,-3.1523,-3.1562,-3.0703,0.0,0.0,0.0,0.0,0.0,0.0,-2.4883,-2.6719,0.0,0.0,0.0,0.0,-3.7305,0.0,-4.0156,0.0,-4.2656,-4.3789,-4.6289,-4.6289,-4.6289,-4.6289,-4.6289,-4.6797,-4.7695,-4.9062,-4.9766,-5.0,-5.082,-5.1133,-5.1172,-5.1328,-5.1406,-5.1406,0.0,-5.1731,0.0,0.0,0.0,0.0,-6.1858,-6.2512,-6.3217,-6.5282,-6.5551,-6.5551,-6.5551,-6.5743,-6.4974,-6.2678,-6.4371,-6.3705,-5.9319,-6.2358,-6.3012,-5.9973,-6.1358,-6.1639,-6.0354,-5.893,-5.6898,0.0,0.0,-4.6255,-4.0968,-3.8862,0.0,0.0,0.0,0.0,0.0,-4.6172,-4.8672,-5.2305,-5.3437,-5.4336,-5.4961,-5.418,-5.3867,-5.3672,-5.1992,-5.1406,-5.1406,-5.1406,-5.1406,-5.1406,-5.1406,-5.1406,-5.1406,-5.1406,-5.1406,-5.1406,-5.1406,-5.1406,-5.1406,-5.1406,-5.1406,-5.1406,-5.1406,-5.1406,-5.1406,-5.1406,-5.1406,-5.0586,-4.7969,-4.6719,-4.4453,0.0,0.0,0.0,0.0,0.0,-3.3242,-3.3164,-3.1211,-2.9141,0.0,0.0,0.0,0.0,0.0,0.0,-2.668,-2.625,0.0,-2.9648,0.0,-3.4805,-3.7266,-3.8164,0.0,-4.5898,-4.3516,-4.3789,-4.6289,-4.6289,-4.6289,-4.6289,-4.6289,-4.6797,-4.7617,-4.7773,-4.832,-4.9101,-4.9961,-5.0312,-5.0391,-5.1133,-5.1406,-5.1406,0.0,0.0,0.0,0.0,0.0,0.0,0.0,-6.3589,-6.4743,-6.5782,-6.5897,-6.5897,-6.5897,-6.5897,-6.5474,-6.4474,-6.532,-6.5051,-6.2974,-6.3935,-6.3782,-6.1858,-6.1973,-6.1678,-6.0819,-5.9627,-5.8091,0.0,0.0,-4.5715,-4.2434,-3.9222,0.0,0.0,0.0,-4.4914,-4.7226,-4.9258,-5.1445,-5.3555,-5.4414,-5.5,-5.5273,-5.4922,-5.4765,-5.4609,-5.3398,-5.2617,-5.2187,-5.2187,-5.1836,-5.1406,-5.1406,-5.1406,-5.1406,-5.1406,-5.1406,-5.1406,-5.1406,-5.1406,-5.1406,-5.1406,-5.1406,-5.1406,-5.1406,-5.1406,-5.1406,-5.1406,-5.1016,-5.0351,-4.9336,-4.7578,-4.5273,0.0,0.0,0.0,0.0,0.0,0.0,-3.7226,-3.4101,-3.1797,0.0,0.0,0.0,0.0,0.0,0.0,0.0,0.0,0.0,-3.0273,0.0,-3.6172,-4.0312,-4.0703,-4.2695,-4.6289,-4.5234,-4.5273,-4.6289,-4.6289,-4.6289,-4.6289,-4.6289,-4.6484,-4.6875,-4.7383,-4.7812,-4.8242,-4.9648,-5.0195,-5.0312,-5.1094,-5.1406,-5.1406,-6.0935,0.0,-5.7203,0.0,-6.0127,-6.0896,-6.1947,-6.4243,-6.5628,-6.4859,-6.5436,-6.5897,-6.5897,-6.5897,-6.559,-6.4859,-6.5474,-6.5243,-6.3743,-6.4243,-6.3897,-6.2243,-6.2127,0.0,-6.0819,-5.9935,-5.8869,-5.7534,-5.1671,-4.7728,-4.5572,0.0,0.0,0.0,-4.6635,-4.8519,-4.9648,-5.1982,-5.3508,-5.4414,-5.4997,-5.5386,-5.5582,-5.539,-5.5272,-5.5113,-5.4296,-5.3594,-5.3086,-5.3044,-5.2655,-5.207,-5.1562,-5.1406,-5.1406,-5.1406,-5.1406,-5.1406,-5.1406,-5.1406,-5.1406,-5.1406,-5.1406,-5.1406,-5.1406,-5.1406,-5.1406,-5.1406,-5.0742,-5.0117,-4.9844,-4.8086,-4.5937,0.0,0.0,0.0,0.0,-3.8984,0.0,-3.875,-3.4922,-3.2734,-3.3867,0.0,0.0,0.0,0.0,0.0,0.0,0.0,0.0,0.0,0.0,0.0,0.0,0.0,-4.2969,-4.6289,-4.6289,-4.6289,-4.6289,-4.6289,-4.6289,-4.6289,-4.6289,-4.6289,-4.6367,-4.6953,-4.7226,-4.7383,-4.9141,-4.9805,-4.9961,-5.1016,-5.1406,-5.1406,-6.4359,-6.4512,-6.4743,-6.5628,-6.5782,-6.4974,-6.2486,-6.4243,-6.5013,-6.2486,-6.432,-6.5897,-6.5897,-6.5897,-6.4897,-6.237,-6.4436,-6.3743,-5.8704,-6.2281,-6.3089,0.0,0.0,-6.1678,-6.0819,-5.9935,-5.9088,-5.828,0.0,0.0,-5.0689,0.0,-4.882,-4.9856,-5.1511,-5.2841,-5.3906,-5.3678,-5.4255,-5.5273,-5.5166,-5.5608,-5.6321,-5.5582,-5.5225,-5.4992,-5.4254,-5.3984,-5.3945,-5.3832,-5.3889,-5.3672,-5.1953,-5.1406,-5.1406,-5.1406,-5.1406,-5.1406,-5.1406,-5.1406,-5.1406,-5.1406,-5.1406,-5.1406,-5.1406,-5.1406,-5.1406,-5.1406,-5.0742,-4.9922,-4.9062,-4.8203,-4.6445,-4.2969,0.0,0.0,0.0,0.0,0.0,-3.625,-3.2266,-3.0312,-3.207,0.0,0.0,0.0,0.0,0.0,0.0,0.0,0.0,-2.8281,-2.9219,0.0,-3.6055,-3.7773,-4.1211,-4.6289,-4.6289,-4.6289,-4.6289,-4.6289,-4.6289,-4.6289,-4.6289,-4.6289,-4.6289,-4.6328,-4.6328,-4.6484,-4.8242,-4.8906,-4.9101,-5.0781,-5.1406,-5.1406,-6.0589,-6.3089,-6.5013,-6.3563,-6.4743,-6.5628,-6.482,-6.5359,-6.559,-6.4782,-6.5397,-6.5897,-6.5897,-6.5897,-6.5551,0.0,-6.3832,-6.3358,0.0,-6.2551,-6.2012,-6.2089,-6.0435,-5.8819,-5.7357,-5.7627,-5.7088,-5.5703,0.0,0.0,0.0,-4.9667,-5.0254,-5.2311,-5.2802,-5.3647,-5.4621,-5.4504,-5.5073,-5.6025,-5.5907,-5.6063,-5.6347,-5.6046,-5.5896,-5.5827,-5.5592,-5.5135,-5.4621,-5.4546,-5.4164,-5.3646,-5.3058,-5.2626,-5.2148,-5.1471,-5.1322,-5.1367,-5.1274,-5.1322,-5.1367,-5.1274,-5.1323,-5.1366,-5.1273,-5.1238,-5.1213,-5.126,-5.0603,-4.9829,-4.9023,-4.8203,-4.6445,-4.2969,0.0,0.0,0.0,0.0,-3.9726,-3.7969,-3.5,-3.3281,0.0,-3.1601,0.0,0.0,0.0,0.0,0.0,0.0,0.0,0.0,-3.4336,0.0,-4.0312,-4.0898,-4.2891,-4.6289,-4.6289,-4.6289,-4.6289,-4.6289,-4.6289,-4.6289,-4.6289,-4.6289,-4.6289,-4.6289,-4.6289,-4.6484,-4.8203,-4.8906,-4.9101,-5.0781,-5.1406,-5.1406,-6.1473,-6.3705,-6.5397,-6.3794,-6.482,-6.559,-6.4628,-6.5282,-6.5551,-6.4589,-6.532,-6.5897,-6.5897,-6.5897,0.0,-6.5897,-6.4436,-6.4205,-6.5782,-6.3897,-6.2897,-6.3269,-6.1281,-5.9358,-5.7665,0.0,0.0,-5.6857,-5.6279,-5.5017,-5.3097,-5.2248,-5.2752,-5.4328,-5.4276,-5.4684,-5.5364,-5.5235,-5.5635,-5.6293,-5.6169,-5.6125,-5.6198,-5.6207,-5.6158,-5.611,-5.6175,-5.5841,-5.5364,-5.53,-5.4968,-5.4486,-5.4089,-5.376,-5.3281,-5.199,-5.1464,-5.1254,-5.1174,-5.1233,-5.1254,-5.1171,-5.1235,-5.1252,-5.1171,-5.1148,-5.1113,-5.1147,-5.0491,-4.9689,-4.8913,-4.8072,-4.6712,-4.4212,0.0,-4.5312,-4.2539,0.0,0.0,0.0,0.0,0.0,0.0,-3.4531,0.0,0.0,0.0,0.0,0.0,0.0,0.0,-3.3828,-3.6641,0.0,-4.1914,-4.2266,-4.3711,-4.6289,-4.6289,-4.6289,-4.6289,-4.6289,-4.6289,-4.6289,-4.6289,-4.6289,-4.6289,-4.6289,-4.6289,-4.6484,-4.8203,-4.8906,-4.9101,-5.0781,-5.1406,-5.1406,-6.5397,-6.5667,0.0,0.0,-6.5782,0.0,-6.2716,-6.4359,-6.5051,-6.2678,-6.4436,-6.5897,-6.5897,-6.5897,-6.5897,-6.5897,0.0,0.0,0.0,-6.5743,-6.4974,-6.3474,-6.3166,0.0,-6.055,-6.055,-6.0627,-6.0781,-5.9165,-5.7934,-5.706,-5.6203,-5.5798,-5.5891,-5.574,-5.5861,-5.6141,-5.5836,-5.5879,-5.6164,-5.5986,-5.5907,-5.5939,-5.611,-5.6064,-5.5924,-5.611,-5.6164,-5.6141,-5.5963,-5.6029,-5.5993,-5.4901,-5.4713,-5.4519,-5.278,-5.174,-5.1167,-5.1118,-5.1084,-5.1089,-5.1079,-5.1079,-5.1079,-5.1079,-5.1069,-5.1069,-5.1074,-5.0451,-4.9596,-4.8681,-4.794,-4.717,-4.6238,-4.6161,-4.5586,-4.3789,0.0,0.0,0.0,0.0,0.0,0.0,-3.7031,-3.7578,0.0,0.0,0.0,0.0,0.0,-3.1797,-3.5039,-3.6914,-3.8984,-4.1445,-4.2266,-4.3906,-4.6289,-4.6289,-4.6289,-4.6289,-4.6289,-4.6289,-4.6289,-4.6289,-4.6289,-4.6289,-4.6289,-4.6328,-4.6562,-4.8242,-4.8945,-4.918,-5.0781,-5.1406,-5.1406,0.0,0.0,-6.5282,-6.3332,-6.4589,-6.5705,-6.5089,-6.5513,-6.5667,-6.5089,-6.5513,-6.5897,-6.5897,-6.5897,-6.5897,-6.5897,-6.414,-6.382,-6.5782,-6.4102,-6.3397,-6.4243,-6.1781,-5.9627,-5.7923,-5.7896,-5.8869,-6.0781,-5.9742,-5.8819,-5.7973,-5.7088,-5.6361,-5.5758,-5.5696,-5.5738,-5.5808,-5.5728,-5.5817,-5.5978,-5.5827,-5.5807,-5.5907,-5.5825,-5.5779,-5.573,-5.5798,-5.5817,-5.5808,-5.575,-5.5769,-5.576,-5.5514,-5.5026,-5.4262,-5.2647,-5.209,-5.1841,-5.1147,-5.1008,-5.1069,-5.0985,-5.0952,-5.0952,-5.0952,-5.0883,-5.0811,-5.0925,-5.0797,-5.0216,-4.8745,-4.8353,-4.7747,-4.6193,-4.5484,-4.4348,-4.1965,-4.0815,0.0,0.0,-3.7305,-3.8242,-3.7109,-3.9531,-4.0117,0.0,0.0,0.0,0.0,0.0,-3.8125,-3.9609,-4.1953,-4.3476,-4.4101,-4.4961,-4.5703,-4.6289,-4.6289,-4.6289,-4.6289,-4.6289,-4.6289,-4.6289,-4.6289,-4.6289,-4.6289,-4.6289,-4.668,-4.7383,-4.8476,-4.9297,-5.0,-5.1016,-5.1406,-5.1406,-6.205,-6.4012,-6.5474,-6.4102,-6.4974,-6.5897,-6.5897,-6.5897,-6.5897,-6.5897,-6.5897,-6.5897,-6.5897,-6.5897,-6.5897,-6.5897,-6.4628,-6.4397,-6.582,-6.4589,-6.4051,-6.4589,-6.2435,-6.0627,-5.9358,-5.8934,-5.9407,-6.0781,-5.9935,-5.9281,-5.8819,-5.7973,-5.7357,-5.6896,-5.6896,-5.6896,-5.6896,-5.6896,-5.6942,-5.6946,-5.6498,-5.6336,-5.6367,-5.5882,-5.5703,-5.5703,-5.5703,-5.5703,-5.5703,-5.5703,-5.5703,-5.5703,-5.5703,-5.5395,-5.4811,-5.356,-5.2677,-5.1927,-5.1051,-5.0867,-5.0889,-5.0819,-5.0825,-5.0825,-5.0825,-5.0767,-5.0712,-5.0799,-5.0825,-5.0433,-4.9153,-4.8651,-4.7845,-4.6141,-4.4577,-4.2811,-4.0663,-3.933,0.0,-3.7143,-3.8665,-3.9917,-4.0195,-4.2266,-4.2656,-4.0391,0.0,0.0,-4.0195,-4.0391,-4.1055,-4.2305,-4.4062,-4.5195,-4.5586,-4.6055,-4.6289,-4.6289,-4.6289,-4.6289,-4.6289,-4.6289,-4.6289,-4.6289,-4.6289,-4.6289,-4.6289,-4.6289,-4.6797,-4.7695,-4.8555,-4.9414,-5.0312,-5.1094,-5.1406,-5.1406,-6.5897,-6.5897,-6.5897,-6.5897,-6.5897,-6.5897,-6.5897,-6.5897,-6.5897,-6.5897,-6.5897,-6.5897,-6.5897,-6.5897,-6.5897,-6.5897,-6.5897,-6.5897,-6.5897,-6.5897,-6.5551,-6.482,-6.3974,-6.3166,-6.2486,-6.1512,-6.0935,-6.0781,-6.005,-5.9627,-5.9473,-5.8819,-5.8434,-5.8319,-5.8319,-5.8319,-5.8319,-5.8319,-5.8319,-5.8242,-5.7473,-5.7137,-5.6945,-5.6319,-5.6011,-5.5895,-5.5895,-5.5895,-5.5857,-5.5742,-5.5703,-5.5703,-5.5703,-5.5703,-5.5549,-5.4741,-5.3433,-5.2087,-5.1125,-5.0789,-5.0712,-5.0712,-5.0712,-5.0712,-5.0712,-5.0712,-5.0712,-5.0712,-5.0712,-5.0442,-4.9548,-4.8775,-4.7657,-4.5698,-4.3407,-4.1245,-3.942,0.0,-3.7984,-3.9568,-4.0196,-4.1342,-4.3631,-4.4531,-4.4766,-4.4141,-4.2656,0.0,0.0,-4.2656,-4.2578,-4.3867,-4.4726,-4.5547,-4.6289,-4.6289,-4.6289,-4.6289,-4.6289,-4.6289,-4.6289,-4.6289,-4.6289,-4.6289,-4.6289,-4.6289,-4.6328,-4.6445,-4.6992,-4.7891,-4.875,-4.9609,-5.0469,-5.1133,-5.1406,-5.1406,-6.5897,-6.5897,-6.5897,-6.5897,-6.5897,-6.5897,-6.5897,-6.5897,-6.5897,-6.5897,-6.5897,-6.5897,-6.5897,-6.5897,-6.5897,-6.5897,-6.5897,-6.5897,-6.5897,-6.5897,-6.582,-6.5705,-6.4859,-6.4359,-6.4205,-6.2666,-6.1562,-6.0781,-6.0666,-6.0204,-5.9511,-5.9358,-5.8934,-5.8319,-5.8319,-5.8319,-5.8319,-5.8319,-5.8319,-5.828,-5.8165,-5.7665,-5.706,-5.7665,-5.7434,-5.6791,-5.6791,-5.6791,-5.6676,-5.5934,-5.5703,-5.5703,-5.5703,-5.5703,-5.5549,-5.4741,-5.4318,-5.3741,-5.2164,-5.1202,-5.0712,-5.0712,-5.0712,-5.0712,-5.0712,-5.0712,-5.0712,-5.0712,-5.0712,-5.0442,-4.9548,-4.8691,-4.7139,-4.402,-4.206,-4.0079,0.0,0.0,-3.9275,-3.9501,-4.2187,-4.4179,-4.4577,-4.4838,-4.5234,-4.5859,-4.4961,-4.4531,-4.4766,-4.5234,-4.5273,-4.4805,-4.5625,-4.6172,-4.6289,-4.6289,-4.6289,-4.6289,-4.6289,-4.6289,-4.6289,-4.6289,-4.6289,-4.6289,-4.6289,-4.6289,-4.6367,-4.7109,-4.7891,-4.8789,-4.9648,-5.0508,-5.1211,-5.1367,-5.1406,-5.1406,-6.5897,-6.5897,-6.5897,-6.5897,-6.5897,-6.5897,-6.5897,-6.5897,-6.5897,-6.5897,-6.5897,-6.5897,-6.5897,-6.5897,-6.5897,-6.5897,-6.5897,-6.5897,-6.5897,-6.5897,-6.5897,-6.5897,-6.5051,-6.4397,-6.3897,-6.2704,-6.1908,-6.1512,-6.1012,-6.0589,-6.0204,-6.0204,-6.0012,-5.9665,-5.9665,-5.9665,-5.9665,-5.9665,-5.9665,-5.9627,-5.9127,-5.8704,-5.8319,-5.8319,-5.805,-5.7703,-5.7703,-5.7703,-5.755,-5.6703,-5.6406,-5.6329,-5.5857,-5.5703,-5.5626,-5.5241,-5.4511,-5.351,-5.2231,-5.1625,-5.1241,-5.0827,-5.0712,-5.0712,-5.0712,-5.0712,-5.0712,-5.0712,-5.0712,-5.0596,-5.0164,-4.9394,-4.8125,-4.6124,-4.3659,0.0,0.0,-3.9818,-4.0256,-4.078,-4.3107,-4.4861,-4.5458,-4.5563,-4.5774,-4.625,-4.5937,-4.5703,-4.5703,-4.6094,-4.6133,-4.5703,-4.6094,-4.6289,-4.6289,-4.6289,-4.6289,-4.6289,-4.6289,-4.6289,-4.6289,-4.6289,-4.6289,-4.6328,-4.6797,-4.6992,-4.707,-4.793,-4.8828,-4.9648,-5.0039,-5.0703,-5.1406,-5.1406,-5.1406,-5.1406,-6.5897,-6.5897,-6.5897,-6.5897,-6.5897,-6.5897,-6.5897,-6.5897,-6.5897,-6.5897,-6.5897,-6.5897,-6.5897,-6.5897,-6.5897,-6.5897,-6.5897,-6.5897,-6.5897,-6.5897,-6.5897,-6.5897,-6.5243,-6.4474,-6.3628,-6.3012,-6.2486,-6.2101,-6.1435,-6.1012,-6.0781,-6.0781,-6.0781,-6.0781,-6.0781,-6.0781,-6.0781,-6.0781,-6.0781,-6.0742,-6.0089,-5.9665,-5.9435,-5.905,-5.8781,-5.8588,-5.8588,-5.8588,-5.8434,-5.7588,-5.7291,-5.7137,-5.628,-5.6011,-5.5972,-5.5742,-5.478,-5.351,-5.2231,-5.1885,-5.1692,-5.0894,-5.0712,-5.0712,-5.0712,-5.0712,-5.0712,-5.0712,-5.0712,-5.0712,-5.0712,-4.9971,-4.8971,-4.7702,0.0,0.0,0.0,-4.1393,-4.1462,-4.2421,-4.3866,-4.5143,-4.5949,-4.6056,-4.6087,-4.62,-4.6202,-4.6204,-4.6247,-4.6248,-4.6288,-4.6289,-4.6289,-4.6289,-4.6289,-4.6289,-4.6289,-4.6289,-4.6289,-4.6289,-4.6328,-4.6523,-4.6484,-4.6367,-4.7422,-4.7773,-4.7695,-4.875,-4.9609,-5.0234,-5.0391,-5.0859,-5.1406,-5.1406,-5.1406,-5.1406,-6.5897,-6.5897,-6.5897,-6.5897,-6.5897,-6.5897,-6.5897,-6.5897,-6.5897,-6.5897,-6.5897,-6.5897,-6.5897,-6.5897,-6.5897,-6.5897,-6.5897,-6.5897,-6.5897,-6.5897,-6.5897,-6.5897,-6.582,-6.5397,-6.4512,-6.4436,-6.3666,-6.2101,-6.2062,-6.1601,-6.0781,-6.0781,-6.0781,-6.0781,-6.0781,-6.0781,-6.0781,-6.0781,-6.0781,-6.0781,-6.0742,-6.0204,-5.9588,-6.0319,-6.0127,-5.9396,-5.9396,-5.9396,-5.9281,-5.8473,-5.8204,-5.805,-5.7176,-5.6907,-5.6753,-5.5934,-5.5588,-5.4972,-5.2538,-5.1885,-5.1692,-5.0894,-5.0712,-5.0712,-5.0712,-5.0712,-5.0712,-5.0712,-5.0712,-5.0712,-5.0712,-4.9971,-4.8625,-4.6172,0.0,0.0,-4.2038,-4.2431,-4.3209,-4.4034,-4.5061,-4.5751,-4.5815,-4.5867,-4.5935,-4.5944,-4.5944,-4.5985,-4.6093,-4.6095,-4.6155,-4.6289,-4.6289,-4.6289,-4.6289,-4.6289,-4.6289,-4.6289,-4.6289,-4.6289,-4.6328,-4.7148,-4.707,-4.6406,-4.8086,-4.8359,-4.7734,-4.9414,-5.0156,-5.0273,-5.1016,-5.1367,-5.1406,-5.1406,-5.1406,-5.1406,-6.5897,-6.5897,-6.5897,-6.5897,-6.5897,-6.5897,-6.5897,-6.5897,-6.5897,-6.5897,-6.5897,-6.5897,-6.5897,-6.5897,-6.5897,-6.5897,-6.5897,-6.5897,-6.5897,-6.5897,-6.5897,-6.5897,-6.5897,-6.5743,-6.5397,-6.4897,-6.4282,-6.3666,-6.2601,-6.1947,-6.1601,-6.105,-6.0781,-6.0781,-6.0781,-6.0781,-6.0781,-6.0781,-6.0781,-6.0781,-6.0781,-6.0589,-6.0319,-6.0666,-6.0589,-6.0319,-6.0319,-6.0319,-6.0165,-5.9319,-5.905,-5.8896,-5.8088,-5.7819,-5.7627,-5.6753,-5.6126,-5.5395,-5.3895,-5.3126,-5.251,-5.1664,-5.1087,-5.0712,-5.0712,-5.0712,-5.0712,-5.0712,-5.0712,-5.0712,-5.0712,-5.0442,-4.9904,-4.8903,0.0,-4.724,-4.6586,-4.6317,-4.6317,-4.6624,-4.7011,-4.7032,-4.657,-4.6564,-4.6408,-4.5914,-4.5879,-4.5939,-4.5978,-4.6067,-4.6138,-4.6155,-4.6248,-4.6289,-4.6289,-4.6289,-4.6289,-4.6289,-4.6289,-4.6289,-4.6328,-4.6641,-4.6914,-4.7187,-4.8398,-4.9023,-4.9297,-5.0469,-5.0937,-5.0976,-5.1289,-5.1406,-5.1406,-5.1406,-5.1406,-5.1406,-6.5897,-6.5897,-6.5897,-6.5897,-6.5897,-6.5897,-6.5897,-6.5897,-6.5897,-6.5897,-6.5897,-6.5897,-6.5897,-6.5897,-6.5897,-6.5897,-6.5897,-6.5897,-6.5897,-6.5897,-6.5897,-6.5897,-6.5897,-6.5897,-6.5897,-6.532,-6.4859,-6.4589,-6.3435,-6.2743,-6.2474,-6.1589,-6.1204,-6.1204,-6.0935,-6.0781,-6.0781,-6.0781,-6.0781,-6.0781,-6.0781,-6.0781,-6.0781,-6.0781,-6.0781,-6.0781,-6.0781,-6.0781,-6.0704,-6.0127,-5.9896,-5.9742,-5.8934,-5.8511,-5.8127,-5.7253,-5.6599,-5.5934,-5.5088,-5.4241,-5.3318,-5.2192,-5.151,-5.101,-5.075,-5.0712,-5.0712,-5.0712,-5.0712,-5.0712,-5.0712,-5.0712,-5.0712,-5.0712,-5.0212,-4.9702,-4.9433,-4.8894,-4.8394,-4.8125,-4.8086,-4.791,-4.7403,-4.7341,-4.7045,-4.6284,-4.6213,-4.6236,-4.624,-4.6126,-4.629,-4.6833,-4.6683,-4.67,-4.697,-4.6521,-4.6445,-4.6719,-4.6719,-4.6836,-4.7148,-4.7383,-4.7695,-4.8086,-4.9219,-4.9883,-5.0273,-5.1055,-5.1406,-5.1406,-5.1406,-5.1406,-5.1406,-5.1406,-5.1406,-5.1406,-6.5897,-6.5897,-6.5897,-6.5897,-6.5897,-6.5897,-6.5897,-6.5897,-6.5897,-6.5897,-6.5897,-6.5897,-6.5897,-6.5897,-6.5897,-6.5897,-6.5897,-6.5897,-6.5897,-6.5897,-6.5897,-6.5897,-6.5897,-6.5897,-6.5897,-6.5897,-6.5474,-6.4628,-6.4589,-6.4166,-6.3269,-6.2474,-6.2101,-6.2062,-6.1204,-6.0819,-6.0781,-6.0781,-6.0781,-6.0781,-6.0781,-6.0781,-6.0781,-6.0781,-6.0781,-6.0781,-6.0781,-6.0781,-6.0781,-6.0781,-6.0781,-6.0666,-5.9781,-5.8973,-5.8127,-5.7291,-5.7022,-5.683,-5.5934,-5.5126,-5.4087,-5.2346,-5.1923,-5.1692,-5.0894,-5.0712,-5.0712,-5.0712,-5.0712,-5.0712,-5.0712,-5.0712,-5.0712,-5.0712,-5.0712,-5.0404,-4.951,-4.9394,-4.9086,-4.824,-4.8125,-4.8125,-4.8125,-4.8125,-4.7778,-4.6962,-4.6923,-4.6951,-4.7027,-4.6307,-4.6726,-4.8424,-4.7655,-4.7621,-4.8502,-4.7045,-4.6758,-4.7617,-4.7617,-4.8047,-4.8945,-4.9805,-4.9726,-4.8984,-5.0664,-5.0937,-5.0273,-5.1055,-5.1406,-5.1406,-5.1406,-5.1406,-5.1406,-5.1406,-5.1406,-5.1406,-6.5897,-6.5897,-6.5897,-6.5897,-6.5897,-6.5897,-6.5897,-6.5897,-6.5897,-6.5897,-6.5897,-6.5897,-6.5897,-6.5897,-6.5897,-6.5897,-6.5897,-6.5897,-6.5897,-6.5897,-6.5897,-6.5897,-6.5897,-6.5897,-6.5897,-6.5897,-6.5782,-6.5513,-6.4897,-6.4474,-6.4205,-6.3358,-6.2627,-6.2101,-6.1831,-6.1358,-6.0781,-6.0781,-6.0781,-6.0781,-6.0781,-6.0781,-6.0781,-6.0781,-6.0781,-6.0781,-6.0781,-6.0781,-6.0781,-6.0781,-6.0781,-6.0742,-6.0473,-5.9819,-5.9088,-5.8819,-5.7907,-5.6945,-5.6676,-5.5972,-5.5088,-5.401,-5.328,-5.2587,-5.1741,-5.1548,-5.1395,-5.0827,-5.0712,-5.0712,-5.0712,-5.0712,-5.0712,-5.0712,-5.0712,-5.0596,-5.0366,-5.0327,-5.0212,-4.9971,-4.9933,-4.9663,-4.9086,-4.9009,-4.8663,-4.7817,-4.774,-4.7767,-4.7752,-4.7639,-4.7811,-4.8354,-4.8188,-4.8234,-4.8502,-4.8067,-4.7983,-4.8217,-4.8316,-4.8491,-4.8766,-4.9138,-4.9492,-4.9844,-5.0351,-5.0742,-5.1055,-5.1289,-5.1406,-5.1406,-5.1406,-5.1406,-5.1406,-5.1406,-5.1406,-5.1406,-6.5897,-6.5897,-6.5897,-6.5897,-6.5897,-6.5897,-6.5897,-6.5897,-6.5897,-6.5897,-6.5897,-6.5897,-6.5897,-6.5897,-6.5897,-6.5897,-6.5897,-6.5897,-6.5897,-6.5897,-6.5897,-6.5897,-6.5897,-6.5897,-6.5897,-6.5897,-6.5897,-6.5897,-6.5359,-6.5128,-6.5089,-6.4205,-6.3551,-6.3051,-6.2743,-6.2281,-6.1781,-6.1781,-6.1781,-6.1781,-6.1781,-6.1781,-6.1781,-6.1781,-6.1589,-6.132,-6.132,-6.1089,-6.0781,-6.0781,-6.0781,-6.0781,-6.0781,-6.0435,-5.9935,-5.9588,-5.8781,-5.7819,-5.7176,-5.6637,-5.6011,-5.5164,-5.4357,-5.351,-5.2615,-5.2154,-5.1769,-5.1279,-5.0933,-5.0712,-5.0712,-5.0712,-5.0712,-5.0712,-5.0712,-5.0712,-5.0712,-5.0712,-5.0712,-5.0712,-5.0712,-5.0481,-4.9971,-4.9894,-4.9548,-4.8663,-4.8279,-4.824,-4.8586,-4.8364,-4.8546,-4.9241,-4.9009,-4.9026,-4.9374,-4.9374,-4.9245,-4.9012,-4.9091,-4.9334,-4.9679,-4.9788,-5.0114,-5.0664,-5.0664,-5.0937,-5.1406,-5.1406,-5.1406,-5.1406,-5.1406,-5.1406,-5.1406,-5.1406,-5.1406,-5.1406,-6.5897,-6.5897,-6.5897,-6.5897,-6.5897,-6.5897,-6.5897,-6.5897,-6.5897,-6.5897,-6.5897,-6.5897,-6.5897,-6.5897,-6.5897,-6.5897,-6.5897,-6.5897,-6.5897,-6.5897,-6.5897,-6.5897,-6.5897,-6.5897,-6.5897,-6.5897,-6.5897,-6.5897,-6.5897,-6.5897,-6.5859,-6.5089,-6.4666,-6.4589,-6.3782,-6.3346,-6.3308,-6.3308,-6.3308,-6.3308,-6.3308,-6.3308,-6.3308,-6.3308,-6.2858,-6.2216,-6.2139,-6.1601,-6.0896,-6.0819,-6.0781,-6.0781,-6.0781,-6.0781,-6.0627,-5.9858,-5.955,-5.9165,-5.7638,-5.7099,-5.683,-5.6011,-5.5203,-5.4395,-5.351,-5.2654,-5.2,-5.1923,-5.1279,-5.0712,-5.0712,-5.0712,-5.0712,-5.0712,-5.0712,-5.0712,-5.0712,-5.0712,-5.0712,-5.0712,-5.0712,-5.0712,-5.0712,-5.0712,-5.0366,-4.9586,-4.8779,-4.8663,-4.9471,-4.8779,-4.9048,-5.0635,-4.9933,-4.9894,-5.0712,-5.0712,-5.0417,-4.9876,-4.9892,-5.0352,-5.1183,-5.1191,-5.1261,-5.1366,-5.1366,-5.1367,-5.1367,-5.1406,-5.1406,-5.1406,-5.1406,-5.1406,-5.1406,-5.1406,-5.1406,-5.1406,-6.5897,-6.5897,-6.5897,-6.5897,-6.5897,-6.5897,-6.5897,-6.5897,-6.5897,-6.5897,-6.5897,-6.5897,-6.5897,-6.5897,-6.5897,-6.5897,-6.5897,-6.5897,-6.5897,-6.5897,-6.5897,-6.5897,-6.5897,-6.5897,-6.5897,-6.5897,-6.5897,-6.5897,-6.5897,-6.5897,-6.5897,-6.5705,-6.5243,-6.4589,-6.4397,-6.3935,-6.3308,-6.3308,-6.3308,-6.3308,-6.3308,-6.3308,-6.3308,-6.3308,-6.3205,-6.2974,-6.232,-6.1985,-6.1716,-6.1012,-6.0781,-6.0781,-6.0781,-6.0781,-6.0742,-6.055,-6.0012,-5.9435,-5.905,-5.8011,-5.6945,-5.6791,-5.6049,-5.5241,-5.4395,-5.3549,-5.2731,-5.2038,-5.1279,-5.0712,-5.0712,-5.0712,-5.0712,-5.0712,-5.0712,-5.0712,-5.0712,-5.0712,-5.0712,-5.0712,-5.0712,-5.0712,-5.0712,-5.0712,-5.0635,-5.0442,-5.025,-5.0212,-5.0404,-5.025,-5.0327,-5.0712,-5.0519,-5.0519,-5.0712,-5.0712,-5.0644,-5.0512,-5.0603,-5.0772,-5.0972,-5.1089,-5.1148,-5.1172,-5.1201,-5.1221,-5.1263,-5.1365,-5.1406,-5.1406,-5.1406,-5.1406,-5.1406,-5.1406,-5.1406,-5.1406,-6.5897,-6.5897,-6.5897,-6.5897,-6.5897,-6.5897,-6.5897,-6.5897,-6.5897,-6.5897,-6.5897,-6.5897,-6.5897,-6.5897,-6.5897,-6.5897,-6.5897,-6.5897,-6.5897,-6.5897,-6.5897,-6.5897,-6.5897,-6.5897,-6.5897,-6.5897,-6.5897,-6.5897,-6.5897,-6.5897,-6.5897,-6.5897,-6.5667,-6.5205,-6.5205,-6.4974,-6.4551,-6.4551,-6.4551,-6.4551,-6.4551,-6.4551,-6.4551,-6.4551,-6.4282,-6.3858,-6.3435,-6.3012,-6.2551,-6.1704,-6.1396,-6.137,-6.0935,-6.0781,-6.0781,-6.0781,-6.0473,-6.0012,-5.9627,-5.8858,-5.8011,-5.7214,-5.6676,-5.6099,-5.5241,-5.4434,-5.3703,-5.3241,-5.2125,-5.1279,-5.1279,-5.0971,-5.0712,-5.0712,-5.0712,-5.0712,-5.0712,-5.0712,-5.0712,-5.0712,-5.0712,-5.0712,-5.0712,-5.0712,-5.0712,-5.0712,-5.0712,-5.0712,-5.0712,-5.0712,-5.0712,-5.0712,-5.0712,-5.0712,-5.0712,-5.0712,-5.0712,-5.0712,-5.0764,-5.0835,-5.0889,-5.0985,-5.1031,-5.1094,-5.116,-5.1144,-5.1151,-5.1261,-5.1307,-5.1288,-5.1364,-5.1365,-5.1319,-5.1366,-5.1406,-5.1406,-6.5897,-6.5897,-6.5897,-6.5897,-6.5897,-6.5897,-6.5897,-6.5897,-6.5897,-6.5897,-6.5897,-6.5897,-6.5897,-6.5897,-6.5897,-6.5897,-6.5897,-6.5897,-6.5897,-6.5897,-6.5897,-6.5897,-6.5897,-6.5897,-6.5897,-6.5897,-6.5897,-6.5897,-6.5897,-6.5897,-6.5897,-6.5897,-6.5897,-6.5897,-6.5897,-6.5897,-6.5897,-6.5897,-6.5897,-6.5897,-6.5897,-6.5897,-6.5897,-6.5897,-6.5436,-6.4782,-6.4666,-6.4051,-6.3205,-6.2512,-6.2216,-6.1985,-6.1243,-6.0935,-6.0781,-6.0781,-6.0781,-6.0627,-5.9935,-5.9627,-5.9165,-5.7791,-5.7214,-5.683,-5.6088,-5.5164,-5.4511,-5.4511,-5.3126,-5.1885,-5.1885,-5.1241,-5.0712,-5.0712,-5.0712,-5.0712,-5.0712,-5.0712,-5.0712,-5.0712,-5.0712,-5.0712,-5.0712,-5.0712,-5.0712,-5.0712,-5.0712,-5.0712,-5.0712,-5.0712,-5.0712,-5.0712,-5.0712,-5.0712,-5.0712,-5.0712,-5.0712,-5.0712,-5.0712,-5.0776,-5.0875,-5.0875,-5.0925,-5.102,-5.1047,-5.1058,-5.1069,-5.1147,-5.114,-5.1113,-5.1299,-5.1267,-5.1191,-5.1313,-5.1361,-5.1362,-6.5897,-6.5897,-6.5897,-6.5897,-6.5897,-6.5897,-6.5897,-6.5897,-6.5897,-6.5897,-6.5897,-6.5897,-6.5897,-6.5897,-6.5897,-6.5897,-6.5897,-6.5897,-6.5897,-6.5897,-6.5897,-6.5897,-6.5897,-6.5897,-6.5897,-6.5897,-6.5897,-6.5897,-6.5897,-6.5897,-6.5897,-6.5897,-6.5897,-6.5897,-6.5897,-6.5897,-6.5897,-6.5897,-6.5897,-6.5897,-6.5897,-6.5897,-6.5897,-6.5897,-6.582,-6.5628,-6.4859,-6.4051,-6.3269,-6.3166,-6.2666,-6.2101,-6.1947,-6.1408,-6.0781,-6.0781,-6.0781,-6.0781,-6.0666,-6.0089,-5.9435,-5.9204,-5.805,-5.6983,-5.6868,-5.5626,-5.4511,-5.4511,-5.3126,-5.1885,-5.1885,-5.1241,-5.0712,-5.0712,-5.0712,-5.0712,-5.0712,-5.0712,-5.0712,-5.0712,-5.0712,-5.0712,-5.0712,-5.0712,-5.0712,-5.0712,-5.0712,-5.0712,-5.0712,-5.0712,-5.0712,-5.0712,-5.0712,-5.0712,-5.0712,-5.0712,-5.0712,-5.0712,-5.0712,-5.0731,-5.0721,-5.0721,-5.074,-5.0747,-5.089,-5.0925,-5.0939,-5.1063,-5.1108,-5.1094,-5.1131,-5.1131,-5.1117,-5.1135,-5.1139,-5.1156,-6.5897,-6.5897,-6.5897,-6.5897,-6.5897,-6.5897,-6.5897,-6.5897,-6.5897,-6.5897,-6.5897,-6.5897,-6.5897,-6.5897,-6.5897,-6.5897,-6.5897,-6.5897,-6.5897,-6.5897,-6.5897,-6.5897,-6.5897,-6.5897,-6.5897,-6.5897,-6.5897,-6.5897,-6.5897,-6.5897,-6.5897,-6.5897,-6.5897,-6.5897,-6.5897,-6.5897,-6.5897,-6.5897,-6.5897,-6.5897,-6.5897,-6.5897,-6.5897,-6.5897,-6.5897,-6.5859,-6.5474,-6.5089,-6.4666,-6.4205,-6.3782,-6.3397,-6.2935,-6.2204,-6.1524,-6.1524,-6.1166,-6.0781,-6.0781,-6.0512,-6.0127,-5.9627,-5.8934,-5.8165,-5.7214,-5.6445,-5.5742,-5.528,-5.4203,-5.3356,-5.3356,-5.2279,-5.1356,-5.1356,-5.0971,-5.0712,-5.0712,-5.0712,-5.0712,-5.0712,-5.0712,-5.0712,-5.0712,-5.0712,-5.0712,-5.0712,-5.0712,-5.0712,-5.0712,-5.0712,-5.0712,-5.0712,-5.0712,-5.0712,-5.0712,-5.0712,-5.0712,-5.0712,-5.0712,-5.0712,-5.0712,-5.0712,-5.0712,-5.0712,-5.0747,-5.0791,-5.0808,-5.0939,-5.0952,-5.0874,-5.1031,-5.1089,-5.1089,-5.1089,-5.1089,-5.1099]},{"header":{"parameterUnit":"m.s-1","parameterCategory":1,"la1":30.6,"la2":28.766,"lo1":-90.7593,"lo2":-88.6598,"dy":0.0162,"dx":0.0183,"nx":116,"ny":114,"refTime":"2024-05-21T12:00:00:Z","depth":0,"parameterNumber":3,"parameterNumberName":"V-component_of_WINDS"},"data":[0.0,0.0,0.0,0.0,0.0,0.0,0.0,0.0,0.0,0.0,0.0,0.0,0.0,0.0,0.0,0.0,0.0,0.0,0.0,0.0,0.0,0.0,0.0,0.0,0.0,0.0,0.0,0.0,0.0,0.0,0.0,0.0,0.0,0.0,0.0,0.0,0.0,0.0,0.0,0.0,0.0,0.0,0.0,0.0,0.0,0.0,0.0,0.0,0.0,0.0,0.0,0.0,0.0,0.0,0.0,0.0,0.0,0.0,0.0,0.0,0.0,0.0,0.0,0.0,0.0,0.0,0.0,0.0,0.0,0.0,0.0,0.0,0.0,0.0,0.0,0.0,0.0,0.0,0.0,0.0,0.0,0.0,0.0,0.0,0.0,0.0,0.0,0.0,0.0,0.0,0.0,0.0,0.0,0.0,0.0,0.0,0.0,0.0,0.0,0.0,0.0,0.0,0.0,0.0,0.0,0.0,0.0,0.0,0.0,0.0,0.0,0.0,0.0,0.0,0.0,0.0,0.0,0.0,0.0,0.0,0.0,0.0,0.0,0.0,0.0,0.0,0.0,0.0,0.0,0.0,0.0,0.0,0.0,0.0,0.0,0.0,0.0,0.0,0.0,0.0,0.0,0.0,0.0,0.0,0.0,0.0,0.0,0.0,0.0,0.0,0.0,0.0,0.0,0.0,0.0,0.0,0.0,0.0,0.0,0.0,0.0,0.0,0.0,0.0,0.0,0.0,0.0,0.0,0.0,0.0,0.0,0.0,0.0,0.0,0.0,0.0,0.0,0.0,0.0,0.0,0.0,0.0,0.0,0.0,0.0,0.0,0.0,0.0,0.0,0.0,0.0,0.0,0.0,0.0,0.0,0.0,0.0,0.0,0.0,0.0,0.0,0.0,0.0,0.0,0.0,0.0,0.0,0.0,0.0,0.0,0.0,0.0,0.0,0.0,0.0,0.0,0.0,0.0,0.0,0.0,0.0,0.0,0.0,0.0,0.0,0.0,0.0,0.0,0.0,0.0,0.0,0.0,0.0,0.0,0.0,0.0,0.0,0.0,0.0,0.0,0.0,0.0,0.0,0.0,0.0,0.0,0.0,0.0,0.0,0.0,0.0,0.0,0.0,0.0,0.0,0.0,0.0,0.0,0.0,0.0,0.0,0.0,0.0,0.0,0.0,0.0,0.0,0.0,0.0,0.0,0.0,0.0,0.0,0.0,0.0,0.0,0.0,0.0,0.0,0.0,0.0,0.0,0.0,0.0,0.0,0.0,0.0,0.0,0.0,0.0,0.0,0.0,0.0,0.0,0.0,0.0,0.0,0.0,0.0,0.0,0.0,0.0,0.0,0.0,0.0,0.0,0.0,0.0,0.0,0.0,0.0,0.0,0.0,0.0,0.0,0.0,0.0,0.0,0.0,0.0,0.0,0.0,0.0,0.0,0.0,0.0,0.0,0.0,0.0,0.0,0.0,0.0,0.0,0.0,0.0,0.0,0.0,0.0,0.0,0.0,0.0,0.0,0.0,0.0,0.0,0.0,0.0,0.0,0.0,0.0,0.0,0.0,0.0,0.0,0.0,0.0,0.0,0.0,0.0,0.0,0.0,0.0,0.0,0.0,0.0,0.0,0.0,0.0,0.0,0.0,0.0,0.0,0.0,0.0,0.0,0.0,0.0,0.0,0.0,0.0,0.0,0.0,0.0,0.0,0.0,0.0,0.0,0.0,0.0,0.0,0.0,0.0,0.0,0.0,0.0,0.0,0.0,0.0,0.0,0.0,0.0,0.0,0.0,0.0,0.0,0.0,0.0,0.0,0.0,0.0,0.0,0.0,0.0,0.0,0.0,0.0,0.0,0.0,0.0,0.0,0.0,0.0,0.0,0.0,0.0,0.0,0.0,0.0,0.0,0.0,0.0,0.0,0.0,0.0,0.0,0.0,0.0,0.0,0.0,0.0,0.0,0.0,0.0,0.0,0.0,0.0,0.0,0.0,0.0,0.0,0.0,0.0,0.0,0.0,0.0,0.0,0.0,0.0,0.0,0.0,0.0,0.0,0.0,0.0,0.0,0.0,0.0,0.0,0.0,0.0,0.0,0.0,0.0,0.0,0.0,0.0,0.0,0.0,0.0,0.0,0.0,0.0,0.0,0.0,0.0,0.0,0.0,0.0,0.0,0.0,0.0,0.0,0.0,0.0,0.0,0.0,0.0,0.0,0.0,0.0,0.0,0.0,0.0,0.0,0.0,0.0,0.0,0.0,0.0,0.0,0.0,0.0,0.0,0.0,0.0,0.0,0.0,0.0,0.0,0.0,0.0,0.0,0.0,0.0,0.0,0.0,0.0,0.0,0.0,0.0,0.0,0.0,0.0,0.0,0.0,0.0,0.0,0.0,0.0,0.0,0.0,0.0,0.0,0.0,0.0,0.0,0.0,0.0,0.0,0.0,0.0,0.0,0.0,0.0,0.0,0.0,0.0,0.0,0.0,0.0,0.0,0.0,0.0,0.0,0.0,0.0,0.0,0.0,0.0,0.0,0.0,0.0,0.0,0.0,0.0,0.0,0.0,0.0,0.0,0.0,0.0,0.0,0.0,0.0,0.0,0.0,0.0,0.0,0.0,0.0,0.0,0.0,0.0,0.0,0.0,0.0,0.0,0.0,0.0,0.0,0.0,0.0,0.0,0.0,0.0,0.0,0.0,0.0,0.0,0.0,0.0,0.0,0.0,0.0,0.0,0.0,0.0,0.0,0.0,0.0,0.0,0.0,0.0,0.0,0.0,0.0,0.0,0.0,0.0,0.0,0.0,0.0,0.0,0.0,0.0,0.0,0.0,0.0,0.0,0.0,0.0,0.0,0.0,0.0,0.0,0.0,0.0,0.0,0.0,0.0,0.0,0.0,0.0,0.0,0.0,0.0,0.0,0.0,0.0,0.0,0.0,0.0,0.0,0.0,0.0,0.0,0.0,0.0,0.0,0.0,0.0,0.0,0.0,0.0,0.0,0.0,0.0,0.0,0.0,0.0,0.0,0.0,0.0,0.0,0.0,0.0,0.0,0.0,0.0,0.0,0.0,0.0,0.0,0.0,0.0,0.0,0.0,0.0,0.0,0.0,0.0,0.0,0.0,0.0,0.0,0.0,0.0,0.0,0.0,0.0,0.0,0.0,0.0,0.0,0.0,0.0,0.0,0.0,0.0,0.0,0.0,0.0,0.0,0.0,0.0,0.0,0.0,0.0,0.0,0.0,0.0,0.0,0.0,0.0,0.0,0.0,0.0,0.0,0.0,0.0,0.0,0.0,0.0,0.0,0.0,0.0,0.0,0.0,0.0,0.0,0.0,0.0,0.0,0.0,0.0,0.0,0.0,0.0,0.0,0.0,0.0,0.0,0.0,0.0,0.0,0.0,0.0,0.0,0.0,0.0,0.0,0.0,0.0,0.0,0.0,0.0,0.0,0.0,0.0,0.0,0.0,0.0,0.0,0.0,0.0,0.0,0.0,0.0,0.0,0.0,0.0,0.0,0.0,0.0,0.0,0.0,0.0,0.0,0.0,0.0,0.0,0.0,0.0,0.0,0.0,0.0,0.0,0.0,0.0,0.0,0.0,0.0,0.0,0.0,0.0,0.0,0.0,0.0,0.0,0.0,0.0,0.0,0.0,0.0,0.0,0.0,0.0,0.0,0.0,0.0,0.0,0.0,0.0,0.0,0.0,0.0,0.0,0.0,0.0,0.0,0.0,0.0,0.0,0.0,0.0,0.0,0.0,0.0,0.0,0.0,0.0,0.0,0.0,0.0,0.0,0.0,0.0,0.0,0.0,0.0,0.0,0.0,0.0,0.0,0.0,0.0,0.0,0.0,0.0,0.0,0.0,0.0,0.0,0.0,0.0,0.0,0.0,0.0,0.0,0.0,0.0,0.0,0.0,0.0,0.0,0.0,0.0,0.0,0.0,0.0,0.0,0.0,0.0,0.0,0.0,0.0,0.0,0.0,0.0,0.0,0.0,0.0,0.0,0.0,0.0,0.0,0.0,0.0,0.0,0.0,0.0,0.0,0.0,0.0,0.0,0.0,0.0,0.0,0.0,0.0,0.0,0.0,0.0,0.0,0.0,0.0,0.0,0.0,0.0,0.0,0.0,0.0,0.0,0.0,0.0,0.0,0.0,0.0,0.0,0.0,0.0,0.0,0.0,0.0,0.0,0.0,0.0,0.0,0.0,0.0,0.0,0.0,0.0,0.0,0.0,0.0,0.0,0.0,0.0,0.0,0.0,0.0,0.0,0.0,0.0,0.0,0.0,0.0,0.0,0.0,0.0,0.0,0.0,0.0,0.0,0.0,0.0,0.0,0.0,0.0,0.0,0.0,0.0,0.0,0.0,0.0,0.0,0.0,0.0,0.0,0.0,0.0,0.0,0.0,0.0,0.0,0.0,0.0,0.0,0.0,0.0,0.0,0.0,0.0,0.0,0.0,0.0,0.0,0.0,0.0,0.0,0.0,0.0,0.0,0.0,0.0,0.0,0.0,0.0,0.0,0.0,0.0,0.0,0.0,0.0,0.0,0.0,0.0,0.0,0.0,0.0,0.0,0.0,0.0,0.0,0.0,0.0,0.0,0.0,0.0,0.0,0.0,0.0,0.0,0.0,0.0,0.0,0.0,0.0,0.0,0.0,0.0,0.0,0.0,0.0,0.0,0.0,0.0,0.0,0.0,0.0,0.0,0.0,0.0,0.0,0.0,0.0,0.0,0.0,0.0,0.0,0.0,0.0,0.0,0.0,0.0,0.0,0.0,0.0,0.0,0.0,0.0,0.0,0.0,0.0,0.0,0.0,0.0,0.0,0.0,0.0,0.0,0.0,0.0,0.0,0.0,0.0,0.0,0.0,0.0,0.0,0.0,0.0,0.0,0.0,0.0,0.0,0.0,0.0,0.0,0.0,0.0,0.0,0.0,0.0,0.0,0.0,0.0,0.0,0.0,0.0,0.0,0.0,0.0,0.0,0.0,0.0,0.0,0.0,0.0,0.0,0.0,0.0,0.0,0.0,0.0,0.0,0.0,0.0,0.0,0.0,0.0,0.0,0.0,0.0,0.0,0.0,0.0,0.0,0.0,0.0,0.0,0.0,0.0,0.0,0.0,0.0,0.0,0.0,0.0,0.0,0.0,0.0,0.0,0.0,0.0,0.0,0.0,0.0,0.0,0.0,0.0,0.0,0.0,0.0,0.0,0.0,0.0,0.0,0.0,0.0,0.0,0.0,0.0,0.0,0.0,0.0,0.0,0.0,0.0,0.0,0.0,0.0,0.0,0.0,0.0,0.0,0.0,0.0,0.0,0.0,0.0,0.0,0.0,0.0,0.0,0.0,0.0,0.0,0.0,0.0,0.0,0.0,0.0,0.0,0.0,0.0,0.0,0.0,0.0,0.0,0.0,0.0,0.0,0.0,0.0,0.0,0.0,0.0,0.0,0.0,0.0,0.0,0.0,0.0,0.0,0.0,0.0,0.0,0.0,0.0,0.0,0.0,0.0,0.0,0.0,0.0,0.0,0.0,0.0,0.0,0.0,0.0,0.0,0.0,0.0,0.0,0.0,0.0,0.0,0.0,0.0,0.0,0.0,0.0,0.0,0.0,0.0,0.0,0.0,0.0,0.0,0.0,0.0,0.0,0.0,0.0,0.0,0.0,0.0,0.0,0.0,0.0,0.0,0.0,0.0,0.0,0.0,0.0,0.0,0.0,0.0,0.0,0.0,0.0,0.0,0.0,0.0,0.0,0.0,0.0,0.0,0.0,0.0,0.0,0.0,0.0,0.0,0.0,0.0,0.0,0.0,0.0,0.0,0.0,0.0,0.0,0.0,0.0,0.0,0.0,0.0,0.0,0.0,0.0,0.0,0.0,0.0,0.0,0.0,0.0,0.0,0.0,0.0,0.0,0.0,0.0,0.0,0.0,0.0,0.0,0.0,0.0,0.0,0.0,0.0,0.0,0.0,0.0,0.0,0.0,0.0,0.0,0.0,0.0,0.0,0.0,0.0,0.0,0.0,0.0,0.0,0.0,0.0,0.0,0.0,0.0,0.0,0.0,0.0,0.0,0.0,0.0,0.0,0.0,0.0,0.0,0.0,0.0,0.0,-0.7392,0.0,0.0,0.0,0.0,0.0,0.0,0.0,0.0,0.0,0.0,0.0,0.0,0.0,0.0,0.0,0.0,0.0,0.0,0.0,0.0,0.0,0.0,0.0,0.0,0.0,0.0,0.0,0.0,0.0,0.0,0.0,0.0,0.0,0.0,0.0,0.0,0.0,0.0,0.0,0.0,0.0,0.0,0.0,0.0,0.0,0.0,0.0,0.0,0.0,0.0,0.0,0.0,0.0,0.0,0.0,0.0,0.0,0.0,0.0,0.0,0.0,0.0,0.0,0.0,0.0,0.0,0.0,0.0,0.0,0.0,0.0,0.0,0.0,0.0,0.0,0.0,0.0,0.0,0.0,0.0,0.0,0.0,0.0,0.0,0.0,0.0,0.0,0.0,0.0,0.0,0.0,0.0,0.0,0.0,0.0,0.0,0.0,0.0,0.0,0.0,0.0,0.0,0.0,0.0,0.0,0.0,0.0,0.0,0.0,0.0,0.0,0.0,0.0,0.0,0.0,0.0,-0.7986,0.0,0.0,0.0,0.0,0.0,0.0,0.0,0.0,0.0,0.0,0.0,0.0,0.0,0.0,0.0,0.0,0.0,0.0,0.0,0.0,0.0,-0.0552,-0.0057,0.0,0.0,0.0,0.0,0.0,0.0,0.0,0.0,0.0,0.0,0.0,0.0,0.0,0.0,0.0,0.0,0.0,0.0,0.0,0.0,0.0,0.0,0.0,0.0,0.0,0.0,0.0,0.0,0.0,0.0,0.0,0.0,0.0,0.0,0.0,0.0,0.0,0.0,0.0,0.0,0.0,0.0,0.0,0.0,0.0,0.0,0.0,0.0,0.0,0.0,0.0,0.0,0.0,0.0,0.0,0.0,0.0,0.0,0.0,0.0,0.0,0.0,0.0,0.0,0.0,0.0,0.0,0.0,0.0,0.0,0.0,0.0,0.0,0.0,0.0,0.0,0.0,0.0,0.0,0.0,0.0,0.0,0.0,0.0,0.0,-0.3429,-0.4731,-0.6819,-0.7185,-0.7828,-0.8736,-0.9565,-0.9829,-0.9666,0.0,0.0,0.0,0.0,0.0,0.0,0.0,0.0,0.0,0.0,0.0,0.0,0.0,0.0,0.0,0.0,0.0,0.0,0.0,0.0,-0.0083,0.0,0.0,0.0,0.0,0.0,0.0,0.0,0.0,0.0,0.0,0.0,0.0,0.0,0.0,0.0,0.0,0.0,0.0,0.0,0.0,0.0,0.0,0.0,0.0,0.0,0.0,0.0,0.0,0.0,0.0,0.0,0.0,0.0,0.0,0.0,0.0,0.0,0.0,0.0,0.0,0.0,0.0,0.0,0.0,0.0,0.0,0.0,0.0,0.0,0.0,0.0,0.0,0.0,0.0,0.0,0.0,0.0,0.0,0.0,0.0,0.0,0.0,0.0,0.0,0.0,0.0,0.0,0.0,0.0,0.0,0.0,0.0,0.0,0.0,0.0,0.0,0.0,0.0,0.0,0.0,0.0,0.0,0.0,0.0,-0.1011,-0.31,-0.4783,-0.6747,-0.8883,-1.0565,-1.1451,-1.1524,-1.1264,0.0,-0.9957,-1.0351,0.0,0.0,0.0,0.0,0.0,0.0,0.0,0.0,0.0,0.0,0.0,0.0,0.0,0.0,0.0,0.0,0.0,0.0,0.0,0.0,0.0,0.0,0.0,0.0,0.0,0.0,0.0,0.0,0.0,0.0,0.0,0.0,0.0,0.0,0.0,0.0,0.0,0.0,0.0,0.0,0.0,0.0,0.0,0.0,0.0,0.0,0.0,0.0,0.0,0.0,0.0,0.0,0.0,0.0,0.0,0.0,0.0,0.0,0.0,0.0,0.0,0.0,0.0,0.0,0.0,0.0,0.0,0.0,0.0,0.0,0.0,0.0,0.0,0.0,0.0,0.0,0.0,0.0,0.0,0.0,0.0,0.0,0.0,0.0,0.0,0.0,0.0,0.0,0.0,0.0,0.0,0.0,0.0,0.0,0.0,0.0,0.0,0.0,0.0,0.0,0.0,0.0,0.0,0.0,-0.171,-0.5003,-0.5909,-0.8028,-1.1377,-1.2088,-1.2454,-1.2454,-1.2067,-1.1721,-1.1375,-1.067,-1.0161,-0.9781,0.0,0.0,0.0,0.0,0.0,-0.8676,0.0,0.0,0.0,0.0,0.0,0.0,0.0,0.0,0.0,0.0,0.0,0.0,-0.0035,0.0,0.0,0.0,0.0,0.0,0.0,0.0,0.0,0.0,0.0,0.0,0.0,0.0,0.0,0.0,0.0,0.0,0.0,0.0,0.0,0.0,0.0,0.0,0.0,0.0,0.0,0.0,0.0,0.0,0.0,0.0,0.0,0.0,0.0,0.0,0.0,0.0,0.0,0.0,0.0,0.0,0.0,0.0,0.0,0.0,0.0,0.0,0.0,0.0,0.0,0.0,0.0,0.0,0.0,0.0,0.0,0.0,0.0,0.0,0.0,0.0,0.0,0.0,0.0,0.0,0.0,0.0,0.0,0.0,0.0,0.0,0.0,0.0,0.0,0.0,0.0,0.0,0.0,0.0,0.0,0.0,0.0,-0.0548,-0.2778,-0.647,-0.7107,-0.9307,-1.2956,-1.2813,-1.2759,-1.2766,-1.2474,-1.2386,-1.2345,-1.1043,-1.0527,-1.0527,-1.0181,-0.972,-0.9211,-0.8933,-0.8988,-0.9337,0.0,0.0,0.0,0.0,0.0,0.0,0.0,0.0,0.0,0.0,0.0,-0.0037,0.0,0.0,0.0,0.0,0.0,0.0,0.0,0.0,0.0,0.0,0.0,0.0,0.0,0.0,0.0,0.0,0.0,0.0,0.0,0.0,0.0,0.0,0.0,0.0,0.0,0.0,0.0,0.0,0.0,0.0,0.0,0.0,0.0,0.0,0.0,0.0,0.0,0.0,0.0,0.0,0.0,0.0,0.0,0.0,0.0,0.0,0.0,0.0,0.0,0.0,0.0,0.0,0.0,0.0,0.0,0.0,0.0,0.0,0.0,0.0,0.0,0.0,0.0,0.0,0.0,0.0,0.0,0.0,0.0,0.0,0.0,0.0,0.0,0.0,0.0,0.0,0.0,0.0,0.0,0.0,0.0,0.0,0.0,-0.2114,-0.4288,-0.6549,-0.8648,-1.0833,-1.3036,-1.2847,-1.2773,-1.2725,-1.2562,-1.242,-1.2264,-1.1755,-1.1463,-1.1233,-1.0229,-0.97,-0.949,-0.9381,-0.9354,-0.9442,0.0,0.0,0.0,0.0,0.0,-0.4056,-0.3839,-0.2864,-0.2062,-0.182,-0.0745,0.0,0.0,0.0,0.0,0.0,0.0,0.0,0.0,0.0,0.0,0.0,0.0,0.0,0.0,0.0,0.0,0.0,0.0,0.0,0.0,0.0,0.0,0.0,0.0,0.0,0.0,0.0,0.0,0.0,0.0,0.0,0.0,0.0,0.0,0.0,0.0,0.0,0.0,0.0,0.0,0.0,0.0,0.0,0.0,0.0,0.0,0.0,0.0,0.0,0.0,0.0,0.0,0.0,0.0,0.0,0.0,0.0,0.0,0.0,0.0,0.0,0.0,0.0,0.0,0.0,0.0,0.0,0.0,0.0,0.0,0.0,0.0,0.0,0.0,0.0,0.0,0.0,0.0,0.0,0.0,0.0,0.0,0.0,0.0,-0.2672,-0.4906,-0.6693,-0.888,-1.1083,-1.3241,-1.3105,-1.2942,-1.2773,-1.2684,-1.2562,-1.2406,-1.2155,-1.1904,-1.1626,-1.1158,-1.0934,-1.0867,-1.0833,-1.0819,-1.0846,0.0,0.0,0.0,0.0,-0.4078,-0.418,-0.4281,-0.3113,-0.2212,-0.2189,-0.0929,0.0,0.0,0.0,0.0,0.0,0.0,0.0,0.0,0.0,0.0,0.0,0.0,0.0,0.0,0.0,0.0,0.0,0.0,0.0,0.0,0.0,0.0,0.0,0.0,0.0,0.0,0.0,0.0,0.0,0.0,0.0,0.0,0.0,0.0,0.0,0.0,0.0,0.0,0.0,0.0,0.0,0.0,0.0,0.0,0.0,0.0,0.0,0.0,0.0,0.0,0.0,0.0,0.0,0.0,0.0,0.0,0.0,0.0,0.0,0.0,0.0,0.0,0.0,0.0,0.0,0.0,0.0,0.0,0.0,0.0,0.0,0.0,0.0,0.0,0.0,0.0,0.0,0.0,0.0,0.0,0.0,0.0,0.0,0.0,-0.2721,-0.5237,-0.745,-0.924,-1.1214,-1.3397,-1.3295,-1.301,-1.2603,-1.2712,-1.2569,-1.2277,-1.2284,-1.2142,-1.1891,-1.1694,-1.1619,-1.1619,-1.1619,-1.1619,-1.1619,0.0,0.0,0.0,-0.3937,-0.3991,-0.4117,-0.4443,-0.3179,-0.2209,-0.2193,-0.0914,0.0,0.0,0.0,0.0,0.0,0.0,0.0,0.0,0.0,0.0,0.0,0.0,0.0,0.0,0.0,0.0,0.0,0.0,0.0,0.0,0.0,0.0,0.0,0.0,0.0,0.0,0.0,0.0,0.0,0.0,0.0,0.0,0.0,0.0,0.0,0.0,0.0,0.0,0.0,0.0,0.0,0.0,0.0,0.0,0.0,0.0,0.0,0.0,0.0,0.0,0.0,0.0,0.0,0.0,0.0,0.0,0.0,0.0,0.0,0.0,0.0,0.0,0.0,0.0,0.0,0.0,0.0,0.0,0.0,0.0,0.0,0.0,0.0,0.0,0.0,0.0,0.0,0.0,0.0,0.0,0.0,0.0,0.0,0.0,-0.2234,-0.5174,-0.8795,-0.9633,-1.122,-1.3403,-1.3403,-1.2969,-1.225,-1.2637,-1.244,-1.1877,-1.2169,-1.2203,-1.2033,-1.1742,-1.1619,-1.1619,-1.1619,-1.1619,-1.1619,0.0,0.0,-0.3658,-0.3826,-0.3948,-0.4117,-0.4443,-0.3179,-0.2258,-0.2394,-0.1004,0.0,0.0,0.0,0.0,0.0,0.0,0.0,0.0,0.0,0.0,0.0,0.0,0.0,0.0,0.0,0.0,0.0,0.0,0.0,0.0,0.0,0.0,0.0,0.0,0.0,0.0,0.0,0.0,0.0,0.0,0.0,0.0,0.0,0.0,0.0,0.0,0.0,0.0,0.0,0.0,0.0,0.0,0.0,0.0,0.0,0.0,0.0,0.0,0.0,0.0,0.0,0.0,0.0,0.0,0.0,0.0,0.0,0.0,0.0,0.0,0.0,0.0,0.0,0.0,0.0,0.0,0.0,0.0,0.0,0.0,0.0,0.0,0.0,0.0,0.0,0.0,0.0,0.0,0.0,0.0,0.0,0.0,0.0,0.0,-0.2804,-0.4664,-0.5705,-0.8653,-1.1221,-1.3403,-1.3403,-1.32,-1.2854,-1.2901,-1.2691,-1.2318,-1.2298,-1.2203,-1.2115,-1.185,-1.1708,-1.1619,-1.1619,-1.1619,-1.1572,0.0,-0.3604,-0.3665,-0.3853,-0.3961,-0.401,-0.3996,-0.2964,-0.2143,-0.1955,-0.0801,0.0,0.0,0.0,0.0,0.0,0.0,0.0,0.0,0.0,0.0,0.0,0.0,0.0,0.0,0.0,0.0,0.0,0.0,0.0,0.0,0.0,0.0,0.0,0.0,0.0,0.0,0.0,0.0,0.0,0.0,0.0,0.0,0.0,0.0,0.0,0.0,0.0,0.0,0.0,0.0,0.0,0.0,0.0,0.0,0.0,0.0,0.0,0.0,0.0,0.0,0.0,0.0,0.0,0.0,0.0,0.0,0.0,0.0,0.0,0.0,0.0,0.0,0.0,0.0,0.0,0.0,0.0,0.0,0.0,0.0,0.0,0.0,0.0,0.0,0.0,0.0,0.0,0.0,0.0,0.0,0.0,0.0,0.0,0.0,-0.2742,-0.4874,-0.6337,-0.8955,-1.1339,-1.3403,-1.3403,-1.3112,0.0,-1.2861,-1.2678,-1.2223,-1.2271,-1.2203,0.0,0.0,0.0,0.0,0.0,-1.1382,-1.1077,0.0,-0.3651,-0.371,-0.395,-0.4011,-0.3848,-0.3376,-0.2687,-0.1935,-0.1203,-0.0455,0.0,0.0,0.0,0.0,0.0,0.0,0.0,0.0,0.0,0.0,0.0,0.0,0.0,0.0,0.0,0.0,0.0,0.0,0.0,0.0,0.0,0.0,0.0,0.0,0.0,0.0,0.0,0.0,0.0,0.0,0.0,0.0,0.0,0.0,0.0,0.0,0.0,0.0,0.0,0.0,0.0,0.0,0.0,0.0,0.0,0.0,0.0,0.0,0.0,0.0,0.0,0.0,0.0,0.0,0.0,0.0,0.0,0.0,0.0,0.0,0.0,0.0,0.0,0.0,0.0,0.0,0.0,0.0,0.0,0.0,0.0,0.0,0.0,0.0,0.0,0.0,0.0,0.0,0.0,0.0,0.0,0.0,-0.0269,-0.0807,-0.2658,-0.5581,-0.9413,-0.9979,-1.1345,-1.3403,-1.3403,-1.2895,-1.2054,-1.2684,-1.2562,-1.1925,-1.2162,-1.2169,-1.1999,-1.1864,-1.1728,-1.1613,-1.1565,-1.107,0.0,0.0,-0.391,-0.393,-0.3984,-0.4099,-0.3987,-0.3448,-0.2702,-0.1976,-0.135,-0.0545,0.0,0.0,0.0,0.0,0.0,0.0,0.0,0.0,0.0,0.0,0.0,0.0,0.0,0.0,0.0,0.0,0.0,0.0,0.0,0.0,0.0,0.0,0.0,0.0,0.0,0.0,0.0,0.0,0.0,0.0,0.0,0.0,0.0,0.0,0.0,0.0,0.0,0.0,0.0,0.0,0.0,0.0,0.0,0.0,0.0,0.0,0.0,0.0,0.0,0.0,0.0,0.0,0.0,0.0,0.0,0.0,0.0,0.0,0.0,0.0,0.0,0.0,0.0,0.0,0.0,0.0,0.0,0.0,0.0,0.0,0.0,0.0,0.0,0.0,0.0,0.0,0.0,0.0,0.0,0.0,0.0,0.0,-0.1882,-0.5722,-0.4248,-0.6538,-1.2756,0.0,0.0,-1.3403,-1.3403,-1.3119,-1.2644,-1.2868,-1.2739,-1.2359,-1.2182,-1.1945,-1.1701,-1.1674,-1.1647,-1.1572,-1.1143,-1.1199,-1.1335,-0.4278,-0.4124,-0.4018,-0.4092,-0.4227,-0.4009,-0.2968,-0.253,-0.1934,-0.0786,-0.0259,0.0,0.0,0.0,0.0,0.0,0.0,0.0,0.0,0.0,0.0,0.0,0.0,0.0,0.0,0.0,0.0,0.0,0.0,0.0,0.0,0.0,0.0,0.0,0.0,0.0,0.0,0.0,0.0,0.0,0.0,0.0,0.0,0.0,0.0,0.0,0.0,0.0,0.0,0.0,0.0,0.0,0.0,0.0,0.0,0.0,0.0,0.0,0.0,0.0,0.0,0.0,0.0,0.0,0.0,0.0,0.0,0.0,0.0,0.0,0.0,0.0,0.0,0.0,0.0,0.0,0.0,0.0,0.0,0.0,0.0,0.0,0.0,0.0,0.0,0.0,0.0,0.0,0.0,0.0,0.0,0.0,0.0,-0.1686,-0.5286,-0.5253,-0.7418,-1.2039,-1.1871,-1.2359,-1.3403,-1.3403,-1.3214,-1.2888,-1.2935,-1.2786,-1.2481,-1.2182,-1.1884,-1.1619,-1.1619,-1.1619,-1.1592,-1.1369,-1.143,-1.1586,-0.4464,-0.4293,-0.4126,-0.4281,-0.4429,-0.4029,-0.2485,-0.2391,-0.1895,-0.0226,0.0,0.0,0.0,0.0,0.0,0.0,0.0,0.0,0.0,0.0,0.0,0.0,0.0,0.0,0.0,0.0,0.0,0.0,0.0,0.0,0.0,0.0,0.0,0.0,0.0,0.0,0.0,0.0,0.0,0.0,0.0,0.0,0.0,0.0,0.0,0.0,0.0,0.0,0.0,0.0,0.0,0.0,0.0,0.0,0.0,0.0,0.0,0.0,0.0,0.0,0.0,0.0,0.0,0.0,0.0,0.0,0.0,0.0,0.0,0.0,0.0,0.0,0.0,0.0,0.0,0.0,0.0,0.0,0.0,0.0,0.0,0.0,0.0,0.0,0.0,0.0,0.0,0.0,0.0,0.0,0.0,0.0,-0.0441,-0.1852,-0.425,-0.6506,-0.8722,-1.0977,-1.2724,-1.3519,-1.3397,-1.337,-1.3214,-1.3036,-1.2895,-1.2698,-1.24,-1.2162,-1.1884,-1.1619,-1.1619,-1.1619,-1.1619,-1.1619,-1.1619,-1.1619,0.0,-0.4464,-0.4491,-0.4613,-0.4653,-0.4171,-0.2694,-0.2478,-0.1901,-0.0231,0.0,0.0,0.0,0.0,0.0,0.0,0.0,0.0,0.0,0.0,0.0,0.0,0.0,0.0,0.0,0.0,0.0,0.0,0.0,0.0,0.0,0.0,0.0,0.0,0.0,0.0,0.0,0.0,0.0,0.0,0.0,0.0,0.0,0.0,0.0,0.0,0.0,0.0,0.0,0.0,0.0,0.0,0.0,0.0,0.0,0.0,0.0,0.0,0.0,0.0,0.0,0.0,0.0,0.0,0.0,0.0,0.0,0.0,0.0,0.0,0.0,0.0,0.0,0.0,0.0,0.0,0.0,0.0,0.0,0.0,0.0,0.0,0.0,0.0,0.0,0.0,0.0,0.0,0.0,0.0,0.0,0.0,-0.2056,-0.4285,-0.6656,-0.8818,-1.1079,-1.3403,-1.3392,-1.3417,-1.3397,-1.3261,-1.3112,-1.2942,-1.2671,-1.2386,-1.2108,-1.2074,-1.1884,-1.1619,-1.1619,-1.1619,-1.1619,-1.1619,-1.1619,-1.1619,0.0,-0.4491,-0.4566,-0.4782,-0.4398,-0.3701,-0.2652,-0.212,-0.1355,-0.0146,0.0,0.0,0.0,0.0,0.0,0.0,0.0,0.0,0.0,0.0,0.0,0.0,0.0,0.0,0.0,0.0,0.0,0.0,0.0,0.0,0.0,0.0,0.0,0.0,0.0,0.0,0.0,0.0,0.0,0.0,0.0,0.0,0.0,0.0,0.0,0.0,0.0,0.0,0.0,0.0,0.0,0.0,0.0,0.0,0.0,0.0,0.0,0.0,0.0,0.0,0.0,0.0,0.0,0.0,0.0,0.0,0.0,0.0,0.0,0.0,0.0,0.0,0.0,0.0,0.0,0.0,0.0,0.0,0.0,0.0,0.0,0.0,0.0,0.0,0.0,0.0,0.0,0.0,0.0,0.0,0.0,0.0,-0.233,-0.474,-0.7057,-0.9266,-1.1498,-1.3838,-1.3539,-1.3356,-1.3268,-1.32,-1.3044,-1.2813,-1.2596,-1.2332,-1.2135,-1.2135,-1.1884,-1.1619,-1.1619,-1.1619,-1.1619,-1.1619,-1.1619,-1.1619,0.0,-0.4552,-0.4648,-0.4894,-0.4041,-0.3143,-0.262,-0.1853,-0.098,-0.0104,0.0,0.0,0.0,0.0,0.0,0.0,0.0,0.0,0.0,0.0,0.0,0.0,0.0,0.0,0.0,0.0,0.0,0.0,0.0,0.0,0.0,0.0,0.0,0.0,0.0,0.0,0.0,0.0,0.0,0.0,0.0,0.0,0.0,0.0,0.0,0.0,0.0,0.0,0.0,0.0,0.0,0.0,0.0,0.0,0.0,0.0,0.0,0.0,0.0,0.0,0.0,0.0,0.0,0.0,0.0,0.0,0.0,0.0,0.0,0.0,0.0,0.0,0.0,0.0,0.0,0.0,0.0,0.0,0.0,0.0,0.0,0.0,0.0,0.0,0.0,0.0,0.0,0.0,0.0,0.0,-0.0269,-0.0987,-0.3312,-0.5714,-0.8002,-1.0212,-1.2087,-1.3777,-1.3519,-1.3322,-1.3166,-1.3085,-1.2908,-1.2657,-1.2508,-1.2298,-1.2135,-1.2013,-1.185,-1.1619,-1.1619,-1.1619,-1.1619,-1.1619,-1.1619,-1.1619,0.0,0.0,-0.4775,-0.5042,-0.3685,-0.2559,-0.2662,-0.1908,-0.0974,-0.0101,0.0,0.0,0.0,0.0,0.0,0.0,0.0,0.0,0.0,0.0,0.0,0.0,0.0,0.0,0.0,0.0,0.0,0.0,0.0,0.0,0.0,0.0,0.0,0.0,0.0,0.0,0.0,0.0,0.0,0.0,0.0,0.0,0.0,0.0,0.0,0.0,0.0,0.0,0.0,0.0,0.0,0.0,0.0,0.0,0.0,0.0,0.0,0.0,0.0,0.0,0.0,0.0,0.0,0.0,0.0,0.0,0.0,0.0,0.0,0.0,0.0,0.0,0.0,0.0,0.0,0.0,0.0,0.0,0.0,0.0,0.0,0.0,0.0,0.0,0.0,0.0,0.0,0.0,0.0,0.0,-0.1076,-0.3403,-0.5811,-0.8087,-1.0374,-1.2607,-1.3685,-1.3634,-1.3478,-1.3322,-1.3159,-1.2874,-1.2657,-1.2501,-1.2359,-1.221,-1.2047,-1.1898,-1.1748,-1.1619,-1.1619,-1.1619,-1.1619,-1.1619,-1.1619,-1.1619,0.0,0.0,0.0,-0.4299,-0.3275,-0.2335,-0.1834,-0.1007,-0.0339,-0.0035,0.0,0.0,0.0,0.0,0.0,0.0,0.0,0.0,0.0,0.0,0.0,0.0,0.0,0.0,0.0,0.0,0.0,0.0,0.0,0.0,0.0,0.0,0.0,0.0,0.0,0.0,0.0,0.0,0.0,0.0,0.0,0.0,0.0,0.0,0.0,0.0,0.0,0.0,0.0,0.0,0.0,0.0,0.0,0.0,0.0,0.0,0.0,0.0,0.0,0.0,0.0,0.0,0.0,0.0,0.0,0.0,0.0,0.0,0.0,0.0,0.0,0.0,0.0,0.0,0.0,0.0,0.0,0.0,0.0,0.0,0.0,0.0,0.0,0.0,0.0,0.0,0.0,0.0,0.0,-0.1518,-0.2776,-0.358,-0.7364,-0.9703,-1.0457,-1.2613,-1.3675,-1.3627,-1.3275,-1.3085,-1.3024,-1.2718,-1.2549,-1.2494,-1.2352,-1.2203,-1.2047,-1.1898,-1.1748,-1.1619,-1.1619,-1.1619,-1.1619,-1.1619,-1.1619,-1.1619,0.0,0.0,0.0,0.0,0.0,0.0,0.0,0.0,0.0,0.0,0.0,0.0,0.0,0.0,0.0,0.0,0.0,0.0,0.0,0.0,0.0,0.0,0.0,0.0,0.0,0.0,0.0,0.0,0.0,0.0,0.0,0.0,0.0,0.0,0.0,0.0,0.0,0.0,0.0,0.0,0.0,0.0,0.0,0.0,0.0,0.0,0.0,0.0,0.0,0.0,0.0,0.0,0.0,0.0,0.0,0.0,0.0,0.0,0.0,0.0,0.0,0.0,0.0,0.0,0.0,0.0,0.0,0.0,0.0,0.0,0.0,0.0,0.0,0.0,0.0,0.0,0.0,0.0,0.0,0.0,0.0,0.0,0.0,0.0,0.0,0.0,-0.0578,-0.1031,-0.1207,-0.3294,-0.4893,-0.5919,-0.8856,-1.0814,-1.156,-1.2951,-1.3573,-1.3464,-1.3125,-1.2935,-1.2868,-1.2617,-1.2413,-1.2257,-1.2223,-1.206,-1.1816,-1.1775,-1.1701,-1.1619,-1.1619,-1.1619,-1.1619,-1.1619,-1.1619,-1.1619,0.0,0.0,0.0,0.0,0.0,0.0,0.0,0.0,0.0,0.0,0.0,0.0,0.0,0.0,0.0,0.0,0.0,0.0,0.0,0.0,0.0,0.0,0.0,0.0,0.0,0.0,0.0,0.0,0.0,0.0,0.0,0.0,0.0,0.0,0.0,0.0,0.0,0.0,0.0,0.0,0.0,0.0,0.0,0.0,0.0,0.0,0.0,0.0,0.0,0.0,0.0,0.0,0.0,0.0,0.0,0.0,0.0,0.0,0.0,0.0,0.0,0.0,0.0,0.0,0.0,0.0,0.0,0.0,0.0,0.0,0.0,0.0,0.0,0.0,0.0,0.0,0.0,0.0,0.0,0.0,0.0,0.0,0.0,-0.0077,0.0,-0.016,0.0,-0.2943,-0.3469,-0.5206,-0.7459,-1.0189,-1.0371,-1.1521,-1.3543,-1.3614,-1.3458,-1.3173,-1.3024,-1.2874,-1.2725,-1.2569,-1.2264,-1.1864,-1.1999,-1.1816,-1.1423,-1.1565,-1.1619,-1.1619,-1.1619,-1.1619,-1.1619,-1.1619,-1.1619,-1.1619,0.0,0.0,0.0,0.0,0.0,0.0,0.0,0.0,0.0,0.0,0.0,0.0,0.0,0.0,0.0,0.0,0.0,0.0,0.0,0.0,0.0,0.0,0.0,0.0,0.0,0.0,0.0,0.0,0.0,0.0,0.0,0.0,0.0,0.0,0.0,0.0,0.0,0.0,0.0,0.0,0.0,0.0,0.0,0.0,0.0,0.0,0.0,0.0,0.0,0.0,0.0,0.0,0.0,0.0,0.0,0.0,0.0,0.0,0.0,0.0,0.0,0.0,0.0,0.0,0.0,0.0,0.0,0.0,0.0,0.0,0.0,0.0,0.0,0.0,0.0,0.0,0.0,0.0,0.0,0.0,0.0,0.0,0.0,-0.1451,0.0,0.0,-0.2876,-0.3964,-0.5746,-0.7997,-0.9517,-1.0285,-1.193,-1.3063,-1.3627,-1.3403,-1.3247,-1.3166,-1.2915,-1.2766,-1.2725,-1.2569,-1.2379,-1.2169,-1.2094,-1.1932,-1.1714,-1.1647,-1.1619,-1.1619,-1.1619,-1.1619,-1.1619,-1.1619,-1.1619,-1.1606,0.0,0.0,0.0,0.0,0.0,0.0,0.0,0.0,0.0,0.0,0.0,0.0,0.0,0.0,0.0,0.0,0.0,0.0,0.0,0.0,0.0,0.0,0.0,0.0,0.0,0.0,0.0,0.0,0.0,0.0,0.0,0.0,0.0,0.0,0.0,0.0,0.0,0.0,0.0,0.0,0.0,0.0,0.0,0.0,0.0,0.0,0.0,0.0,0.0,0.0,0.0,0.0,0.0,0.0,0.0,0.0,0.0,0.0,0.0,0.0,0.0,0.0,0.0,0.0,0.0,0.0,0.0,0.0,0.0,0.0,0.0,0.0,0.0,0.0,-0.0808,-0.1406,-0.1239,-0.2024,-0.2645,-0.2601,-0.2605,-0.2714,-0.2957,-0.4057,-0.519,0.0,-0.6063,-0.6618,-0.8102,-1.0226,-1.1421,-1.1673,-1.2888,-1.3532,-1.3532,-1.3295,-1.3139,-1.3078,-1.284,-1.2698,-1.2623,-1.2542,-1.2318,-1.1999,0.0,-1.1864,-1.1545,-1.1599,-1.1619,-1.1619,-1.1619,-1.1619,-1.1619,-1.1619,-1.1619,-1.1599,0.0,0.0,0.0,0.0,0.0,0.0,0.0,0.0,0.0,0.0,0.0,0.0,0.0,0.0,0.0,0.0,0.0,0.0,0.0,0.0,0.0,0.0,0.0,0.0,0.0,0.0,0.0,0.0,0.0,0.0,0.0,0.0,0.0,0.0,0.0,0.0,0.0,0.0,0.0,0.0,0.0,0.0,0.0,0.0,0.0,0.0,0.0,0.0,0.0,0.0,0.0,0.0,0.0,0.0,0.0,0.0,0.0,0.0,0.0,0.0,0.0,0.0,0.0,0.0,0.0,0.0,0.0,0.0,0.0,0.0,0.0,0.0,0.0,0.0,-0.1873,-0.3159,-0.2744,-0.4625,-0.5947,-0.6007,-0.6033,-0.6213,-0.668,-0.6926,-0.7916,-0.9961,-1.0017,-1.0089,-1.0407,-1.1934,-1.2996,-1.339,-1.3403,-1.339,-1.337,-1.322,-1.3071,-1.2929,-1.2773,-1.263,-1.2501,-1.2481,-1.2182,-1.1694,0.0,0.0,-1.1246,-1.1511,-1.1619,-1.1619,-1.1619,-1.1619,-1.1619,-1.1619,-1.1619,-1.1592,0.0,0.0,0.0,0.0,0.0,0.0,0.0,0.0,0.0,0.0,0.0,0.0,0.0,0.0,0.0,0.0,0.0,0.0,0.0,0.0,0.0,0.0,0.0,0.0,0.0,0.0,0.0,0.0,0.0,0.0,0.0,0.0,0.0,0.0,0.0,0.0,0.0,0.0,0.0,0.0,0.0,0.0,0.0,0.0,0.0,0.0,0.0,0.0,0.0,0.0,0.0,0.0,0.0,0.0,0.0,0.0,0.0,0.0,0.0,0.0,0.0,0.0,0.0,0.0,0.0,0.0,0.0,0.0,0.0,0.0,0.0,0.0,0.0,0.0,-0.1485,-0.2685,-0.2725,-0.4496,-0.5839,-0.5949,-0.6017,-0.6213,-0.668,-0.8079,0.0,0.0,0.0,-1.2699,-1.2782,-1.3117,-1.3322,-1.3397,-1.3403,-1.3342,-1.3214,-1.3071,-1.2922,-1.2766,-1.2617,-1.2528,-1.2501,-1.2379,-1.2203,-1.1979,0.0,0.0,-1.1545,-1.1599,-1.1619,-1.1619,-1.1619,-1.1619,-1.1619,-1.1619,-1.1619,-1.1579,0.0,0.0,0.0,0.0,0.0,0.0,0.0,0.0,0.0,0.0,0.0,0.0,0.0,0.0,0.0,0.0,0.0,0.0,0.0,0.0,0.0,0.0,0.0,0.0,0.0,0.0,0.0,0.0,0.0,0.0,0.0,0.0,0.0,0.0,0.0,0.0,0.0,0.0,0.0,0.0,0.0,0.0,0.0,0.0,0.0,0.0,0.0,0.0,0.0,0.0,0.0,0.0,0.0,0.0,0.0,0.0,0.0,0.0,0.0,-0.077,-0.1587,-0.155,-0.2278,-0.2787,-0.1758,-0.1468,-0.1131,-0.021,0.0,0.0,0.0,0.0,0.0,0.0,-0.2373,-0.427,-0.4273,-0.6999,-0.9056,-0.9356,-0.9407,-0.9606,-0.9769,-1.0599,-1.1213,-1.1397,0.0,-1.3152,-1.339,-1.3403,-1.3403,-1.3403,-1.3403,-1.3329,-1.3173,-1.303,-1.2881,-1.2725,-1.2576,-1.2501,-1.2494,-1.2352,-1.2203,-1.2054,-1.1898,0.0,-1.1217,-1.1525,-1.1484,-1.1294,-1.1525,-1.1619,-1.1619,-1.1619,-1.1619,-1.1572,0.0,0.0,0.0,0.0,0.0,0.0,0.0,0.0,0.0,0.0,0.0,0.0,0.0,0.0,0.0,0.0,0.0,0.0,0.0,0.0,0.0,0.0,0.0,0.0,0.0,0.0,0.0,0.0,0.0,0.0,0.0,0.0,0.0,0.0,0.0,0.0,0.0,0.0,0.0,0.0,0.0,0.0,0.0,0.0,0.0,0.0,0.0,0.0,0.0,0.0,0.0,0.0,0.0,0.0,-0.0072,-0.0508,-0.0675,-0.0772,-0.1206,-0.247,-0.3721,-0.3623,-0.4667,-0.532,-0.3372,-0.2823,-0.2193,-0.0388,0.0,0.0,0.0,0.0,-0.0104,-0.0459,-0.3358,-0.5732,-0.627,-0.9424,-1.1925,-1.244,-1.2637,-1.2766,-1.2861,-1.2786,0.0,-1.2868,0.0,0.0,-1.3383,-1.3403,-1.3403,-1.3403,-1.337,-1.3281,-1.3125,-1.2983,-1.2834,-1.2678,-1.2562,-1.2488,-1.2454,-1.2305,-1.2155,-1.2006,-1.185,0.0,0.0,-1.1436,-1.1355,-1.0927,-1.1443,-1.1619,-1.1619,-1.1619,-1.1599,-1.1531,0.0,0.0,0.0,0.0,0.0,0.0,0.0,0.0,0.0,0.0,0.0,0.0,0.0,0.0,0.0,0.0,0.0,0.0,0.0,0.0,0.0,0.0,0.0,0.0,0.0,0.0,0.0,0.0,0.0,0.0,0.0,0.0,0.0,0.0,0.0,0.0,0.0,0.0,0.0,0.0,0.0,0.0,0.0,0.0,0.0,0.0,0.0,0.0,0.0,0.0,0.0,0.0,0.0,0.0,-0.0331,-0.2108,-0.2697,-0.3216,-0.4951,-0.5696,-0.5922,-0.579,-0.5755,-0.5261,-0.3353,-0.2821,-0.2176,-0.035,0.0,0.0,0.0,0.0,-0.0507,-0.2051,-0.3717,-0.5546,-0.7771,-1.0046,-1.1701,-1.242,-1.2637,-1.2888,-1.3302,-1.2969,-1.2901,-1.3308,0.0,0.0,-1.3397,-1.3403,-1.3403,-1.3403,-1.3268,-1.3125,-1.2983,-1.2827,-1.2671,-1.2522,-1.2508,-1.2433,-1.2305,-1.2149,-1.1999,-1.1843,0.0,0.0,0.0,-1.1436,-1.1355,-1.0927,-1.1443,-1.1619,-1.1619,-1.1619,-1.1531,-1.1389,0.0,0.0,0.0,0.0,0.0,0.0,0.0,0.0,0.0,0.0,0.0,0.0,0.0,0.0,0.0,0.0,0.0,0.0,0.0,0.0,0.0,0.0,0.0,0.0,0.0,0.0,0.0,0.0,0.0,0.0,0.0,0.0,0.0,0.0,0.0,0.0,0.0,0.0,0.0,0.0,0.0,0.0,0.0,0.0,0.0,0.0,0.0,0.0,0.0,0.0,0.0,0.0,0.0,0.0,-0.0169,-0.0932,-0.2026,-0.3147,-0.3909,-0.5948,-0.7813,-0.7655,-0.7555,-0.7017,-0.5095,-0.3614,-0.2183,-0.0383,0.0,0.0,0.0,-0.0608,-0.1314,-0.2057,-0.4156,-0.6168,-0.7699,-0.9679,-1.1335,-1.2264,-1.2671,-1.2901,0.0,0.0,-1.2807,0.0,0.0,0.0,-1.3247,-1.3349,-1.3356,-1.3268,-1.3207,-1.3057,-1.2827,-1.2759,-1.2651,-1.2501,-1.2413,-1.2345,-1.2284,-1.2033,-1.1891,-1.1823,0.0,0.0,0.0,-1.1321,-1.1199,-1.0616,-1.1341,-1.1619,-1.1619,-1.1619,-1.1525,-1.1369,0.0,0.0,0.0,0.0,0.0,0.0,0.0,0.0,0.0,0.0,0.0,0.0,0.0,0.0,0.0,0.0,0.0,0.0,0.0,0.0,0.0,0.0,0.0,0.0,0.0,0.0,0.0,0.0,0.0,0.0,0.0,0.0,0.0,0.0,0.0,0.0,0.0,0.0,0.0,0.0,0.0,0.0,0.0,0.0,0.0,0.0,0.0,0.0,0.0,0.0,0.0,0.0,0.0,0.0,-0.0099,-0.0677,-0.2264,-0.3934,-0.4547,-0.72,-0.9796,-0.9661,-0.9132,-0.8215,-0.6275,-0.4183,-0.2164,-0.037,0.0,-0.009,-0.0449,-0.1225,-0.2108,-0.3017,-0.4971,-0.6781,-0.8044,-0.9594,-1.0962,-1.1972,-1.2406,-1.2671,-1.2786,-1.2834,-1.2861,0.0,0.0,0.0,0.0,-1.3214,-1.322,-1.3112,-1.3064,-1.2942,-1.2732,-1.2684,-1.261,-1.2501,-1.2359,-1.2196,-1.202,-1.1891,-1.1365,-1.0699,0.0,0.0,0.0,-0.9602,-0.9417,-0.8901,-1.0251,-1.0743,-1.0815,-1.1397,-1.1497,-1.1307,0.0,0.0,0.0,0.0,0.0,0.0,0.0,0.0,0.0,0.0,0.0,0.0,0.0,0.0,0.0,0.0,0.0,0.0,0.0,0.0,0.0,0.0,0.0,0.0,0.0,0.0,0.0,0.0,0.0,0.0,0.0,0.0,0.0,0.0,0.0,0.0,0.0,0.0,0.0,0.0,0.0,0.0,0.0,0.0,0.0,0.0,0.0,0.0,0.0,0.0,0.0,0.0,0.0,0.0,-0.0382,-0.2317,-0.4315,-0.6379,-0.835,-1.0437,-1.2026,-1.1797,-1.0214,-0.8193,-0.6226,-0.4179,-0.2167,-0.0367,0.0,-0.0359,-0.1567,-0.1791,-0.2693,-0.5519,-0.6247,-0.7233,-0.9307,-1.0005,-1.0616,-1.1518,-1.1755,-1.2135,-1.2888,-1.3085,0.0,0.0,0.0,0.0,0.0,-1.2963,-1.2963,-1.2963,-1.2813,-1.2732,-1.2732,-1.2576,-1.2501,-1.2501,-1.2359,-1.1979,-1.1409,-1.1701,-1.0423,0.0,0.0,0.0,0.0,-0.5645,-0.5605,-0.5423,-0.7784,-0.8703,-0.8992,-1.0887,-1.1423,-1.1234,0.0,0.0,0.0,0.0,0.0,0.0,0.0,0.0,0.0,0.0,0.0,0.0,0.0,0.0,0.0,0.0,0.0,0.0,0.0,0.0,0.0,0.0,0.0,0.0,0.0,0.0,0.0,0.0,0.0,0.0,0.0,0.0,0.0,0.0,0.0,0.0,0.0,0.0,0.0,0.0,0.0,0.0,0.0,0.0,0.0,0.0,0.0,0.0,0.0,0.0,0.0,0.0,0.0,0.0,0.0,-0.0745,-0.231,-0.402,-0.4653,-0.6262,-0.7755,-0.7701,-0.6234,-0.4561,-0.396,-0.2269,-0.0707,-0.0138,-0.0673,-0.1343,-0.1746,-0.3129,-0.4761,-0.6215,-0.7251,-0.8356,-0.9849,-1.0453,-1.0995,-1.1681,-1.2257,-1.2698,0.0,0.0,0.0,0.0,0.0,0.0,0.0,-1.2705,-1.2698,-1.28,-1.2752,-1.2678,-1.2576,-1.2528,-1.2454,-1.2352,-1.2203,-1.1816,-1.1246,-1.1545,0.0,0.0,0.0,0.0,0.0,-0.7567,-0.7513,-0.7205,-0.8287,-0.9502,-1.0743,-1.1397,-1.1423,-1.1234,0.0,0.0,0.0,0.0,0.0,0.0,0.0,0.0,0.0,0.0,0.0,0.0,0.0,0.0,0.0,0.0,0.0,0.0,0.0,0.0,0.0,0.0,0.0,0.0,0.0,0.0,0.0,0.0,0.0,0.0,0.0,0.0,0.0,0.0,0.0,0.0,0.0,0.0,0.0,0.0,0.0,0.0,0.0,0.0,0.0,0.0,0.0,0.0,0.0,0.0,0.0,0.0,0.0,0.0,0.0,0.0,-0.088,-0.197,-0.2696,-0.4325,-0.5814,-0.5814,-0.4319,-0.2899,-0.2883,-0.1418,-0.0146,-0.0592,-0.1361,-0.2187,-0.3004,-0.4475,-0.5825,-0.6715,-0.7795,-0.8764,-0.9578,-1.0127,-1.0617,-1.1335,0.0,0.0,0.0,0.0,0.0,0.0,0.0,0.0,0.0,0.0,-1.2467,-1.2562,-1.2617,-1.2596,-1.2501,-1.2447,-1.2379,-1.2291,-1.2074,-1.1687,-1.1241,-1.1484,0.0,0.0,0.0,0.0,0.0,-0.7469,-0.7438,-0.7292,-0.8331,-0.943,-1.0587,-1.1266,-1.1375,-1.1158,0.0,0.0,0.0,0.0,0.0,0.0,0.0,0.0,0.0,0.0,0.0,0.0,0.0,0.0,0.0,0.0,0.0,0.0,0.0,0.0,0.0,0.0,0.0,0.0,0.0,0.0,0.0,0.0,0.0,0.0,0.0,0.0,0.0,0.0,0.0,0.0,0.0,0.0,0.0,0.0,0.0,0.0,0.0,0.0,0.0,0.0,0.0,0.0,0.0,0.0,0.0,0.0,0.0,0.0,0.0,0.0,0.0,0.0,0.0,-0.4012,-0.5364,-0.536,-0.4021,-0.2669,-0.2673,-0.1361,0.0,-0.1579,-0.2176,-0.3052,-0.5079,-0.5717,-0.6222,-0.7079,-0.7977,-0.8601,-0.8798,-0.9361,-0.9998,0.0,-1.1416,0.0,0.0,0.0,0.0,0.0,0.0,0.0,0.0,0.0,-1.2277,-1.2277,-1.24,-1.2467,-1.2467,-1.2338,-1.225,-1.221,-1.1952,-1.15,-1.0973,-1.1386,0.0,0.0,0.0,0.0,0.0,-0.5591,-0.5591,-0.5808,-0.7761,-0.8559,-0.8904,-1.0728,-1.1294,-1.1138,0.0,0.0,0.0,0.0,0.0,0.0,0.0,0.0,0.0,0.0,0.0,0.0,0.0,0.0,0.0,0.0,0.0,0.0,0.0,0.0,0.0,0.0,0.0,0.0,0.0,0.0,0.0,0.0,0.0,0.0,0.0,0.0,0.0,0.0,0.0,0.0,0.0,0.0,0.0,0.0,0.0,0.0,0.0,0.0,0.0,0.0,0.0,0.0,0.0,0.0,0.0,0.0,0.0,0.0,0.0,0.0,0.0,-0.0091,-0.0562,0.0,-0.1371,-0.1352,-0.1007,-0.0666,0.0,-0.102,-0.1528,-0.2011,-0.3628,-0.5204,-0.595,-0.685,-0.7709,-0.8347,-0.8784,-0.9268,-0.9829,-1.0622,0.0,-1.0847,-1.1748,-1.225,0.0,0.0,0.0,0.0,0.0,0.0,0.0,0.0,-1.2115,-1.2115,-1.2149,-1.2169,-1.2169,-1.2135,-1.1884,-1.143,-1.1701,-1.0575,-0.8399,-1.0563,0.0,0.0,0.0,0.0,-0.356,-0.356,-0.356,-0.3778,-0.5736,-0.7399,-0.8904,-1.0728,-1.1294,-1.1138,0.0,0.0,0.0,0.0,0.0,0.0,0.0,0.0,0.0,0.0,0.0,0.0,0.0,0.0,0.0,0.0,0.0,0.0,0.0,0.0,0.0,0.0,0.0,0.0,0.0,0.0,0.0,0.0,0.0,0.0,0.0,0.0,0.0,0.0,0.0,0.0,0.0,0.0,0.0,0.0,0.0,0.0,0.0,0.0,0.0,0.0,0.0,0.0,0.0,0.0,0.0,0.0,0.0,0.0,0.0,0.0,0.0,0.0,0.0,0.0,0.0,0.0,0.0,0.0,0.0,-0.0508,-0.1379,-0.2739,-0.408,-0.5346,-0.6634,-0.7449,-0.8015,-0.8406,-0.8764,-0.9259,0.0,0.0,-1.1145,-1.09,-1.1504,0.0,0.0,0.0,0.0,0.0,0.0,0.0,0.0,0.0,-1.1952,-1.1952,-1.1891,-1.1925,-1.2135,-1.1993,-1.1687,-1.1165,-1.1552,-1.0263,-0.7746,-0.9456,0.0,0.0,0.0,0.0,-0.4208,-0.4203,-0.4218,-0.4358,-0.5373,-0.6941,-0.8754,-0.9636,-1.0423,-1.1043,0.0,0.0,0.0,0.0,0.0,0.0,0.0,0.0,0.0,0.0,0.0,0.0,0.0,0.0,0.0,0.0,0.0,0.0,0.0,0.0,0.0,0.0,0.0,0.0,0.0,0.0,0.0,0.0,0.0,0.0,0.0,0.0,0.0,0.0,0.0,0.0,0.0,0.0,0.0,0.0,0.0,0.0,0.0,0.0,0.0,0.0,0.0,0.0,0.0,0.0,0.0,0.0,0.0,0.0,0.0,0.0,0.0,0.0,0.0,-0.0183,-0.0328,-0.0339,-0.019,-0.0093,-0.0533,-0.0561,-0.1272,-0.3843,-0.4502,-0.5279,-0.7369,-0.7923,-0.8085,-0.8194,-0.8628,0.0,-1.0154,-1.0595,-1.0839,-1.0806,0.0,0.0,0.0,0.0,0.0,0.0,0.0,0.0,0.0,0.0,0.0,-1.1796,-1.1681,-1.1742,-1.1993,-1.1864,-1.1429,-1.0711,-1.1031,-0.9736,-0.7115,-0.7908,0.0,0.0,0.0,0.0,-0.4927,-0.4905,-0.4932,-0.4939,-0.5219,-0.6324,-0.7667,-0.8114,-0.9251,-1.0515,0.0,0.0,0.0,0.0,0.0,0.0,0.0,0.0,0.0,0.0,0.0,0.0,0.0,0.0,0.0,0.0,0.0,0.0,0.0,0.0,0.0,0.0,0.0,0.0,0.0,0.0,0.0,0.0,0.0,0.0,0.0,0.0,0.0,0.0,0.0,0.0,0.0,0.0,0.0,0.0,0.0,0.0,0.0,0.0,0.0,0.0,0.0,0.0,0.0,0.0,0.0,0.0,0.0,0.0,0.0,0.0,0.0,0.0,0.0,-0.0922,-0.1847,-0.1859,-0.094,-0.0604,-0.2849,-0.3227,-0.3604,-0.5552,-0.6723,-0.7629,-0.8413,-0.8872,-0.9103,-0.9057,-0.9578,-1.0093,0.0,0.0,-1.1104,-1.0622,0.0,0.0,0.0,0.0,0.0,0.0,0.0,0.0,0.0,0.0,0.0,-1.1653,-1.1633,-1.164,-1.1687,-1.1667,-1.0561,-0.8502,-0.8905,-0.7035,-0.3154,-0.5279,-0.4288,0.0,0.0,-0.2387,-0.0874,-0.0869,-0.087,-0.1019,-0.2729,-0.3498,-0.4117,-0.7199,-0.8491,-0.8872,0.0,0.0,0.0,0.0,0.0,0.0,0.0,0.0,0.0,0.0,0.0,0.0,0.0,0.0,0.0,0.0,0.0,0.0,0.0,0.0,0.0,0.0,0.0,0.0,0.0,0.0,0.0,0.0,0.0,0.0,0.0,0.0,0.0,0.0,0.0,0.0,0.0,0.0,0.0,0.0,0.0,0.0,0.0,0.0,0.0,0.0,0.0,0.0,0.0,0.0,0.0,0.0,0.0,0.0,0.0,0.0,0.0,0.0,0.0,-0.0983,-0.2232,-0.3294,-0.292,-0.2651,-0.4164,-0.4143,-0.4371,-0.6323,-0.676,-0.7162,-0.8381,-0.8757,-0.9055,-0.9557,0.0,-1.0853,-1.0772,-1.105,-1.1165,0.0,0.0,0.0,0.0,0.0,0.0,0.0,0.0,0.0,0.0,0.0,0.0,0.0,-1.1619,-1.1619,-1.1619,-1.0593,-0.9318,-0.8,-0.847,-0.6398,-0.2265,-0.364,-0.2692,-0.0073,0.0,-0.0854,0.0,0.0,0.0,-0.0071,-0.0992,-0.1898,-0.3132,-0.5794,-0.73,-0.8236,0.0,0.0,0.0,0.0,0.0,0.0,0.0,0.0,0.0,0.0,0.0,0.0,0.0,0.0,0.0,0.0,0.0,0.0,0.0,0.0,0.0,0.0,0.0,0.0,0.0,0.0,0.0,0.0,0.0,0.0,0.0,0.0,0.0,0.0,0.0,0.0,0.0,0.0,0.0,0.0,0.0,0.0,0.0,0.0,0.0,0.0,0.0,0.0,0.0,0.0,0.0,0.0,0.0,0.0,0.0,0.0,0.0,0.0,0.0,-0.0914,-0.2324,-0.4121,-0.4312,-0.4409,-0.5682,-0.5195,-0.5098,-0.7221,-0.71,-0.7039,-0.8441,-0.875,-0.9103,-0.999,-1.0839,-1.1321,-1.1274,-1.1267,0.0,0.0,0.0,0.0,0.0,0.0,0.0,0.0,0.0,0.0,0.0,0.0,0.0,0.0,-1.1619,-1.1404,-1.0959,-0.943,-0.8287,-0.7488,-0.7367,-0.536,-0.1672,-0.2082,-0.1384,0.0,0.0,0.0,0.0,0.0,0.0,0.0,0.0,-0.1106,-0.2861,-0.4241,-0.5897,-0.7431,0.0,0.0,0.0,0.0,0.0,0.0,0.0,0.0,0.0,0.0,0.0,0.0,0.0,0.0,0.0,0.0,0.0,0.0,0.0,0.0,0.0,0.0,0.0,0.0,0.0,0.0,0.0,0.0,0.0,0.0,0.0,0.0,0.0,0.0,0.0,0.0,0.0,0.0,0.0,0.0,0.0,0.0,0.0,0.0,0.0,0.0,0.0,0.0,0.0,0.0,0.0,0.0,0.0,0.0,0.0,0.0,0.0,0.0,0.0,-0.1057,-0.2499,-0.3905,-0.3952,-0.4602,-0.827,-0.7428,-0.6558,-0.891,-0.9164,-0.904,-0.9279,-0.9537,-0.993,-1.0568,-1.0955,-1.1274,0.0,0.0,0.0,0.0,0.0,0.0,0.0,0.0,0.0,0.0,0.0,0.0,0.0,0.0,0.0,0.0,0.0,-1.0743,-0.892,-0.8776,-0.7751,-0.5928,-0.4136,-0.2179,-0.0145,-0.0219,-0.0146,0.0,0.0,0.0,0.0,0.0,0.0,0.0,0.0,-0.1091,-0.2689,-0.2819,-0.4024,-0.583,0.0,0.0,0.0,0.0,0.0,0.0,0.0,0.0,0.0,0.0,0.0,0.0,0.0,0.0,0.0,0.0,0.0,0.0,0.0,0.0,0.0,0.0,0.0,0.0,0.0,0.0,0.0,0.0,0.0,0.0,0.0,0.0,0.0,0.0,0.0,0.0,0.0,0.0,0.0,0.0,0.0,0.0,0.0,0.0,0.0,0.0,0.0,0.0,0.0,0.0,0.0,0.0,0.0,0.0,0.0,0.0,0.0,-0.0126,-0.0793,-0.2093,-0.3568,-0.5136,-0.5789,-0.6657,-0.8864,-0.8523,-0.8164,-0.9787,-0.9618,-0.9228,-0.9282,-0.9713,-1.0243,-1.0656,-1.105,-1.1382,0.0,0.0,0.0,0.0,0.0,0.0,0.0,0.0,0.0,0.0,0.0,0.0,0.0,0.0,0.0,0.0,0.0,-1.0671,-0.8703,-0.7472,-0.5953,-0.3996,-0.327,-0.1892,0.0,0.0,0.0,0.0,0.0,0.0,0.0,0.0,0.0,0.0,0.0,-0.0405,-0.1009,-0.1009,-0.2148,-0.3823,0.0,0.0,0.0,0.0,0.0,0.0,0.0,0.0,0.0,0.0,0.0,0.0,0.0,0.0,0.0,0.0,0.0,0.0,0.0,0.0,0.0,0.0,0.0,0.0,0.0,0.0,0.0,0.0,0.0,0.0,0.0,0.0,0.0,0.0,0.0,0.0,0.0,0.0,0.0,0.0,0.0,0.0,0.0,0.0,0.0,0.0,0.0,0.0,0.0,0.0,0.0,0.0,0.0,0.0,0.0,0.0,-0.0252,-0.0712,-0.1483,-0.2695,-0.4142,-0.58,-0.6614,-0.7475,-0.9114,-0.9144,-0.9178,-1.0331,-1.0039,-0.9637,-0.9637,-0.9964,-1.0378,0.0,-1.1056,0.0,0.0,0.0,0.0,0.0,0.0,0.0,0.0,0.0,0.0,0.0,0.0,0.0,0.0,0.0,0.0,0.0,0.0,0.0,-0.7833,-0.5881,-0.3923,-0.1965,-0.1965,-0.1311,0.0,0.0,0.0,0.0,0.0,0.0,0.0,0.0,0.0,0.0,0.0,0.0,0.0,0.0,-0.0807,-0.1947,0.0,0.0,0.0,0.0,0.0,0.0,0.0,0.0,0.0,0.0,0.0,0.0,0.0,0.0,0.0,0.0,0.0,0.0,0.0,0.0,0.0,0.0,0.0,0.0,0.0,0.0,0.0,0.0,0.0,0.0,0.0,0.0,0.0,0.0,0.0,0.0,0.0,0.0,0.0,0.0,0.0,0.0,0.0,0.0,0.0,0.0,0.0,0.0,0.0,0.0,0.0,0.0,0.0,0.0,0.0,0.0,-0.084,-0.1802,-0.1804,-0.2685,-0.4003,-0.5609,-0.5931,-0.6503,-0.9005,-0.9374,-0.9514,-1.0507,-1.0602,-1.0493,-1.0487,-1.0378,-1.0385,-1.0677,0.0,0.0,0.0,0.0,0.0,0.0,0.0,0.0,0.0,0.0,0.0,0.0,0.0,0.0,0.0,0.0,0.0,0.0,0.0,0.0,-0.5808,-0.3851,-0.1892,0.0,0.0,0.0,0.0,0.0,0.0,0.0,0.0,0.0,0.0,0.0,0.0,0.0,0.0,0.0,0.0,0.0,0.0,-0.0268,0.0,0.0,0.0,0.0,0.0,0.0,0.0,0.0,0.0,0.0,0.0,0.0,0.0,0.0,0.0,0.0,0.0,0.0,0.0,0.0,0.0,0.0,0.0,0.0,0.0,0.0,0.0,0.0,0.0,0.0,0.0,0.0,0.0,0.0,0.0,0.0,0.0,0.0,0.0,0.0,0.0,0.0,0.0,0.0,0.0,0.0,0.0,0.0,0.0,0.0,0.0,0.0,0.0,0.0,0.0,0.0,-0.0256,-0.0888,-0.2437,-0.3269,-0.4305,-0.6548,-0.7413,-0.793,-0.8749,-0.9313,-0.9863,-1.0644,-1.0758,-1.0588,-1.0378,-1.0649,0.0,-1.0887,0.0,0.0,0.0,0.0,0.0,0.0,0.0,0.0,0.0,0.0,0.0,0.0,0.0,0.0,0.0,0.0,0.0,0.0,0.0,0.0,-0.5648,-0.3817,-0.1913,0.0,0.0,0.0,0.0,0.0,0.0,0.0,0.0,0.0,0.0,0.0,0.0,0.0,0.0,0.0,0.0,0.0,0.0,-0.0065,0.0,0.0,0.0,0.0,0.0,0.0,0.0,0.0,0.0,0.0,0.0,0.0,0.0,0.0,0.0,0.0,0.0,0.0,0.0,0.0,0.0,0.0,0.0,0.0,0.0,0.0,0.0,0.0,0.0,0.0,0.0,0.0,0.0,0.0,0.0,0.0,0.0,0.0,0.0,0.0,0.0,0.0,0.0,0.0,0.0,0.0,0.0,0.0,0.0,0.0,0.0,0.0,0.0,0.0,-0.0082,-0.0583,-0.1054,-0.1846,-0.3757,-0.4849,-0.5844,-0.7753,-0.8397,-0.8689,-0.9144,-0.9591,-1.0127,-1.088,-1.0867,-1.0704,-1.0643,-1.0873,0.0,0.0,0.0,0.0,0.0,0.0,0.0,0.0,0.0,0.0,0.0,0.0,0.0,0.0,0.0,0.0,0.0,0.0,0.0,0.0,0.0,0.0,-0.4538,-0.2658,-0.1191,0.0,0.0,0.0,0.0,0.0,0.0,0.0,0.0,0.0,0.0,0.0,0.0,0.0,0.0,0.0,0.0,0.0,0.0,0.0,0.0,0.0,0.0,0.0,0.0,0.0,0.0,0.0,0.0,0.0,0.0,0.0,0.0,0.0,0.0,0.0,0.0,0.0,0.0,0.0,0.0,0.0,0.0,0.0,0.0,0.0,0.0,0.0,0.0,0.0,0.0,0.0,0.0,0.0,0.0,0.0,0.0,0.0,0.0,0.0,0.0,0.0,0.0,0.0,0.0,0.0,0.0,0.0,0.0,0.0,0.0,0.0,0.0,0.0,-0.0234,-0.1296,-0.2514,-0.3805,-0.5254,-0.6643,-0.7898,-0.8859,-0.8899,-0.8974,-0.9965,-1.0093,-1.0276,-1.1016,-1.0914,-1.0792,-1.1104,-1.1056,-1.1056,0.0,0.0,0.0,0.0,0.0,0.0,0.0,0.0,0.0,0.0,0.0,0.0,0.0,0.0,0.0,0.0,0.0,0.0,0.0,0.0,0.0,-0.2927,-0.0978,0.0,0.0,0.0,0.0,0.0,0.0,0.0,0.0,0.0,0.0,0.0,0.0,0.0,0.0,0.0,0.0,0.0,0.0,0.0,0.0,0.0,0.0,0.0,0.0,0.0,0.0,0.0,0.0,0.0,0.0,0.0,0.0,0.0,0.0,0.0,0.0,0.0,0.0,0.0,0.0,0.0,0.0,0.0,0.0,0.0,0.0,0.0,0.0,0.0,0.0,0.0,0.0,0.0,0.0,0.0,0.0,0.0,0.0,0.0,0.0,0.0,0.0,0.0,0.0,0.0,0.0,0.0,0.0,0.0,0.0,0.0,0.0,0.0,0.0,-0.0037,-0.0318,-0.1378,-0.2818,-0.4163,-0.5465,-0.675,-0.8168,-0.8676,-0.9184,-1.0317,-1.0399,-1.0405,-1.1104,-1.0833,-1.067,-1.1152,-1.1138,0.0,0.0,0.0,0.0,0.0,0.0,0.0,0.0,0.0,0.0,0.0,0.0,0.0,0.0,0.0,0.0,0.0,0.0,0.0,0.0,0.0,-0.46,-0.2777,-0.095,0.0,0.0,0.0,0.0,0.0,0.0,0.0,0.0,0.0,0.0,0.0,0.0,0.0,0.0,0.0,0.0,0.0,0.0,0.0,0.0,0.0,0.0,0.0,0.0,0.0,0.0,0.0,0.0,0.0,0.0,0.0,0.0,0.0,0.0,0.0,0.0,0.0,0.0,0.0,0.0,0.0,0.0,0.0,0.0,0.0,0.0,0.0,0.0,0.0,0.0,0.0,0.0,0.0,0.0,0.0,0.0,0.0,0.0,0.0,0.0,0.0,0.0,0.0,0.0,0.0,0.0,0.0,0.0,0.0,0.0,0.0,0.0,0.0,0.0,-0.011,-0.0687,-0.1408,-0.2432,-0.4406,-0.5623,-0.6759,-0.8466,-0.9245,-0.9707,-1.0181,-1.0283,-1.0371,-1.0677,-1.0663,-1.0697,-1.1002,0.0,0.0,0.0,0.0,0.0,0.0,0.0,0.0,0.0,0.0,0.0,0.0,0.0,0.0,0.0,0.0,0.0,0.0,0.0,0.0,0.0,-0.5114,-0.3222,-0.1411,-0.0471,0.0,0.0,0.0,0.0,0.0,0.0,0.0,0.0,0.0,0.0,0.0,0.0,0.0,0.0,0.0,0.0,0.0,0.0,0.0,0.0,0.0,0.0,0.0,0.0,0.0,0.0,0.0,0.0,0.0,0.0,0.0,0.0,0.0,0.0,0.0,0.0,0.0,0.0,0.0,0.0,0.0,0.0,0.0,0.0,0.0,0.0,0.0,0.0,0.0,0.0,0.0,0.0,0.0,0.0,0.0,0.0,0.0,0.0,0.0,0.0,0.0,0.0,0.0,0.0,0.0,0.0,0.0,0.0,0.0,0.0,0.0,0.0,0.0,0.0,-0.018,-0.1185,-0.167,-0.2364,-0.4599,-0.5973,-0.7171,-0.9109,-0.9808,-1.0025,-0.9924,-1.0039,-1.0188,-1.0263,-1.0493,-1.0717,0.0,0.0,0.0,0.0,0.0,0.0,0.0,0.0,0.0,0.0,0.0,0.0,0.0,0.0,0.0,0.0,0.0,0.0,0.0,0.0,-0.7222,-0.5478,-0.3677,-0.1805,0.0,0.0,0.0,0.0,0.0,0.0,0.0,0.0,0.0,0.0,0.0,0.0,0.0,0.0,0.0,0.0,0.0,0.0,0.0,0.0,0.0,0.0,0.0,0.0,0.0,0.0,0.0,0.0,0.0,0.0,0.0,0.0,0.0,0.0,0.0,0.0,0.0,0.0,0.0,0.0,0.0,0.0,0.0,0.0,0.0,0.0,0.0,0.0,0.0,0.0,0.0,0.0,0.0,0.0,0.0,0.0,0.0,0.0,0.0,0.0,0.0,0.0,0.0,0.0,0.0,0.0,0.0,0.0,0.0,0.0,0.0,0.0,0.0,0.0,0.0,0.0,-0.0034,-0.0204,-0.1133,-0.2243,-0.2783,-0.4858,-0.7301,-0.9014,-0.9266,-0.9313,-1.0053,-0.9951,-0.9808,0.0,-1.0412,0.0,0.0,0.0,0.0,0.0,0.0,0.0,0.0,0.0,0.0,0.0,0.0,0.0,0.0,0.0,0.0,0.0,0.0,0.0,0.0,-0.8972,-0.719,-0.5464,-0.3621,-0.1836,0.0,0.0,0.0,0.0,0.0,0.0,0.0,0.0,0.0,0.0,0.0,0.0,0.0,0.0,0.0,0.0,0.0,0.0,0.0,0.0,0.0,0.0,0.0,0.0,0.0,0.0,0.0,0.0,0.0,0.0,0.0,0.0,0.0,0.0,0.0,0.0,0.0,0.0,0.0,0.0,0.0,0.0,0.0,0.0,0.0,0.0,0.0,0.0,0.0,0.0,0.0,0.0,0.0,0.0,0.0,0.0,0.0,0.0,0.0,0.0,0.0,0.0,0.0,0.0,0.0,0.0,0.0,0.0,0.0,0.0,0.0,0.0,0.0,0.0,0.0,0.0,0.0,0.0,-0.0471,-0.1382,-0.3243,-0.5034,-0.6891,-0.8921,-0.9096,-0.9001,-0.9734,-0.9686,-0.9585,-0.9951,-1.0141,0.0,0.0,0.0,0.0,0.0,0.0,0.0,0.0,0.0,0.0,0.0,0.0,0.0,0.0,0.0,0.0,0.0,0.0,0.0,-1.0473,-0.7847,-0.6,-0.5253,-0.2598,0.0,0.0,0.0,0.0,0.0,0.0,0.0,0.0,0.0,0.0,0.0,0.0,0.0,0.0,0.0,0.0,0.0,0.0,0.0,0.0,0.0,0.0,0.0,0.0,0.0,0.0,0.0,0.0,0.0,0.0,0.0,0.0,0.0,0.0,0.0,0.0,0.0,0.0,0.0,0.0,0.0,0.0,0.0,0.0,0.0,0.0,0.0,0.0,0.0,0.0,0.0,0.0,0.0,0.0,0.0,0.0,0.0,0.0,0.0,0.0,0.0,0.0,0.0,0.0,0.0,0.0,0.0,0.0,0.0,0.0,0.0,0.0,0.0,0.0,0.0,0.0,0.0,0.0,0.0,0.0,-0.0594,-0.3344,-0.4563,-0.567,-0.8081,-0.8347,-0.8262,-0.9128,-0.9232,-0.9245,0.0,0.0,0.0,0.0,0.0,0.0,0.0,0.0,0.0,0.0,0.0,0.0,0.0,0.0,0.0,0.0,0.0,0.0,0.0,0.0,0.0,-0.9697,-0.6737,-0.4935,-0.4533,-0.1602,0.0,0.0,0.0,0.0,0.0,0.0,0.0,0.0,0.0,0.0,0.0,0.0,0.0,0.0,0.0,0.0,0.0,0.0,0.0,0.0,0.0,0.0,0.0,0.0,0.0,0.0,0.0,0.0,0.0,0.0,0.0,0.0,0.0,0.0,0.0,0.0,0.0,0.0,0.0,0.0,0.0,0.0,0.0,0.0,0.0,0.0,0.0,0.0,0.0,0.0,0.0,0.0,0.0,0.0,0.0,0.0,0.0,0.0,0.0,0.0,0.0,0.0,0.0,0.0,0.0,0.0,0.0,0.0,0.0,0.0,0.0,0.0,0.0,0.0,0.0,0.0,0.0,0.0,0.0,0.0,0.0,-0.1902,-0.2515,-0.3309,-0.5964,-0.6376,-0.658,-0.819,0.0,-0.8655,0.0,0.0,0.0,0.0,0.0,0.0,0.0,0.0,0.0,0.0,0.0,0.0,0.0,0.0,0.0,0.0,0.0,0.0,0.0,0.0,0.0,-0.8023,-0.6161,-0.4403,-0.2896,-0.101,0.0,0.0,0.0,0.0,0.0,0.0,0.0,0.0,0.0,0.0,0.0,0.0,0.0,0.0,0.0,0.0,0.0,0.0,0.0,0.0,0.0,0.0,0.0,0.0,0.0,0.0,0.0,0.0,0.0,0.0,0.0,0.0,0.0,0.0,0.0,0.0,0.0,0.0,0.0,0.0,0.0,0.0,0.0,0.0,0.0,0.0,0.0,0.0,0.0,0.0,0.0,0.0,0.0,0.0,0.0,0.0,0.0,0.0,0.0,0.0,0.0,0.0,0.0,0.0,0.0,0.0,0.0,0.0,0.0,0.0,0.0,0.0,0.0,0.0,0.0,0.0,0.0,0.0,0.0,0.0,-0.0307,-0.1789,-0.212,-0.2568,-0.4683,-0.4921,-0.4862,-0.5821,-0.5999,-0.6215,0.0,0.0,0.0,0.0,0.0,0.0,0.0,0.0,0.0,0.0,0.0,0.0,0.0,0.0,0.0,0.0,0.0,0.0,0.0,0.0,0.0,-0.7598,-0.5645,-0.393,-0.2603,-0.087,0.0,0.0,0.0,0.0,0.0,0.0,0.0,0.0,0.0,0.0,0.0,0.0,0.0,0.0,0.0,0.0,0.0,0.0,0.0,0.0,0.0,0.0,0.0,0.0,0.0,0.0,0.0,0.0,0.0,0.0,0.0,0.0476,0.0043,0.0,0.0,0.0,0.0,0.0,0.0,0.0,0.0,0.0,0.0,0.0,0.0,0.0,0.0,0.0,0.0,0.0,0.0,0.0,0.0,0.0,0.0,0.0,0.0,0.0,0.0,0.0,0.0,0.0,0.0,0.0,0.0,0.0,0.0,0.0,0.0,0.0,0.0,0.0,0.0,0.0,0.0,0.0,0.0,0.0,0.0,0.0,-0.0215,-0.1192,-0.1332,-0.1581,-0.3183,-0.3362,-0.3344,-0.4131,-0.4347,-0.4637,0.0,0.0,0.0,0.0,0.0,0.0,0.0,0.0,0.0,0.0,0.0,0.0,0.0,0.0,0.0,0.0,0.0,0.0,0.0,0.0,0.0,-0.6677,-0.519,-0.3567,-0.1711,-0.0609,0.0,0.0,0.0,0.0,0.0,0.0,0.0,0.0,0.0,0.0,0.0,0.0,0.0,0.0,0.0,0.0,0.0,0.0,0.0,0.0,0.0,0.0,0.0,0.0,0.0,0.0,0.0,0.0,0.0,0.0,0.0,0.1388,0.0217,0.0,0.0,0.0,0.0,0.0,0.0,0.0,0.0,0.0,0.0,0.0,0.0,0.0,0.0,0.0,0.0,0.0,0.0,0.0,0.0,0.0,0.0,0.0,0.0,0.0,0.0,0.0,0.0,0.0,0.0,0.0,0.0,0.0,0.0,0.0,0.0,0.0,0.0,0.0,0.0,0.0,0.0,0.0,0.0,0.0,0.0,0.0,0.0,0.0,0.0,0.0,-0.1455,-0.1738,0.0,-0.3238,0.0,-0.41,0.0,0.0,0.0,0.0,0.0,0.0,0.0,0.0,0.0,0.0,0.0,0.0,0.0,0.0,0.0,0.0,0.0,0.0,0.0,0.0,-0.8265,-0.5032,-0.4787,-0.3295,-0.0121,0.0,0.0,0.0,0.0,0.0,0.0,0.0,0.0,0.0,0.0,0.0,0.0,0.0,0.0,0.0,0.0,0.0,0.0,0.0,0.0,0.0,0.0,0.0,0.0,0.0,0.0,0.0,0.0,0.0,0.3371,0.2695,0.2168,0.1681,0.0,0.0,0.0,0.0,0.0,0.0,0.0,0.0,0.0,0.0,0.0,0.0,0.0,0.0,0.0,0.0,0.0,0.0,0.0,0.0,0.0,0.0,0.0,0.0,0.0,0.0,0.0,0.0,0.0,0.0,0.0,0.0,0.0,0.0,0.0,0.0,0.0,0.0,0.0,0.0,0.0,0.0,0.0,0.0,0.0,0.0,0.0,0.0,0.0,0.0,0.0,0.0,0.0,0.0,0.0,0.0,0.0,0.0,0.0,0.0,0.0,0.0,0.0,0.0,0.0,0.0,0.0,0.0,0.0,0.0,0.0,0.0,0.0,0.0,0.0,0.0,0.0,-0.7724,-0.6258,-0.3327,-0.2025,-0.0952,0.0,0.0,0.0,0.0,0.0,0.0,0.0,0.0,0.0,0.0,0.0,0.0,0.0,0.0,0.0,0.0,0.0,0.0,0.0,0.0,0.0,0.0,0.0,0.0,0.0,0.0,0.0,0.0,0.4328,0.4808,0.4848,0.3784,0.3493,0.3175,0.0,0.0,0.0,0.0042,0.0,0.0,0.0,0.0,0.0,0.0,0.0,0.0,0.0,0.0,0.0,0.0,0.0,0.0,0.0,0.0,0.0,0.0,0.0,0.0,0.0,0.0,0.0,0.0,0.0,0.0,0.0,0.0,0.0,0.0,0.0,0.0,0.0,0.0,0.0,0.0,0.0,0.0,0.0,0.0,0.0,0.0,0.0,0.0,0.0,0.0,0.0,0.0,0.0,0.0,0.0,0.0,0.0,0.0,0.0,0.0,0.0,0.0,0.0,0.0,0.0,0.0,0.0,0.0,0.0,0.0,0.0,0.0,0.0,0.0,0.0,0.0,0.0,-0.608,-0.4943,-0.2639,-0.0935,0.0,0.0,0.0,0.0,0.0,0.0,0.0,0.0,0.0,0.0,0.0,0.0,0.0,0.0,0.0,0.0,0.0,0.0,0.0,0.0,0.0,0.0,0.0,0.0,0.0,0.0,0.0,0.0,0.5581,0.5581,0.6577,0.662,0.4352,0.4908,0.5163,0.0,0.2645,0.1379,0.0131,0.0,0.0,0.0,0.0,0.0,0.0,0.0,0.0,0.0,0.0,0.0,0.0,0.0,0.0,0.0,0.0,0.0,0.0,0.0,0.0,0.0,0.0,0.0,0.0,0.0,0.0,0.0,0.0,0.0,0.0,0.0,0.0,0.0,0.0,0.0,0.0,0.0,0.0,0.0,0.0,0.0,0.0,0.0,0.0,0.0,0.0,0.0,0.0,0.0,0.0,0.0,0.0,0.0,0.0,0.0,0.0,0.0,0.0,0.0,0.0,0.0,0.0,0.0,0.0,0.0,0.0,0.0,0.0,0.0,0.0,0.0,-0.6264,-0.4736,-0.4438,-0.3736,-0.2279,-0.0808,0.0,0.0,0.0,0.0,0.0,0.0,0.0,0.0,0.0,0.0,0.0,0.0,0.0,0.0,0.0,0.0,0.0,0.0,0.0,0.0,0.0,0.0,0.0,0.0,0.0,0.0,0.6738,0.6782,0.6782,0.6782,0.6986,0.7039,0.6717,0.5975,0.54,0.5371,0.3377,0.1476,0.0134,0.0,0.0,0.0,0.0,0.0,0.0,0.0,0.0,0.0,0.0,0.0,0.0,0.0,0.0,0.0,0.0,0.0,0.0,0.0,0.0,0.0,0.0,0.0,0.0,0.0,0.0,0.0,0.0,0.0,0.0,0.0,0.0,0.0,0.0,0.0,0.0,0.0,0.0,0.0,0.0,0.0,0.0,0.0,0.0,0.0,0.0,0.0,0.0,0.0,0.0,0.0,0.0,0.0,0.0,0.0,0.0,0.0,0.0,0.0,0.0,0.0,0.0,0.0,0.0,0.0,0.0,0.0,0.0,0.0,0.0,0.0,-0.4664,-0.3111,-0.1708,-0.0792,-0.0509,-0.0169,0.0,0.0,0.0,0.0,0.0,0.0,0.0,0.0,0.0,0.0,0.0,0.0,0.0,0.0,0.0,0.0,0.0,0.0,0.0,0.0,0.0,0.0,0.0,0.0,0.0,0.0,0.7098,0.7098,0.7098,0.7098,0.7204,0.7285,0.7405,0.6865,0.6541,0.6673,0.4484,0.2388,0.1061,0.0353,0.0,0.0,0.0,0.0,0.0,0.0,0.0,0.0,0.0,0.0,0.0,0.0,0.0,0.0,0.0,0.0,0.0,0.0,0.0,0.0,0.0,0.0,0.0,0.0,0.0,0.0,0.0,0.0,0.0,0.0,0.0,0.0,0.0,0.0,0.0,0.0,0.0,0.0,0.0,0.0,0.0,0.0,0.0,0.0,0.0,0.0,0.0,0.0,0.0,0.0,0.0,0.0,0.0,0.0,0.0,0.0,0.0,0.0,0.0,0.0,0.0,0.0,0.0,0.0,0.0,0.0,0.0,0.0,0.0,0.0,-0.291,-0.1361,-0.045,0.0,0.0,0.0,0.0,0.0,0.0,0.0,0.0,0.0,0.0,0.0,0.0,0.0,0.0,0.0,0.0,0.0,0.0,0.0,0.0,0.0,0.0,0.0,0.0,0.0,0.0,0.0,0.0,0.0,0.7085,0.7098,0.7098,0.7098,0.7244,0.7339,0.7412,0.7448,0.7429,0.7222,0.5227,0.331,0.1983,0.0721,0.0,0.0,0.0,0.0,0.0,0.0,0.0,0.0,0.0,0.0,0.0,0.0,0.0,0.0,0.0,0.0,0.0,0.0,0.0,0.0,0.0,0.0,0.0,0.0,0.0,0.0,0.0,0.0,0.0,0.0,0.0,0.0,0.0,0.0,0.0,0.0,0.0,0.0,0.0,0.0,0.0,0.0,0.0,0.0,0.0,0.0,0.0,0.0,0.0,0.0,0.0,0.0,0.0,0.0,0.0,0.0,0.0,0.0,0.0,0.0,0.0,0.0,0.0,0.0,0.0,0.0,0.0,0.0,0.0,0.0,-0.1264,-0.0112,0.0,0.0,0.0,0.0,0.0,0.0,0.0,0.0,0.0,0.0,0.0,0.0,0.0,0.0,0.0,0.0,0.0,0.0,0.0,0.0,0.0,0.0,0.0,0.0,0.0,0.0,0.0,0.0,0.0,0.0,0.7045,0.7098,0.7098,0.7098,0.7112,0.721,0.7398,0.7272,0.6834,0.595,0.464,0.3325,0.2122,0.0816,0.0,0.0,0.0,0.0,0.0,0.0,0.0,0.0,0.0,0.0,0.0,0.0,0.0,0.0,0.0,0.0,0.0,0.0,0.0,0.0,0.0,0.0,0.0,0.0,0.0,0.0,0.0,0.0,0.0,0.0,0.0,0.0,0.0,0.0,0.0,0.0,0.0,0.0,0.0,0.0,0.0,0.0,0.0,0.0,0.0,0.0,0.0,0.0,0.0,0.0,0.0,0.0,0.0,0.0,0.0,0.0,0.0,0.0,0.0,0.0,0.0,0.0,0.0,0.0,0.0,0.0,0.0,0.0,0.0,0.0,0.0,0.0,0.0,0.0,0.0,0.0,0.0,0.0,0.0,0.0,0.0,0.0,0.0,0.0,0.0,0.0,0.0,0.0,0.0,0.0,0.0,0.0,0.0,0.0,0.0,0.0,0.0,0.0,0.0,0.0,0.0,0.0,0.6858,0.6916,0.6943,0.6898,0.6984,0.7119,0.7224,0.7435,0.7402,0.6746,0.5727,0.4569,0.3192,0.1863,0.0764,0.0055,0.0,0.0,0.0,0.0,0.0,0.0,0.0,0.0,0.0,0.0,0.0,0.0,0.0,0.0,0.0,0.0,0.0,0.0,0.0,0.0,0.0,0.0,0.0,0.0,0.0,0.0,0.0,0.0,0.0,0.0,0.0,0.0,0.0,0.0,0.0,0.0,0.0,0.0,0.0,0.0,0.0,0.0,0.0,0.0,0.0,0.0,0.0,0.0,0.0,0.0,0.0,0.0,0.0,0.0,0.0,0.0,0.0,0.0,0.0,0.0,0.0,0.0,0.0,0.0,0.0,0.0,0.0,0.0,0.0,0.0,0.0,0.0,0.0,0.0,0.0,0.0,0.0,0.0,0.0,0.0,0.0,0.0,0.0,0.0,0.0,0.0,0.0,0.0,0.0,0.0,0.0,0.0,0.0,0.0,0.0,0.0,0.0,0.0,0.0,0.0,0.658,0.6736,0.6844,0.6776,0.6896,0.7051,0.7092,0.757,0.7889,0.7651,0.6702,0.5646,0.4771,0.3286,0.2113,0.1437,0.0908,0.0665,0.0808,0.0299,0.0,0.0,0.0,0.0,0.0,0.0,0.0,0.0,0.0,0.0,0.0,0.0,0.0,0.0,0.0,0.0,0.0,0.0,0.0,0.0,0.0,0.0,0.0,0.0,0.0,0.0,0.0,0.0,0.0,0.0,0.0,0.0,0.0,0.0,0.0,0.0,0.0,0.0,0.0,0.0,0.0,0.0,0.0,0.0,0.0,0.0,0.0,0.0,0.0,0.0,0.0,0.0,0.0,0.0,0.0,0.0,0.0,0.0,0.0,0.0,0.0,0.0,0.0,0.0,0.0,0.0,0.0,0.0,0.0,0.0,0.0,0.0,0.0,0.0,0.0,0.0,0.0,0.0,0.0,0.0,0.0,0.0,0.0,0.0,0.0,0.0,0.0,0.0,0.0,0.0,0.0,0.0,0.0,0.0,0.0,0.0,0.6313,0.6512,0.6756,0.6856,0.6883,0.6937,0.7071,0.7483,0.7923,0.8208,0.695,0.6213,0.673,0.5063,0.4211,0.4878,0.3218,0.2326,0.2803,0.1068,0.0,0.0,0.0,0.0,0.0,0.0,0.0,0.0,0.0,0.0,0.0,0.0,0.0,0.0,0.0,0.0,0.0,0.0,0.0,0.0,0.0,0.0,0.0,0.0,0.0,0.0,0.0,0.0,0.0,0.0,0.0,0.0,0.0,0.0,0.0,0.0,0.0,0.0,0.0,0.0,0.0,0.0,0.0,0.0,0.0,0.0,0.0,0.0,0.0,0.0,0.0,0.0,0.0,0.0,0.0,0.0,0.0,0.0,0.0,0.0,0.0,0.0,0.0,0.0,0.0,0.0,0.0,0.0,0.0,0.0,0.0,0.0,0.0,0.0,0.0,0.0,0.0,0.0,0.0,0.0,0.0,0.0,0.0,0.0,0.0,0.0,0.0,0.0,0.0,0.0,0.0,0.0,0.0,0.0,0.0,0.0,0.6497,0.6566,0.6654,0.6512,0.6729,0.6903,0.695,0.7166,0.7584,0.8194,0.7943,0.7627,0.7511,0.686,0.6023,0.5154,0.4767,0.4467,0.4252,0.2793,0.1853,0.1802,0.0644,0.0,0.0,0.0,0.0,0.0,0.0,0.0,0.0,0.0,0.0,0.0,0.0,0.0,0.0,0.0,0.0,0.0,0.0,0.0,0.0,0.0,0.0,0.0,0.0,0.0,0.0,0.0,0.0,0.0,0.0,0.0,0.0,0.0,0.0,0.0,0.0,0.0,0.0,0.0,0.0,0.0,0.0,0.0,0.0,0.0,0.0,0.0,0.0,0.0,0.0,0.0,0.0,0.0,0.0,0.0,0.0,0.0,0.0,0.0,0.0,0.0,0.0,0.0,0.0,0.0,0.0,0.0,0.0,0.0,0.0,0.0,0.0,0.0,0.0,0.0,0.0,0.0,0.0,0.0,0.0,0.0,0.0,0.0,0.0,0.0,0.0,0.0,0.0,0.0,0.0,0.0,0.0,0.0,0.6627,0.6634,0.6661,0.6525,0.6776,0.6997,0.7149,0.738,0.7848,0.871,0.8811,0.8826,0.8853,0.8545,0.8059,0.7263,0.6669,0.602,0.5277,0.4061,0.2883,0.1796,0.1056,0.0493,0.0,0.0,0.0,0.0,0.0,0.0,0.0,0.0,0.0,0.0,0.0,0.0,0.0,0.0,0.0,0.0,0.0,0.0,0.0,0.0,0.0,0.0,0.0,0.0,0.0,0.0,0.0,0.0,0.0,0.0,0.0,0.0,0.0,0.0,0.0,0.0,0.0,0.0,0.0,0.0,0.0,0.0,0.0,0.0,0.0,0.0,0.0,0.0,0.0,0.0,0.0,0.0,0.0,0.0,0.0,0.0,0.0,0.0,0.0,0.0,0.0,0.0,0.0,0.0,0.0,0.0,0.0,0.0,0.0,0.0,0.0,0.0,0.0,0.0,0.0,0.0,0.0,0.0,0.0,0.0,0.0,0.0,0.0,0.0,0.0,0.0,0.0,0.0,0.0,0.0,0.0,0.0,0.677,0.6715,0.6763,0.6856,0.6991,0.7193,0.7563,0.7984,0.8642,0.9666,0.9585,0.9761,1.0636,1.0243,1.0118,1.0793,0.8845,0.711,0.6058,0.4973,0.3197,0.0556,0.1459,0.1446,0.0168,0.0049,0.0,0.0,0.0,0.0,0.0,0.0,0.0,0.0,0.0,0.0,0.0,0.0,0.0,0.0,0.0,0.0,0.0,0.0,0.0,0.0,0.0,0.0,0.0,0.0,0.0,0.0,0.0,0.0,0.0,0.0,0.0,0.0,0.0,0.0,0.0,0.0,0.0,0.0,0.0,0.0,0.0,0.0,0.0,0.0,0.0,0.0,0.0,0.0,0.0,0.0,0.0,0.0,0.0,0.0,0.0,0.0,0.0,0.0,0.0,0.0,0.0,0.0,0.0,0.0,0.0,0.0,0.0,0.0,0.0,0.0,0.0,0.0,0.0,0.0,0.0,0.0,0.0,0.0,0.0,0.0,0.0,0.0,0.0,0.0,0.0,0.0,0.0,0.0,0.0,0.0,0.6953,0.691,0.693,0.679,0.6885,0.7112,0.7678,0.8052,0.8567,0.9388,0.9815,1.0263,1.0759,1.105,1.0968,1.0493,1.0149,0.9711,0.8961,0.7655,0.6634,0.6215,0.3815,0.2343,0.1996,0.07,0.0,0.0,0.0,0.0,0.0,0.0,0.0,0.0,0.0,0.0,0.0,0.0,0.0,0.0,0.0,0.0,0.0,0.0,0.0,0.0,0.0,0.0,0.0,0.0,0.0,0.0,0.0,0.0,0.0,0.0,0.0,0.0,0.0,0.0,0.0,0.0,0.0,0.0,0.0,0.0,0.0,0.0,0.0,0.0,0.0,0.0,0.0,0.0,0.0,0.0,0.0,0.0,0.0,0.0,0.0,0.0,0.0,0.0,0.0,0.0,0.0,0.0,0.0,0.0,0.0,0.0,0.0,0.0,0.0,0.0,0.0,0.0,0.0,0.0,0.0,0.0,0.0,0.0,0.0,0.0,0.0,0.0,0.0,0.0,0.0,0.0,0.0,0.0,0.0,0.0,0.7038,0.7045,0.7045,0.6919,0.7346,0.7821,0.8153,0.835,0.8798,0.9747,1.0107,1.0453,1.0833,1.1348,1.1416,1.0907,1.0738,1.0287,0.9484,0.886,0.81,0.7146,0.5657,0.418,0.2754,0.1691,0.0808,0.0,0.0,0.0,0.0,0.0,0.0,0.0,0.0,0.0,0.0,0.0,0.0,0.0,0.0,0.0,0.0,0.0,0.0,0.0,0.0,0.0,0.0,0.0,0.0,0.0,0.0,0.0,0.0,0.0,0.0,0.0,0.0,0.0,0.0,0.0,0.0,0.0,0.0,0.0,0.0,0.0,0.0,0.0,0.0,0.0,0.0,0.0,0.0,0.0,0.0,0.0,0.0,0.0,0.0,0.0,0.0,0.0,0.0,0.0,0.0,0.0,0.0,0.0,0.0,0.0,0.0,0.0,0.0,0.0,0.0,0.0,0.0,0.0,0.0,0.0,0.0,0.0,0.0,0.0,0.0,0.0,0.0,0.0,0.0,0.0,0.0,0.0,0.0,0.0,0.7105,0.7098,0.7132,0.7152,0.8004,0.0,0.0,0.8954,0.0,1.0365,0.0,1.0582,1.0847,1.1348,1.1599,1.1538,1.0819,0.9986,0.9079,0.9381,0.8614,0.6439,0.72,0.6326,0.3469,0.3141,0.2124,0.0378,0.0321,0.0214,0.0,0.0,0.0,0.0,0.0,0.0,0.0,0.0,0.0,0.0,0.0,0.0,0.0,0.0,0.0,0.0,0.0,0.0,0.0,0.0,0.0,0.0,0.0,0.0,0.0,0.0,0.0,0.0,0.0,0.0,0.0,0.0,0.0,0.0,0.0,0.0,0.0,0.0,0.0,0.0,0.0,0.0,0.0,0.0,0.0,0.0,0.0,0.0,0.0,0.0,0.0,0.0,0.0,0.0,0.0,0.0,0.0,0.0,0.0,0.0,0.0,0.0,0.0,0.0,0.0,0.0,0.0,0.0,0.0,0.0,0.0,0.0,0.0,0.0,0.0,0.0,0.0,0.0,0.0,0.0,0.0,0.0,0.0,0.0,0.0,0.0,0.6997,0.7163,0.7373,0.7495,0.7977,0.8682,0.9726,1.0236,1.0541,1.0493,1.1016,1.1274,1.0914,1.1348,1.147,1.1029,1.0853,0.0,0.0,0.0,0.0,1.0235,0.8912,0.7847,0.7103,0.5507,0.3861,0.2253,0.2136,0.1339,0.0,0.0,0.0,0.0,0.0,0.0,0.0,0.0,0.0,0.0,0.0,0.0,0.0,0.0,0.0,0.0,0.0,0.0,0.0,0.0,0.0,0.0,0.0,0.0,0.0,0.0,0.0,0.0,0.0,0.0,0.0,0.0,0.0,0.0,0.0,0.0,0.0,0.0,0.0,0.0,0.0,0.0,0.0,0.0,0.0,0.0,0.0,0.0,0.0,0.0,0.0,0.0,0.0,0.0,0.0,0.0,0.0,0.0,0.0,0.0,0.0,0.0,0.0,0.0,0.0,0.0,0.0,0.0,0.0,0.0,0.0,0.0,0.0,0.0,0.0,0.0,0.0,0.0,0.0,0.0,0.0,0.0,0.0,0.0,0.0,0.0,0.7516,0.7434,0.7441,0.7672,0.8343,0.0,0.0,1.0711,1.1158,1.0778,1.1043,1.1116,1.09,1.1348,1.1531,1.1244,1.1015,1.0981,1.128,1.0941,1.0934,1.122,1.0329,0.9218,0.7996,0.6988,0.524,0.269,0.2585,0.1622,0.0,0.0,0.0,0.0,0.0,0.0,0.0,0.0,0.0,0.0,0.0,0.0,0.0,0.0,0.0,0.0,0.0,0.0,0.0,0.0,0.0,0.0,0.0,0.0,0.0,0.0,0.0,0.0,0.0,0.0,0.0,0.0,0.0,0.0,0.0,0.0,0.0,0.0,0.0,0.0,0.0,0.0,0.0,0.0,0.0,0.0,0.0,0.0,0.0,0.0,0.0,0.0,0.0,0.0,0.0,0.0,0.0,0.0,0.0,0.0,0.0,0.0,0.0,0.0,0.0,0.0,0.0,0.0,0.0,0.0,0.0,0.0,0.0,0.0,0.0,0.0,0.0,0.0,0.0,0.0,0.0,0.0,0.0,0.0,0.0,0.0,0.8303,0.8018,0.7902,0.8228,0.8947,0.0,1.0039,1.0887,1.1382,1.1055,1.1022,1.1022,1.1022,1.1409,1.1579,1.1484,1.117,1.1158,1.1321,1.1151,1.1036,1.1023,1.1084,1.0298,0.859,0.8432,0.6831,0.0,0.3248,0.2153,0.0447,0.0154,0.0,0.0,0.0,0.0,0.0,0.0,0.0,0.0,0.0,0.0,0.0,0.0,0.0,0.0,0.0,0.0,0.0,0.0,0.0,0.0,0.0,0.0,0.0,0.0,0.0,0.0,0.0,0.0,0.0,0.0,0.0,0.0,0.0,0.0,0.0,0.0,0.0,0.0,0.0,0.0,0.0,0.0,0.0,0.0,0.0,0.0,0.0,0.0,0.0,0.0,0.0,0.0,0.0,0.0,0.0,0.0,0.0,0.0,0.0,0.0,0.0,0.0,0.0,0.0,0.0,0.0,0.0,0.0,0.0,0.0,0.0,0.0,0.0,0.0,0.0,0.0,0.0,0.0,0.0,0.0,0.0,0.0,0.0,0.0,0.0,0.918,0.0,0.0,0.0,0.0,1.0907,1.1023,1.1076,1.1511,1.1558,1.1558,1.1558,1.1592,1.1457,1.0981,1.1278,1.1233,1.046,1.0995,1.1111,1.0575,1.0819,1.0799,1.0438,1.0192,0.9075,0.0,0.0,0.3742,0.1968,0.0636,0.0,0.0,0.0,0.0,0.0,0.0,0.0,0.0,0.0,0.0,0.0,0.0,0.0,0.0,0.0,0.0,0.0,0.0,0.0,0.0,0.0,0.0,0.0,0.0,0.0,0.0,0.0,0.0,0.0,0.0,0.0,0.0,0.0,0.0,0.0,0.0,0.0,0.0,0.0,0.0,0.0,0.0,0.0,0.0,0.0,0.0,0.0,0.0,0.0,0.0,0.0,0.0,0.0,0.0,0.0,0.0,0.0,0.0,0.0,0.0,0.0,0.0,0.0,0.0,0.0,0.0,0.0,0.0,0.0,0.0,0.0,0.0,0.0,0.0,0.0,0.0,0.0,0.0,0.0,0.0,0.0,0.0,0.0,0.0,0.0,0.0,0.0,0.0,0.0,0.0,0.0,1.1212,1.1416,1.1599,1.1619,1.1619,1.1619,1.1619,1.1545,1.1369,1.1518,1.147,1.1104,1.1274,1.1246,1.0907,1.0928,1.0806,1.0724,1.0514,0.9526,0.0,0.0,0.41,0.2363,0.167,0.0,0.0,0.0,0.0833,0.0,0.0,0.0,0.0,0.0,0.0,0.0,0.0,0.0,0.0,0.0,0.0,0.0,0.0,0.0,0.0,0.0,0.0,0.0,0.0,0.0,0.0,0.0,0.0,0.0,0.0,0.0,0.0,0.0,0.0,0.0,0.0,0.0,0.0,0.0,0.0,0.0,0.0,0.0,0.0,0.0,0.0,0.0,0.0,0.0,0.0,0.0,0.0,0.0,0.0,0.0,0.0,0.0,0.0,0.0,0.0,0.0,0.0,0.0,0.0,0.0,0.0,0.0,0.0,0.0,0.0,0.0,0.0,0.0,0.0,0.0,0.0,0.0,0.0,0.0,0.0,0.0,0.0,0.0,0.0,1.0744,0.0,1.0086,0.0,1.0602,1.0738,1.0853,1.1328,1.1572,1.1436,1.1538,1.1619,1.1619,1.1619,1.1565,1.1436,1.1545,1.1504,1.124,1.1328,1.1267,1.0975,1.0955,0.0,1.0724,1.0568,0.9851,0.8534,0.6745,0.5174,0.3937,0.0,0.0,0.0,0.2801,0.1853,0.0054,0.1021,0.0876,0.0059,0.054,0.0725,0.0667,0.0181,0.0301,0.0661,0.0178,0.0,0.0058,0.0579,0.0402,0.0,0.0,0.0,0.0,0.0,0.0,0.0,0.0,0.0,0.0,0.0,0.0,0.0,0.0,0.0,0.0,0.0,0.0,0.0,0.0,0.0,0.0,0.0,0.0,0.0,0.0,0.0,0.0,0.0,0.0,0.0,0.0,0.0,0.0,0.0,0.0,0.0,0.0,0.0,0.0,0.0,0.0,0.0,0.0,0.0,0.0,0.0,0.0,0.0,0.0,0.0,0.0,0.0,0.0,0.0,0.0,0.0,0.0,0.0,0.0,0.0,0.0,0.0,0.0,0.0,1.1348,1.1375,1.1416,1.1572,1.1599,1.1457,1.0948,1.1328,1.1463,1.0948,1.1341,1.1619,1.1619,1.1619,1.1443,1.0927,1.1362,1.124,1.0351,1.0982,1.1124,0.0,0.0,1.0806,1.0724,1.0568,1.0419,1.0276,0.0,0.0,0.7293,0.0,0.4003,0.2558,0.4167,0.3058,0.0235,0.3459,0.2962,0.0121,0.1806,0.2489,0.2274,0.0606,0.1024,0.2281,0.0592,0.0,0.0235,0.1939,0.1352,0.0,0.0,0.0,0.0,0.0,0.0,0.0,0.0,0.0,0.0,0.0,0.0,0.0,0.0,0.0,0.0,0.0,0.0,0.0,0.0,0.0,0.0,0.0,0.0,0.0,0.0,0.0,0.0,0.0,0.0,0.0,0.0,0.0,0.0,0.0,0.0,0.0,0.0,0.0,0.0,0.0,0.0,0.0,0.0,0.0,0.0,0.0,0.0,0.0,0.0,0.0,0.0,0.0,0.0,0.0,0.0,0.0,0.0,0.0,0.0,0.0,0.0,0.0,0.0,0.0,1.0683,1.1124,1.1463,1.1136,1.1416,1.1572,1.143,1.1525,1.1565,1.1423,1.1531,1.1619,1.1619,1.1619,1.1558,0.0,1.1184,1.1172,0.0,1.1029,1.0934,1.0948,1.0656,1.0371,1.0114,1.0161,1.0066,0.9822,0.0,0.0,0.0,0.6704,0.6115,0.5671,0.6191,0.5284,0.3401,0.4469,0.367,0.1834,0.3481,0.349,0.2583,0.3121,0.3664,0.4087,0.3522,0.3312,0.3401,0.3934,0.3788,0.334,0.3361,0.178,0.0171,0.1179,0.0784,0.0224,0.1231,0.0784,0.0224,0.1231,0.0728,0.028,0.1287,0.2293,0.2796,0.1734,0.1491,0.1196,0.016,0.0,0.0,0.0,0.0,0.0,0.0,0.0,0.0,0.0,0.0,0.0,0.0,0.0,0.0,0.0,0.0,0.0,0.0,0.0,0.0,0.0,0.0,0.0,0.0,0.0,0.0,0.0,0.0,0.0,0.0,0.0,0.0,0.0,0.0,0.0,0.0,0.0,0.0,0.0,0.0,0.0,0.0,0.0,0.0,0.0,1.0839,1.1233,1.1531,1.1177,1.143,1.1565,1.1396,1.1511,1.1558,1.1389,1.1518,1.1619,1.1619,1.1619,0.0,1.1619,1.1362,1.1321,1.1599,1.1267,1.109,1.1227,1.0806,1.0466,1.0168,0.0,0.0,1.0025,0.9229,0.8714,0.835,0.8217,0.7766,0.7213,0.787,0.6896,0.4965,0.6232,0.5418,0.3566,0.5161,0.5219,0.4361,0.4732,0.5284,0.5774,0.51,0.4885,0.4965,0.5629,0.5414,0.5126,0.6282,0.4467,0.2035,0.2895,0.2472,0.1902,0.2794,0.2405,0.1902,0.285,0.2349,0.1958,0.285,0.3801,0.4247,0.324,0.3088,0.2767,0.1762,0.1154,0.0815,0.0772,0.0,0.0,0.0,0.0,0.0,0.0,0.0,0.0,0.0,0.0,0.0,0.0,0.0,0.0,0.0,0.0,0.0,0.0,0.0,0.0,0.0,0.0,0.0,0.0,0.0,0.0,0.0,0.0,0.0,0.0,0.0,0.0,0.0,0.0,0.0,0.0,0.0,0.0,0.0,0.0,0.0,0.0,1.1531,1.1579,0.0,0.0,1.1599,0.0,1.0988,1.1348,1.147,1.0981,1.1362,1.1619,1.1619,1.1619,1.1619,1.1619,0.0,0.0,0.0,1.1592,1.1457,1.1192,1.1138,0.0,1.0677,1.0677,1.069,1.0717,1.0432,1.0215,0.9997,0.991,0.9025,0.7606,0.914,0.8099,0.5468,0.8532,0.7978,0.5223,0.6874,0.7484,0.724,0.5774,0.6202,0.7362,0.5774,0.5223,0.5468,0.7057,0.6508,0.5762,0.8696,0.7568,0.519,0.4908,0.4697,0.4533,0.4641,0.4582,0.4526,0.4637,0.4637,0.4637,0.4637,0.4749,0.4749,0.4693,0.4636,0.4557,0.4259,0.3195,0.2317,0.217,0.1007,0.0149,0.0143,0.0,0.0,0.0,0.0,0.0,0.0,0.0,0.0,0.0,0.0,0.0,0.0,0.0,0.0,0.0,0.0,0.0,0.0,0.0,0.0,0.0,0.0,0.0,0.0,0.0,0.0,0.0,0.0,0.0,0.0,0.0,0.0,0.0,0.0,0.0,0.0,0.0,0.0,0.0,0.0,0.0,1.1511,1.1096,1.1389,1.1586,1.1477,1.1552,1.1579,1.1477,1.1552,1.1619,1.1619,1.1619,1.1619,1.1619,1.1237,1.1253,1.1599,1.1231,1.1179,1.1328,1.0894,1.0514,1.0279,1.0209,1.0314,1.0717,1.0534,1.0371,1.0222,1.0066,0.9685,0.9268,0.9633,0.939,0.8714,0.9451,0.8653,0.6935,0.8593,0.8465,0.7484,0.8343,0.8897,0.9201,0.8775,0.8653,0.8714,0.9079,0.8958,0.8769,0.9539,0.9147,0.8231,0.6814,0.5532,0.4878,0.5884,0.5361,0.4749,0.5922,0.62,0.62,0.62,0.7038,0.7537,0.6422,0.6181,0.5777,0.4425,0.3965,0.3705,0.3534,0.2384,0.1549,0.1511,0.0623,0.0,0.0,0.0,0.0,0.0,0.0,0.0,0.0,0.0,0.0,0.0,0.0,0.0,0.0,0.0,0.0,0.0,0.0,0.0,0.0,0.0,0.0,0.0,0.0,0.0,0.0,0.0,0.0,0.0,0.0,0.0,0.0,0.0,0.0,0.0,0.0,0.0,0.0,1.0941,1.1287,1.1545,1.1231,1.1457,1.1619,1.1619,1.1619,1.1619,1.1619,1.1619,1.1619,1.1619,1.1619,1.1619,1.1619,1.1396,1.1355,1.1606,1.1389,1.1294,1.1389,1.1009,1.069,1.0466,1.0392,1.0408,1.0717,1.0568,1.0453,1.0371,1.0222,1.0114,1.0032,1.0032,1.0032,1.0032,1.0032,0.9529,0.8765,0.9581,0.9364,0.8676,0.9477,0.9822,0.9822,0.9822,0.9822,0.9822,0.9822,0.9822,0.9822,0.9822,0.9768,0.948,0.8423,0.7462,0.6894,0.7516,0.7149,0.67,0.7482,0.7709,0.7709,0.7709,0.8325,0.8657,0.7875,0.7709,0.7425,0.6417,0.5704,0.5187,0.4951,0.3655,0.2618,0.2532,0.1889,0.0,0.0648,0.0717,0.061,0.0044,0.0,0.0,0.0,0.0,0.0,0.0,0.0,0.0,0.0,0.0,0.0,0.0,0.0,0.0,0.0,0.0,0.0,0.0,0.0,0.0,0.0,0.0,0.0,0.0,0.0,0.0,0.0,0.0,0.0,0.0,0.0,0.0,0.0,1.1619,1.1619,1.1619,1.1619,1.1619,1.1619,1.1619,1.1619,1.1619,1.1619,1.1619,1.1619,1.1619,1.1619,1.1619,1.1619,1.1619,1.1619,1.1619,1.1619,1.1558,1.143,1.128,1.1138,1.0948,1.0846,1.0744,1.0717,1.0588,1.0514,1.0487,1.0371,1.0304,1.0283,1.0283,1.0283,1.0283,1.0283,1.0283,1.027,1.0134,1.0011,0.9977,0.993,0.9876,0.9856,0.9856,0.9856,0.9849,0.9829,0.9822,0.9822,0.9822,0.9822,0.9795,0.9652,0.9422,0.9184,0.9015,0.8898,0.8885,0.8885,0.8885,0.8885,0.8885,0.8885,0.8885,0.8885,0.8885,0.8838,0.8737,0.7671,0.6698,0.6321,0.4802,0.3654,0.3449,0.0,0.2781,0.1814,0.1755,0.1444,0.0381,0.0097,0.0,0.0,0.0,0.0,0.0,0.0,0.0,0.0,0.0,0.0,0.0,0.0,0.0,0.0,0.0,0.0,0.0,0.0,0.0,0.0,0.0,0.0,0.0,0.0,0.0,0.0,0.0,0.0,0.0,0.0,0.0,0.0,1.1619,1.1619,1.1619,1.1619,1.1619,1.1619,1.1619,1.1619,1.1619,1.1619,1.1619,1.1619,1.1619,1.1619,1.1619,1.1619,1.1619,1.1619,1.1619,1.1619,1.1606,1.1586,1.1436,1.1348,1.1321,1.105,1.0786,1.0717,1.0697,1.0616,1.0493,1.0466,1.0392,1.0283,1.0283,1.0283,1.0283,1.0283,1.0283,1.0276,1.0256,1.0168,0.9997,1.0168,1.0127,0.995,0.995,0.995,0.993,0.9863,0.9822,0.9822,0.9822,0.9822,0.9795,0.9652,0.9578,0.9476,0.9198,0.9028,0.8885,0.8885,0.8885,0.8885,0.8885,0.8885,0.8885,0.8885,0.8885,0.8838,0.8737,0.8421,0.7994,0.7465,0.6098,0.501,0.0,0.0,0.3307,0.3412,0.258,0.1881,0.1703,0.0685,0.0,0.0,0.0,0.0,0.0,0.0,0.0,0.0,0.0,0.0,0.0,0.0,0.0,0.0,0.0,0.0,0.0,0.0,0.0,0.0,0.0,0.0,0.0,0.0,0.0,0.0,0.0,0.0,0.0,0.0,0.0,0.0,1.1619,1.1619,1.1619,1.1619,1.1619,1.1619,1.1619,1.1619,1.1619,1.1619,1.1619,1.1619,1.1619,1.1619,1.1619,1.1619,1.1619,1.1619,1.1619,1.1619,1.1619,1.1619,1.147,1.1355,1.1267,1.1056,1.0847,1.0846,1.0758,1.0683,1.0616,1.0616,1.0582,1.0521,1.0521,1.0521,1.0521,1.0521,1.0521,1.0514,1.0426,1.0351,1.0283,1.0283,1.0236,1.0175,1.0175,1.0175,1.0148,0.9998,0.9883,0.9869,0.9849,0.9822,0.9808,0.9741,0.9612,0.9435,0.9268,0.9103,0.9035,0.8905,0.8885,0.8885,0.8885,0.8885,0.8885,0.8885,0.8885,0.8865,0.8845,0.871,0.8486,0.8133,0.7257,0.0,0.0,0.5773,0.5166,0.4736,0.4293,0.3531,0.2134,0.1442,0.0799,0.005,0.0,0.0,0.0,0.0,0.0,0.0,0.0,0.0,0.0,0.0,0.0,0.0,0.0,0.0,0.0,0.0,0.0,0.0,0.0,0.0,0.0,0.0,0.0,0.0,0.0,0.0,0.0,0.0,0.0,0.0,1.1619,1.1619,1.1619,1.1619,1.1619,1.1619,1.1619,1.1619,1.1619,1.1619,1.1619,1.1619,1.1619,1.1619,1.1619,1.1619,1.1619,1.1619,1.1619,1.1619,1.1619,1.1619,1.1504,1.1369,1.1219,1.1111,1.0948,1.088,1.0833,1.0758,1.0717,1.0717,1.0717,1.0717,1.0717,1.0717,1.0717,1.0717,1.0717,1.0711,1.0595,1.0521,1.048,1.0412,1.0365,1.0331,1.0331,1.0331,1.0304,1.0154,1.0038,1.0011,0.9924,0.9876,0.9869,0.9829,0.9659,0.9435,0.9268,0.9207,0.9173,0.8974,0.8885,0.8885,0.8885,0.8885,0.8885,0.8885,0.8885,0.8885,0.8885,0.8811,0.8635,0.8411,0.0,0.0,0.0,0.7299,0.6892,0.6056,0.5873,0.5094,0.3112,0.2666,0.2063,0.1008,0.0907,0.0806,0.0504,0.0454,0.0303,0.0,0.0,0.0,0.0,0.0,0.0,0.0,0.0,0.0,0.0,0.0,0.0,0.0,0.0,0.0,0.0,0.0,0.0,0.0,0.0,0.0,0.0,0.0,0.0,0.0,1.1619,1.1619,1.1619,1.1619,1.1619,1.1619,1.1619,1.1619,1.1619,1.1619,1.1619,1.1619,1.1619,1.1619,1.1619,1.1619,1.1619,1.1619,1.1619,1.1619,1.1619,1.1619,1.1606,1.1531,1.1375,1.1362,1.1226,1.088,1.0873,1.0793,1.0717,1.0717,1.0717,1.0717,1.0717,1.0717,1.0717,1.0717,1.0717,1.0717,1.0711,1.0616,1.0507,1.0636,1.0602,1.0473,1.0473,1.0473,1.0453,1.031,1.0263,1.0236,1.0017,0.997,0.9943,0.9863,0.9802,0.9693,0.9323,0.9207,0.9173,0.8974,0.8885,0.8885,0.8885,0.8885,0.8885,0.8885,0.8885,0.8885,0.8885,0.8811,0.8574,0.8089,0.0,0.0,0.746,0.7482,0.757,0.7616,0.6634,0.5922,0.5727,0.4568,0.3817,0.3717,0.3717,0.3165,0.1912,0.1861,0.1259,0.005,0.0,0.0,0.0,0.0,0.0,0.0,0.0,0.0,0.0,0.0,0.0,0.0,0.0,0.0,0.0,0.0,0.0,0.0,0.0,0.0,0.0,0.0,0.0,0.0,1.1619,1.1619,1.1619,1.1619,1.1619,1.1619,1.1619,1.1619,1.1619,1.1619,1.1619,1.1619,1.1619,1.1619,1.1619,1.1619,1.1619,1.1619,1.1619,1.1619,1.1619,1.1619,1.1619,1.1592,1.1531,1.1443,1.1335,1.1226,1.0968,1.0853,1.0793,1.0765,1.0717,1.0717,1.0717,1.0717,1.0717,1.0717,1.0717,1.0717,1.0717,1.0683,1.0636,1.0697,1.0683,1.0636,1.0636,1.0636,1.0609,1.046,1.0412,1.0385,1.0243,1.0195,1.0161,0.9943,0.9897,0.9768,0.9503,0.9367,0.9259,0.911,0.9008,0.8885,0.8885,0.8885,0.8885,0.8885,0.8885,0.8885,0.8885,0.8838,0.8743,0.8568,0.0,0.833,0.8214,0.8167,0.8167,0.8221,0.7814,0.7186,0.6286,0.5717,0.5031,0.4067,0.4014,0.3767,0.3265,0.2465,0.1762,0.1259,0.0454,0.0,0.0,0.0,0.0,0.0,0.0,0.0,0.0,0.0,0.0,0.0,0.0,0.0,0.0,0.0,0.0,0.0,0.0,0.0,0.0,0.0,0.0,0.0,1.1619,1.1619,1.1619,1.1619,1.1619,1.1619,1.1619,1.1619,1.1619,1.1619,1.1619,1.1619,1.1619,1.1619,1.1619,1.1619,1.1619,1.1619,1.1619,1.1619,1.1619,1.1619,1.1619,1.1619,1.1619,1.1518,1.1436,1.1389,1.1185,1.1063,1.1016,1.086,1.0792,1.0792,1.0744,1.0717,1.0717,1.0717,1.0717,1.0717,1.0717,1.0717,1.0717,1.0717,1.0717,1.0717,1.0717,1.0717,1.0704,1.0602,1.0561,1.0534,1.0392,1.0317,1.0249,1.0031,0.9916,0.9863,0.9713,0.9564,0.9401,0.9262,0.9083,0.8994,0.8892,0.8885,0.8885,0.8885,0.8885,0.8885,0.8885,0.8885,0.8885,0.8885,0.8797,0.8764,0.8716,0.8621,0.8533,0.8486,0.8479,0.8125,0.7084,0.697,0.6559,0.5427,0.5367,0.5166,0.4758,0.3377,0.2679,0.2762,0.1834,0.1325,0.1435,0.0457,0.0,0.0,0.0,0.0,0.0,0.0,0.0,0.0,0.0,0.0,0.0,0.0,0.0,0.0,0.0,0.0,0.0,0.0,0.0,0.0,1.1619,1.1619,1.1619,1.1619,1.1619,1.1619,1.1619,1.1619,1.1619,1.1619,1.1619,1.1619,1.1619,1.1619,1.1619,1.1619,1.1619,1.1619,1.1619,1.1619,1.1619,1.1619,1.1619,1.1619,1.1619,1.1619,1.1545,1.1396,1.1389,1.1314,1.1227,1.1016,1.088,1.0873,1.0792,1.0724,1.0717,1.0717,1.0717,1.0717,1.0717,1.0717,1.0717,1.0717,1.0717,1.0717,1.0717,1.0717,1.0717,1.0717,1.0717,1.0697,1.0541,1.0399,1.0249,1.0038,0.999,0.9957,0.9863,0.972,0.9537,0.9289,0.9214,0.9173,0.8974,0.8885,0.8885,0.8885,0.8885,0.8885,0.8885,0.8885,0.8885,0.8885,0.8885,0.8831,0.873,0.871,0.8655,0.8506,0.8486,0.8486,0.8486,0.8486,0.8425,0.8333,0.8327,0.7699,0.64,0.4867,0.4191,0.4503,0.4327,0.4271,0.451,0.154,0.0051,0.0052,0.0,0.0,0.0,0.0,0.0,0.0,0.0,0.0,0.0,0.0,0.0,0.0,0.0,0.0,0.0,0.0,0.0,0.0,1.1619,1.1619,1.1619,1.1619,1.1619,1.1619,1.1619,1.1619,1.1619,1.1619,1.1619,1.1619,1.1619,1.1619,1.1619,1.1619,1.1619,1.1619,1.1619,1.1619,1.1619,1.1619,1.1619,1.1619,1.1619,1.1619,1.1599,1.1552,1.1443,1.1369,1.1321,1.1172,1.1043,1.088,1.0833,1.0819,1.0717,1.0717,1.0717,1.0717,1.0717,1.0717,1.0717,1.0717,1.0717,1.0717,1.0717,1.0717,1.0717,1.0717,1.0717,1.0711,1.0663,1.0548,1.0419,1.0371,1.0145,0.9977,0.993,0.9869,0.9713,0.9523,0.9395,0.9273,0.9123,0.9089,0.9062,0.8905,0.8885,0.8885,0.8885,0.8885,0.8885,0.8885,0.8885,0.8865,0.8824,0.8817,0.8797,0.8811,0.8804,0.8757,0.8655,0.8642,0.8581,0.8431,0.8418,0.8262,0.7884,0.6536,0.5818,0.5884,0.4905,0.4432,0.451,0.3625,0.3145,0.316,0.2057,0.1534,0.149,0.0482,0.0,0.0,0.0,0.0,0.0,0.0,0.0,0.0,0.0,0.0,0.0,0.0,0.0,0.0,1.1619,1.1619,1.1619,1.1619,1.1619,1.1619,1.1619,1.1619,1.1619,1.1619,1.1619,1.1619,1.1619,1.1619,1.1619,1.1619,1.1619,1.1619,1.1619,1.1619,1.1619,1.1619,1.1619,1.1619,1.1619,1.1619,1.1619,1.1619,1.1525,1.1484,1.1477,1.1321,1.1206,1.1118,1.1063,1.0982,1.0894,1.0894,1.0894,1.0894,1.0894,1.0894,1.0894,1.0894,1.086,1.0812,1.0812,1.0772,1.0717,1.0717,1.0717,1.0717,1.0717,1.0656,1.0568,1.0507,1.0365,1.0195,1.0017,0.9923,0.9876,0.9727,0.9585,0.9435,0.9337,0.9255,0.9187,0.9042,0.8981,0.8885,0.8885,0.8885,0.8885,0.8885,0.8885,0.8885,0.8885,0.8885,0.8885,0.8885,0.8885,0.8844,0.8811,0.8798,0.8737,0.8581,0.8513,0.8506,0.8567,0.7768,0.7364,0.7469,0.6615,0.6183,0.6227,0.6227,0.5665,0.4504,0.354,0.2801,0.2169,0.1304,0.0547,0.0,0.0,0.0,0.0,0.0,0.0,0.0,0.0,0.0,0.0,0.0,0.0,0.0,1.1619,1.1619,1.1619,1.1619,1.1619,1.1619,1.1619,1.1619,1.1619,1.1619,1.1619,1.1619,1.1619,1.1619,1.1619,1.1619,1.1619,1.1619,1.1619,1.1619,1.1619,1.1619,1.1619,1.1619,1.1619,1.1619,1.1619,1.1619,1.1619,1.1619,1.1613,1.1477,1.1402,1.1389,1.1246,1.1241,1.1234,1.1234,1.1234,1.1234,1.1234,1.1234,1.1234,1.1234,1.1084,1.09,1.0887,1.0793,1.0738,1.0724,1.0717,1.0717,1.0717,1.0717,1.069,1.0555,1.05,1.0432,1.0098,1.0004,0.9957,0.9876,0.9734,0.9591,0.9435,0.9344,0.9228,0.9214,0.9042,0.8885,0.8885,0.8885,0.8885,0.8885,0.8885,0.8885,0.8885,0.8885,0.8885,0.8885,0.8885,0.8885,0.8885,0.8885,0.8824,0.8743,0.8601,0.8581,0.8723,0.8601,0.8648,0.8871,0.8804,0.8798,0.8885,0.8885,0.7535,0.4912,0.4749,0.3963,0.2626,0.2459,0.1678,0.0392,0.028,0.0224,0.0168,0.0056,0.0,0.0,0.0,0.0,0.0,0.0,0.0,0.0,1.1619,1.1619,1.1619,1.1619,1.1619,1.1619,1.1619,1.1619,1.1619,1.1619,1.1619,1.1619,1.1619,1.1619,1.1619,1.1619,1.1619,1.1619,1.1619,1.1619,1.1619,1.1619,1.1619,1.1619,1.1619,1.1619,1.1619,1.1619,1.1619,1.1619,1.1619,1.1586,1.1504,1.1389,1.1355,1.1274,1.1234,1.1234,1.1234,1.1234,1.1234,1.1234,1.1234,1.1234,1.1145,1.1104,1.0989,1.086,1.0813,1.0758,1.0717,1.0717,1.0717,1.0717,1.0711,1.0677,1.0582,1.048,1.0412,1.0229,0.9977,0.995,0.9883,0.9741,0.9591,0.9442,0.9357,0.9234,0.9042,0.8885,0.8885,0.8885,0.8885,0.8885,0.8885,0.8885,0.8885,0.8885,0.8885,0.8885,0.8885,0.8885,0.8885,0.8885,0.8871,0.8838,0.8804,0.8797,0.8831,0.8804,0.8817,0.8885,0.8851,0.8851,0.8885,0.8885,0.8589,0.7944,0.6774,0.6065,0.5695,0.4526,0.3801,0.3466,0.2235,0.1733,0.1622,0.0504,0.0,0.0,0.0,0.0,0.0,0.0,0.0,0.0,1.1619,1.1619,1.1619,1.1619,1.1619,1.1619,1.1619,1.1619,1.1619,1.1619,1.1619,1.1619,1.1619,1.1619,1.1619,1.1619,1.1619,1.1619,1.1619,1.1619,1.1619,1.1619,1.1619,1.1619,1.1619,1.1619,1.1619,1.1619,1.1619,1.1619,1.1619,1.1619,1.1579,1.1497,1.1497,1.1457,1.1382,1.1382,1.1382,1.1382,1.1382,1.1382,1.1382,1.1382,1.1335,1.126,1.1185,1.1111,1.1029,1.088,1.0826,1.0752,1.0744,1.0717,1.0717,1.0717,1.0663,1.0582,1.0514,1.0378,1.0229,1.0024,0.993,0.9829,0.9741,0.9598,0.9469,0.9388,0.9191,0.9042,0.9042,0.8988,0.8885,0.8885,0.8885,0.8885,0.8885,0.8885,0.8885,0.8885,0.8885,0.8885,0.8885,0.8885,0.8885,0.8885,0.8885,0.8885,0.8885,0.8885,0.8885,0.8885,0.8885,0.8885,0.8885,0.8885,0.8885,0.8885,0.8097,0.7371,0.67,0.5922,0.5139,0.447,0.3634,0.3296,0.3185,0.1678,0.1456,0.2015,0.056,0.0448,0.0952,0.028,0.0,0.0,1.1619,1.1619,1.1619,1.1619,1.1619,1.1619,1.1619,1.1619,1.1619,1.1619,1.1619,1.1619,1.1619,1.1619,1.1619,1.1619,1.1619,1.1619,1.1619,1.1619,1.1619,1.1619,1.1619,1.1619,1.1619,1.1619,1.1619,1.1619,1.1619,1.1619,1.1619,1.1619,1.1619,1.1619,1.1619,1.1619,1.1619,1.1619,1.1619,1.1619,1.1619,1.1619,1.1619,1.1619,1.1538,1.1423,1.1402,1.1294,1.1145,1.1023,1.09,1.086,1.0799,1.0744,1.0717,1.0717,1.0717,1.069,1.0568,1.0514,1.0432,1.0125,1.0024,0.9957,0.989,0.9727,0.9612,0.9612,0.9367,0.9207,0.9207,0.9035,0.8885,0.8885,0.8885,0.8885,0.8885,0.8885,0.8885,0.8885,0.8885,0.8885,0.8885,0.8885,0.8885,0.8885,0.8885,0.8885,0.8885,0.8885,0.8885,0.8885,0.8885,0.8885,0.8885,0.8885,0.8885,0.8885,0.8885,0.8269,0.7093,0.7093,0.6422,0.525,0.4972,0.486,0.4749,0.324,0.3352,0.4247,0.1735,0.151,0.2459,0.1232,0.0784,0.0728,1.1619,1.1619,1.1619,1.1619,1.1619,1.1619,1.1619,1.1619,1.1619,1.1619,1.1619,1.1619,1.1619,1.1619,1.1619,1.1619,1.1619,1.1619,1.1619,1.1619,1.1619,1.1619,1.1619,1.1619,1.1619,1.1619,1.1619,1.1619,1.1619,1.1619,1.1619,1.1619,1.1619,1.1619,1.1619,1.1619,1.1619,1.1619,1.1619,1.1619,1.1619,1.1619,1.1619,1.1619,1.1606,1.1572,1.1436,1.1294,1.1227,1.1138,1.105,1.088,1.0853,1.0759,1.0717,1.0717,1.0717,1.0717,1.0697,1.0595,1.048,1.0439,1.0236,0.9984,0.9963,0.9808,0.9612,0.9612,0.9367,0.9207,0.9207,0.9035,0.8885,0.8885,0.8885,0.8885,0.8885,0.8885,0.8885,0.8885,0.8885,0.8885,0.8885,0.8885,0.8885,0.8885,0.8885,0.8885,0.8885,0.8885,0.8885,0.8885,0.8885,0.8885,0.8885,0.8885,0.8885,0.8885,0.8885,0.8774,0.8602,0.8602,0.8491,0.8208,0.6982,0.6422,0.6311,0.4804,0.4303,0.447,0.4024,0.4024,0.4191,0.3968,0.3913,0.3689,1.1619,1.1619,1.1619,1.1619,1.1619,1.1619,1.1619,1.1619,1.1619,1.1619,1.1619,1.1619,1.1619,1.1619,1.1619,1.1619,1.1619,1.1619,1.1619,1.1619,1.1619,1.1619,1.1619,1.1619,1.1619,1.1619,1.1619,1.1619,1.1619,1.1619,1.1619,1.1619,1.1619,1.1619,1.1619,1.1619,1.1619,1.1619,1.1619,1.1619,1.1619,1.1619,1.1619,1.1619,1.1619,1.1613,1.1545,1.1477,1.1402,1.1321,1.1246,1.1179,1.1097,1.0968,1.0779,1.0779,1.0785,1.0717,1.0717,1.067,1.0602,1.0514,1.0392,1.0256,1.0024,0.9889,0.9829,0.9747,0.9557,0.9408,0.9408,0.9218,0.9055,0.9055,0.8988,0.8885,0.8885,0.8885,0.8885,0.8885,0.8885,0.8885,0.8885,0.8885,0.8885,0.8885,0.8885,0.8885,0.8885,0.8885,0.8885,0.8885,0.8885,0.8885,0.8885,0.8885,0.8885,0.8885,0.8885,0.8885,0.8885,0.8885,0.8885,0.8885,0.8208,0.7931,0.782,0.6311,0.62,0.6811,0.5139,0.4526,0.4526,0.4526,0.4526,0.4414]}]]